[[{"header":{"parameterUnit":"m.s-1","parameterCategory":1,"la1":31.0,"la2":29.5877,"lo1":-88.7671,"lo2":-86.6584,"dy":0.0162,"dx":0.0185,"nx":115,"ny":88,"refTime":"2024-07-16T06:00:00:Z","depth":0,"parameterNumber":2,"parameterNumberName":"U-component_of_WINDS"},"data":[0.0,0.0,0.0,0.0,0.0,0.0,0.0,0.0,0.0,0.0,0.0,0.0,0.0,0.0,0.0,0.0,0.0,0.0,0.0,0.0,0.0,0.0,0.0,0.0,0.0,0.0,0.0,0.0,0.0,0.0,0.0,0.0,0.0,0.0,0.0,0.0,0.0,0.0,0.0,0.0,0.0,0.0,0.0,0.0,0.0,0.0,0.0,0.0,0.0,0.0,0.0,0.0,0.0,0.0,0.0,0.0,0.0,0.0,0.0,0.0,0.0,0.0,0.0,0.0,0.0,0.0,0.0,0.0,0.0,0.0,0.0,0.0,0.0,0.0,0.0,0.0,0.0,0.0,0.0,0.0,0.0,0.0,0.0,0.0,0.0,0.0,0.0,0.0,0.0,0.0,0.0,0.0,0.0,0.0,0.0,0.0,0.0,0.0,0.0,0.0,0.0,0.0,0.0,0.0,0.0,0.0,0.0,0.0,0.0,0.0,0.0,0.0,0.0,0.0,0.0,0.0,0.0,0.0,0.0,0.0,0.0,0.0,0.0,0.0,0.0,0.0,0.0,0.0,0.0,0.0,0.0,0.0,0.0,0.0,0.0,0.0,0.0,0.0,0.0,0.0,0.0,0.0,0.0,0.0,0.0,0.0,0.0,0.0,0.0,0.0,0.0,0.0,0.0,0.0,0.0,0.0,0.0,0.0,0.0,0.0,0.0,0.0,0.0,0.0,0.0,0.0,0.0,0.0,0.0,0.0,0.0,0.0,0.0,0.0,0.0,0.0,0.0,0.0,0.0,0.0,0.0,0.0,0.0,0.0,0.0,0.0,0.0,0.0,0.0,0.0,0.0,0.0,0.0,0.0,0.0,0.0,0.0,0.0,0.0,0.0,0.0,0.0,0.0,0.0,0.0,0.0,0.0,0.0,0.0,0.0,0.0,0.0,0.0,0.0,0.0,0.0,0.0,0.0,0.0,0.0,0.0,0.0,0.0,0.0,0.0,0.0,0.0,0.0,0.0,0.0,0.0,0.0,0.0,0.0,0.0,0.0,0.0,0.0,0.0,0.0,0.0,0.0,0.0,0.0,0.0,0.0,0.0,0.0,0.0,0.0,0.0,0.0,0.0,0.0,0.0,0.0,0.0,0.0,0.0,0.0,0.0,0.0,0.0,0.0,0.0,0.0,0.0,0.0,0.0,0.0,0.0,0.0,0.0,0.0,0.0,0.0,0.0,0.0,0.0,0.0,0.0,0.0,0.0,0.0,0.0,0.0,0.0,0.0,0.0,0.0,0.0,0.0,0.0,0.0,0.0,0.0,0.0,0.0,0.0,0.0,0.0,0.0,0.0,0.0,0.0,0.0,0.0,0.0,0.0,0.0,0.0,0.0,0.0,0.0,0.0,0.0,0.0,0.0,0.0,0.0,0.0,0.0,0.0,0.0,0.0,0.0,0.0,0.0,0.0,0.0,0.0,0.0,0.0,0.0,0.0,0.0,0.0,0.0,0.0,0.0,0.0,0.0,0.0,0.0,0.0,0.0,0.0,0.0,0.0,0.0,0.0,0.0,0.0,0.0,0.0,0.0,0.0,0.0,0.0,0.0,0.0,0.0,0.0,0.0,0.0,0.0,0.0,0.0,0.0,0.0,0.0,0.0,0.0,0.0,0.0,0.0,0.0,0.0,0.0,0.0,0.0,0.0,0.0,0.0,0.0,0.0,0.0,0.0,0.0,0.0,0.0,0.0,0.0,0.0,0.0,0.0,0.0,0.0,0.0,0.0,0.0,0.0,0.0,0.0,0.0,0.0,0.0,0.0,0.0,0.0,0.0,0.0,0.0,0.0,0.0,0.0,0.0,0.0,0.0,0.0,0.0,0.0,0.0,0.0,0.0,0.0,0.0,0.0,0.0,0.0,0.0,0.0,0.0,0.0,0.0,0.0,0.0,0.0,0.0,0.0,0.0,0.0,0.0,0.0,0.0,0.0,0.0,0.0,0.0,0.0,0.0,0.0,0.0,0.0,0.0,0.0,0.0,0.0,0.0,0.0,0.0,0.0,0.0,0.0,0.0,0.0,0.0,0.0,0.0,0.0,0.0,0.0,0.0,0.0,0.0,0.0,0.0,0.0,0.0,0.0,0.0,0.0,0.0,0.0,0.0,0.0,0.0,0.0,0.0,0.0,0.0,0.0,0.0,0.0,0.0,0.0,0.0,0.0,0.0,0.0,0.0,0.0,0.0,0.0,0.0,0.0,0.0,0.0,0.0,0.0,0.0,0.0,0.0,0.0,0.0,0.0,0.0,0.0,0.0,0.0,0.0,0.0,0.0,0.0,0.0,0.0,0.0,0.0,0.0,0.0,0.0,0.0,0.0,0.0,0.0,0.0,0.0,0.0,0.0,0.0,0.0,0.0,0.0,0.0,0.0,0.0,0.0,0.0,0.0,0.0,0.0,0.0,0.0,0.0,0.0,0.0,0.0,0.0,0.0,0.0,0.0,0.0,0.0,0.0,0.0,0.0,0.0,0.0,0.0,0.0,0.0,0.0,0.0,0.0,0.0,0.0,0.0,0.0,0.0,0.0,0.0,0.0,0.0,0.0,0.0,0.0,0.0,0.0,0.0,0.0,0.0,0.0,0.0,0.0,0.0,0.0,0.0,0.0,0.0,0.0,0.0,0.0,0.0,0.0,0.0,0.0,0.0,0.0,0.0,0.0,0.0,0.0,0.0,0.0,0.0,0.0,0.0,0.0,0.0,0.0,0.0,0.0,0.0,0.0,0.0,0.0,0.0,0.0,0.0,0.0,0.0,0.0,0.0,0.0,0.0,0.0,0.0,0.0,0.0,0.0,0.0,0.0,0.0,0.0,0.0,0.0,0.0,0.0,0.0,0.0,0.0,0.0,0.0,0.0,0.0,0.0,0.0,0.0,0.0,0.0,0.0,0.0,0.0,0.0,0.0,0.0,0.0,0.0,0.0,0.0,0.0,0.0,0.0,0.0,0.0,0.0,0.0,0.0,0.0,0.0,0.0,0.0,0.0,0.0,0.0,0.0,0.0,0.0,0.0,0.0,0.0,0.0,0.0,0.0,0.0,0.0,0.0,0.0,0.0,0.0,0.0,0.0,0.0,0.0,0.0,0.0,0.0,0.0,0.0,0.0,0.0,0.0,0.0,0.0,0.0,0.0,0.0,0.0,0.0,0.0,0.0,0.0,0.0,0.0,0.0,0.0,0.0,0.0,0.0,0.0,0.0,0.0,0.0,0.0,0.0,0.0,0.0,0.0,0.0,0.0,0.0,0.0,0.0,0.0,0.0,0.0,0.0,0.0,0.0,0.0,0.0,0.0,0.0,0.0,0.0,0.0,0.0,0.0,0.0,0.0,0.0,0.0,0.0,0.0,0.0,0.0,0.0,0.0,0.0,0.0,0.0,0.0,0.0,0.0,0.0,0.0,0.0,0.0,0.0,0.0,0.0,0.0,0.0,0.0,0.0,0.0,0.0,0.0,0.0,0.0,0.0,0.0,0.0,0.0,0.0,0.0,0.0,0.0,0.0,0.0,0.0,0.0,0.0,0.0,0.0,0.0,0.0,0.0,0.0,0.0,0.0,0.0,0.0,0.0,0.0,0.0,0.0,0.0,0.0,0.0,0.0,0.0,0.0,0.0,0.0,0.0,0.0,0.0,0.0,0.0,0.0,0.0,0.0,0.0,0.0,0.0,0.0,0.0,0.0,0.0,0.0,0.0,0.0,0.0,0.0,0.0,0.0,0.0,0.0,0.0,0.0,0.0,0.0,0.0,0.0,0.0,0.0,0.0,0.0,0.0,0.0,0.0,0.0,0.0,0.0,0.0,0.0,0.0,0.0,0.0,0.0,0.0,0.0,0.0,0.0,0.0,0.0,0.0,0.0,0.0,0.0,0.0,0.0,0.0,0.0,0.0,0.0,0.0,0.0,0.0,0.0,0.0,0.0,0.0,0.0,0.0,0.0,0.0,0.0,0.0,0.0,0.0,0.0,0.0,0.0,0.0,0.0,0.0,0.0,0.0,0.0,0.0,0.0,0.0,0.0,0.0,0.0,0.0,0.0,0.0,0.0,0.0,0.0,0.0,0.0,0.0,0.0,0.0,0.0,0.0,0.0,0.0,0.0,0.0,0.0,0.0,0.0,0.0,0.0,0.0,0.0,0.0,0.0,0.0,0.0,0.0,0.0,0.0,0.0,0.0,0.0,0.0,0.0,0.0,0.0,0.0,0.0,0.0,0.0,0.0,0.0,0.0,0.0,0.0,0.0,0.0,-1.0312,0.0,0.0,0.0,0.0,0.0,0.0,0.0,0.0,0.0,0.0,0.0,0.0,0.0,0.0,0.0,0.0,0.0,0.0,0.0,0.0,0.0,0.0,0.0,0.0,0.0,0.0,0.0,0.0,0.0,0.0,0.0,0.0,0.0,0.0,0.0,0.0,0.0,0.0,0.0,0.0,0.0,0.0,0.0,0.0,0.0,0.0,0.0,0.0,0.0,0.0,0.0,0.0,0.0,0.0,0.0,0.0,0.0,0.0,0.0,0.0,0.0,0.0,0.0,0.0,0.0,0.0,0.0,0.0,0.0,0.0,0.0,0.0,0.0,0.0,0.0,0.0,0.0,0.0,0.0,0.0,0.0,0.0,0.0,0.0,0.0,0.0,0.0,0.0,0.0,0.0,0.0,0.0,0.0,0.0,0.0,0.0,0.0,0.0,0.0,0.0,0.0,0.0,0.0,0.0,0.0,0.0,0.0,0.0,0.0,0.0,-1.0312,-1.0312,-1.0312,-1.0312,-1.0312,0.0,0.0,0.0,0.0,0.0,0.0,0.0,0.0,0.0,0.0,0.0,0.0,0.0,0.0,0.0,0.0,0.0,0.0,0.0,0.0,0.0,0.0,0.0,0.0,0.0,0.0,0.0,0.0,0.0,0.0,0.0,0.0,0.0,0.0,0.0,0.0,0.0,0.0,0.0,0.0,0.0,0.0,0.0,0.0,0.0,0.0,0.0,0.0,0.0,0.0,0.0,0.0,0.0,0.0,0.0,0.0,0.0,0.0,0.0,0.0,0.0,0.0,0.0,0.0,0.0,0.0,0.0,0.0,0.0,0.0,0.0,0.0,0.0,0.0,0.0,0.0,0.0,0.0,0.0,0.0,0.0,0.0,0.0,0.0,0.0,0.0,0.0,0.0,0.0,0.0,0.0,0.0,0.0,0.0,0.0,0.0,0.0,0.0,0.0,0.0,0.0,0.0,0.0,0.0,0.0,0.0,0.0,0.0,0.0,0.0,0.0,0.0,-1.0586,-1.0605,-1.0605,0.0,0.0,0.0,0.0,0.0,0.0,0.0,0.0,0.0,0.0,0.0,0.0,0.0,0.0,0.0,0.0,0.0,0.0,0.0,0.0,0.0,0.0,0.0,0.0,0.0,0.0,0.0,0.0,0.0,0.0,0.0,0.0,0.0,0.0,0.0,0.0,0.0,0.0,0.0,0.0,0.0,0.0,0.0,0.0,0.0,0.0,0.0,0.0,0.0,0.0,0.0,0.0,0.0,0.0,0.0,0.0,0.0,0.0,0.0,0.0,0.0,0.0,0.0,0.0,0.0,0.0,0.0,0.0,0.0,0.0,0.0,0.0,0.0,0.0,0.0,0.0,0.0,0.0,0.0,0.0,0.0,0.0,0.0,0.0,0.0,0.0,0.0,0.0,0.0,0.0,0.0,0.0,0.0,0.0,0.0,0.0,0.0,0.0,0.0,0.0,0.0,0.0,0.0,0.0,0.0,0.0,0.0,0.0,0.0,0.0,-1.0664,-1.1445,-1.1465,0.0,-1.1484,0.0,0.0,0.0,0.0,0.0,0.0,0.0,0.0,0.0,0.0,0.0,0.0,0.0,0.0,0.0,0.0,0.0,0.0,0.0,0.0,0.0,0.0,0.0,0.0,0.0,0.0,0.0,0.0,0.0,0.0,0.0,0.0,0.0,0.0,0.0,0.0,0.0,0.0,0.0,0.0,0.0,0.0,0.0,0.0,0.0,0.0,0.0,0.0,0.0,0.0,0.0,0.0,0.0,0.0,0.0,0.0,0.0,0.0,0.0,0.0,0.0,0.0,0.0,0.0,0.0,0.0,0.0,0.0,0.0,0.0,0.0,0.0,0.0,0.0,0.0,0.0,0.0,0.0,0.0,0.0,0.0,0.0,0.0,0.0,0.0,0.0,0.0,0.0,0.0,0.0,0.0,0.0,0.0,0.0,0.0,0.0,0.0,0.0,0.0,0.0,0.0,0.0,0.0,0.0,0.0,0.0,0.0,0.0,0.0,0.0,0.0,-1.1602,-1.1602,-1.1602,0.0,0.0,0.0,0.0,0.0,0.0,0.0,0.0,0.0,0.0,0.0,0.0,0.0,0.0,0.0,0.0,0.0,0.0,0.0,0.0,0.0,0.0,0.0,0.0,0.0,0.0,0.0,0.0,0.0,0.0,0.0,0.0,0.0,0.0,0.0,0.0,0.0,0.0,0.0,0.0,0.0,0.0,0.0,0.0,0.0,0.0,0.0,0.0,0.0,0.0,0.0,0.0,0.0,0.0,0.0,0.0,0.0,0.0,0.0,0.0,0.0,0.0,0.0,0.0,0.0,0.0,0.0,0.0,0.0,0.0,0.0,0.0,0.0,0.0,0.0,0.0,0.0,0.0,0.0,0.0,0.0,0.0,0.0,0.0,0.0,0.0,0.0,0.0,0.0,0.0,0.0,0.0,0.0,0.0,0.0,0.0,0.0,0.0,0.0,0.0,0.0,0.0,0.0,0.0,0.0,0.0,0.0,0.0,0.0,0.0,-1.1406,0.0,-1.1934,-1.1953,-1.1738,-1.127,0.0,0.0,0.0,0.0,0.0,0.0,0.0,0.0,0.0,0.0,0.0,0.0,0.0,0.0,0.0,0.0,0.0,0.0,0.0,0.0,0.0,0.0,0.0,0.0,0.0,0.0,0.0,0.0,0.0,0.0,0.0,0.0,0.0,0.0,0.0,0.0,0.0,0.0,0.0,0.0,0.0,0.0,0.0,0.0,0.0,0.0,0.0,0.0,0.0,0.0,0.0,0.0,0.0,0.0,0.0,0.0,0.0,0.0,0.0,0.0,0.0,0.0,0.0,0.0,0.0,0.0,0.0,0.0,0.0,0.0,0.0,0.0,0.0,0.0,0.0,0.0,0.0,0.0,0.0,0.0,0.0,0.0,0.0,0.0,0.0,0.0,0.0,0.0,0.0,0.0,0.0,0.0,0.0,0.0,0.0,0.0,0.0,0.0,0.0,0.0,0.0,0.0,0.0,0.0,0.0,0.0,0.0,0.0,0.0,-1.1992,-1.1992,-1.2793,-1.2852,-1.2051,0.0,0.0,0.0,0.0,0.0,0.0,0.0,0.0,0.0,0.0,0.0,0.0,0.0,0.0,0.0,0.0,0.0,0.0,0.0,0.0,0.0,0.0,0.0,0.0,0.0,0.0,0.0,0.0,0.0,0.0,0.0,0.0,0.0,0.0,0.0,0.0,0.0,0.0,0.0,0.0,0.0,0.0,0.0,0.0,0.0,0.0,0.0,0.0,0.0,0.0,0.0,0.0,0.0,0.0,0.0,0.0,0.0,0.0,0.0,0.0,0.0,0.0,0.0,0.0,0.0,0.0,0.0,0.0,0.0,0.0,0.0,0.0,0.0,0.0,0.0,0.0,0.0,0.0,0.0,0.0,0.0,0.0,0.0,0.0,0.0,0.0,0.0,0.0,0.0,0.0,0.0,0.0,0.0,0.0,0.0,0.0,0.0,0.0,0.0,0.0,0.0,0.0,0.0,0.0,0.0,0.0,0.0,0.0,0.0,-1.1147,-1.1415,-1.2192,0.0,-1.2584,-1.1708,0.0,0.0,0.0,0.0,0.0,0.0,0.0,0.0,0.0,0.0,0.0,0.0,0.0,0.0,0.0,0.0,0.0,0.0,0.0,0.0,0.0,0.0,0.0,0.0,0.0,0.0,0.0,0.0,0.0,0.0,0.0,0.0,0.0,0.0,0.0,0.0,0.0,0.0,0.0,0.0,0.0,0.0,0.0,0.0,0.0,0.0,0.0,0.0,0.0,0.0,0.0,0.0,0.0,0.0,0.0,0.0,0.0,0.0,0.0,0.0,0.0,0.0,0.0,0.0,0.0,0.0,0.0,0.0,0.0,0.0,0.0,0.0,0.0,0.0,0.0,0.0,0.0,0.0,0.0,0.0,0.0,0.0,0.0,0.0,0.0,0.0,0.0,0.0,0.0,0.0,0.0,0.0,0.0,0.0,0.0,0.0,0.0,0.0,0.0,0.0,0.0,0.0,0.0,0.0,0.0,0.0,0.0,0.0,0.0,-1.1033,0.0,-1.273,0.0,-1.2521,-1.1509,0.0,0.0,0.0,0.0,0.0,0.0,0.0,0.0,0.0,0.0,0.0,0.0,0.0,0.0,0.0,0.0,0.0,0.0,0.0,0.0,0.0,0.0,0.0,0.0,0.0,0.0,0.0,0.0,0.0,0.0,0.0,0.0,0.0,0.0,0.0,0.0,0.0,0.0,0.0,0.0,0.0,0.0,0.0,0.0,0.0,0.0,0.0,0.0,0.0,0.0,0.0,0.0,0.0,0.0,0.0,0.0,0.0,0.0,0.0,0.0,0.0,0.0,0.0,0.0,0.0,0.0,0.0,0.0,0.0,0.0,0.0,0.0,0.0,0.0,0.0,0.0,0.0,0.0,0.0,0.0,0.0,0.0,0.0,0.0,0.0,0.0,0.0,0.0,0.0,0.0,0.0,0.0,0.0,0.0,0.0,0.0,0.0,0.0,0.0,0.0,0.0,0.0,0.0,0.0,0.0,0.0,0.0,0.0,0.0,-1.2686,-1.3496,-1.3609,-1.288,-1.2782,-1.1576,0.0,0.0,0.0,0.0,0.0,0.0,0.0,0.0,0.0,0.0,0.0,0.0,0.0,0.0,0.0,0.0,0.0,0.0,0.0,0.0,0.0,0.0,0.0,0.0,0.0,0.0,0.0,0.0,0.0,0.0,0.0,0.0,0.0,0.0,0.0,0.0,0.0,0.0,0.0,0.0,0.0,0.0,0.0,0.0,0.0,0.0,0.0,0.0,0.0,0.0,0.0,0.0,0.0,0.0,0.0,0.0,0.0,0.0,0.0,0.0,0.0,0.0,0.0,0.0,0.0,0.0,0.0,0.0,0.0,0.0,0.0,0.0,0.0,0.0,0.0,0.0,0.0,0.0,0.0,0.0,0.0,0.0,0.0,0.0,0.0,0.0,0.0,0.0,0.0,0.0,0.0,0.0,0.0,0.0,0.0,0.0,0.0,0.0,0.0,0.0,0.0,0.0,0.0,0.0,0.0,0.0,0.0,0.0,0.0,-1.1866,-1.321,-1.4114,-1.4386,-1.2738,-1.1733,0.0,0.0,0.0,0.0,0.0,0.0,0.0,0.0,0.0,0.0,0.0,0.0,0.0,0.0,0.0,0.0,0.0,0.0,0.0,0.0,0.0,0.0,0.0,0.0,0.0,0.0,0.0,0.0,0.0,0.0,0.0,0.0,0.0,0.0,0.0,0.0,0.0,0.0,0.0,0.0,0.0,0.0,0.0,0.0,0.0,0.0,0.0,0.0,0.0,0.0,0.0,0.0,0.0,0.0,0.0,0.0,0.0,0.0,0.0,0.0,0.0,0.0,0.0,0.0,0.0,0.0,0.0,0.0,0.0,0.0,0.0,0.0,0.0,0.0,0.0,0.0,0.0,0.0,0.0,0.0,0.0,0.0,0.0,0.0,0.0,0.0,0.0,0.0,0.0,0.0,0.0,0.0,0.0,0.0,0.0,0.0,0.0,0.0,0.0,0.0,0.0,0.0,0.0,0.0,0.0,0.0,0.0,0.0,0.0,-1.431,-1.5574,-1.6228,-1.6138,-1.4299,-1.2957,-1.2206,0.0,0.0,0.0,0.0,0.0,0.0,0.0,0.0,0.0,0.0,0.0,0.0,0.0,0.0,0.0,0.0,0.0,0.0,0.0,0.0,0.0,0.0,0.0,0.0,0.0,0.0,0.0,0.0,0.0,0.0,0.0,0.0,0.0,0.0,0.0,0.0,0.0,0.0,0.0,0.0,0.0,0.0,0.0,0.0,0.0,0.0,0.0,0.0,0.0,0.0,0.0,0.0,0.0,0.0,0.0,0.0,0.0,0.0,0.0,0.0,0.0,0.0,0.0,0.0,0.0,0.0,0.0,0.0,0.0,0.0,0.0,0.0,0.0,0.0,0.0,0.0,0.0,0.0,0.0,0.0,0.0,0.0,0.0,0.0,0.0,0.0,0.0,0.0,0.0,0.0,0.0,0.0,0.0,0.0,0.0,0.0,0.0,0.0,0.0,0.0,0.0,0.0,0.0,0.0,0.0,0.0,0.0,0.0,-1.9131,-2.0269,-2.0004,-1.8164,-1.7083,-1.5031,0.0,0.0,0.0,0.0,0.0,0.0,0.0,0.0,0.0,0.0,0.0,0.0,0.0,0.0,0.0,0.0,0.0,0.0,0.0,0.0,0.0,0.0,0.0,0.0,0.0,0.0,0.0,0.0,0.0,0.0,0.0,0.0,0.0,0.0,0.0,0.0,0.0,0.0,0.0,0.0,0.0,0.0,0.0,0.0,0.0,0.0,0.0,0.0,0.0,0.0,0.0,0.0,0.0,0.0,0.0,0.0,0.0,0.0,0.0,0.0,0.0,0.0,0.0,0.0,0.0,0.0,0.0,0.0,0.0,0.0,0.0,0.0,0.0,0.0,0.0,0.0,0.0,0.0,0.0,0.0,0.0,0.0,0.0,0.0,0.0,0.0,0.0,0.0,0.0,0.0,0.0,0.0,0.0,0.0,0.0,0.0,0.0,0.0,0.0,0.0,0.0,0.0,0.0,0.0,0.0,0.0,0.0,0.0,0.0,-2.0923,-2.5346,-2.6038,-2.2509,-1.9165,-1.6699,0.0,0.0,0.0,0.0,0.0,0.0,0.0,0.0,0.0,0.0,0.0,0.0,0.0,0.0,0.0,0.0,0.0,0.0,0.0,0.0,0.0,0.0,0.0,0.0,0.0,0.0,0.0,0.0,0.0,0.0,0.0,0.0,0.0,0.0,0.0,0.0,0.0,0.0,0.0,0.0,0.0,0.0,0.0,0.0,0.0,0.0,0.0,0.0,0.0,0.0,0.0,0.0,0.0,0.0,0.0,0.0,0.0,0.0,0.0,0.0,0.0,0.0,0.0,0.0,0.0,0.0,0.0,0.0,0.0,0.0,0.0,0.0,0.0,0.0,0.0,0.0,0.0,0.0,0.0,0.0,0.0,0.0,0.0,0.0,0.0,0.0,0.0,0.0,0.0,0.0,0.0,0.0,0.0,0.0,0.0,0.0,0.0,0.0,0.0,0.0,0.0,0.0,0.0,0.0,0.0,0.0,0.0,0.0,-2.122,-2.3639,-2.9102,-3.0641,-2.7857,-2.299,-1.9142,0.0,0.0,0.0,0.0,0.0,0.0,0.0,0.0,0.0,0.0,0.0,0.0,0.0,0.0,0.0,0.0,0.0,0.0,0.0,0.0,0.0,0.0,0.0,0.0,0.0,0.0,0.0,0.0,0.0,0.0,0.0,0.0,0.0,0.0,0.0,0.0,0.0,0.0,0.0,0.0,0.0,0.0,0.0,0.0,0.0,0.0,0.0,0.0,0.0,0.0,0.0,0.0,0.0,0.0,0.0,0.0,0.0,0.0,0.0,0.0,0.0,0.0,0.0,0.0,0.0,0.0,0.0,0.0,0.0,0.0,0.0,0.0,0.0,0.0,0.0,0.0,0.0,0.0,0.0,0.0,0.0,0.0,0.0,0.0,0.0,0.0,0.0,0.0,0.0,0.0,0.0,0.0,0.0,0.0,0.0,0.0,0.0,0.0,0.0,0.0,0.0,0.0,0.0,0.0,0.0,0.0,0.0,0.0,-2.3389,-2.6697,-3.1724,-3.3917,-3.2891,-2.7318,-2.1932,0.0,0.0,0.0,0.0,0.0,0.0,0.0,0.0,0.0,0.0,0.0,0.0,0.0,0.0,0.0,0.0,0.0,0.0,0.0,0.0,0.0,0.0,0.0,0.0,0.0,0.0,0.0,0.0,0.0,0.0,0.0,0.0,0.0,0.0,0.0,0.0,0.0,0.0,0.0,0.0,0.0,0.0,0.0,0.0,0.0,0.0,0.0,0.0,0.0,0.0,0.0,0.0,0.0,0.0,0.0,0.0,0.0,0.0,0.0,0.0,0.0,0.0,0.0,0.0,0.0,0.0,0.0,0.0,0.0,0.0,0.0,0.0,0.0,0.0,0.0,0.0,0.0,0.0,0.0,0.0,0.0,0.0,0.0,0.0,0.0,0.0,0.0,0.0,0.0,0.0,0.0,0.0,0.0,0.0,0.0,0.0,0.0,0.0,0.0,0.0,0.0,0.0,0.0,0.0,0.0,0.0,0.0,0.0,-2.4875,-2.7621,-3.2602,-3.4814,-3.3936,-2.8159,-2.3312,0.0,0.0,0.0,0.0,0.0,0.0,0.0,0.0,0.0,0.0,0.0,0.0,0.0,0.0,0.0,0.0,0.0,0.0,0.0,0.0,0.0,0.0,0.0,0.0,0.0,0.0,0.0,0.0,0.0,0.0,0.0,0.0,0.0,0.0,0.0,0.0,0.0,0.0,0.0,0.0,0.0,0.0,0.0,0.0,0.0,0.0,0.0,0.0,-1.29,0.0,0.0,0.0,0.0,0.0,0.0,0.0,0.0,0.0,0.0,0.0,0.0,0.0,0.0,0.0,0.0,0.0,0.0,0.0,0.0,0.0,0.0,0.0,0.0,0.0,0.0,0.0,0.0,0.0,0.0,0.0,0.0,0.0,0.0,0.0,0.0,0.0,0.0,0.0,0.0,0.0,0.0,0.0,0.0,0.0,0.0,0.0,0.0,0.0,0.0,0.0,0.0,0.0,0.0,0.0,0.0,0.0,0.0,0.0,-2.6101,-2.9083,-3.3288,-3.5288,-3.4661,-2.9794,-2.5115,0.0,0.0,0.0,0.0,0.0,0.0,0.0,0.0,0.0,0.0,0.0,0.0,0.0,0.0,0.0,0.0,0.0,0.0,0.0,0.0,0.0,0.0,0.0,0.0,0.0,0.0,0.0,0.0,0.0,0.0,0.0,0.0,0.0,0.0,0.0,0.0,0.0,0.0,0.0,0.0,0.0,0.0,0.0,0.0,0.0,0.0,0.0,0.0,0.0,0.0,0.0,0.0,0.0,0.0,0.0,0.0,0.0,0.0,0.0,0.0,0.0,0.0,0.0,0.0,0.0,0.0,0.0,0.0,0.0,0.0,0.0,0.0,0.0,0.0,0.0,0.0,0.0,0.0,0.0,0.0,0.0,0.0,0.0,0.0,0.0,0.0,0.0,0.0,0.0,0.0,0.0,0.0,0.0,0.0,0.0,0.0,0.0,0.0,0.0,0.0,0.0,0.0,0.0,0.0,0.0,0.0,0.0,-2.2865,-2.6962,-3.0692,-3.3885,-3.55,-3.5442,-3.1352,-2.678,-2.1865,0.0,0.0,0.0,0.0,0.0,0.0,0.0,0.0,0.0,0.0,0.0,0.0,0.0,0.0,0.0,0.0,0.0,0.0,0.0,0.0,0.0,0.0,0.0,0.0,0.0,0.0,0.0,0.0,0.0,0.0,0.0,0.0,0.0,0.0,0.0,0.0,0.0,0.0,-1.0722,-1.1464,0.0,0.0,0.0,0.0,0.0,0.0,0.0,0.0,-1.378,0.0,0.0,0.0,0.0,0.0,0.0,0.0,0.0,0.0,0.0,0.0,0.0,0.0,0.0,0.0,0.0,0.0,0.0,0.0,0.0,0.0,0.0,0.0,0.0,0.0,0.0,0.0,0.0,0.0,0.0,0.0,0.0,0.0,0.0,0.0,0.0,0.0,0.0,0.0,0.0,0.0,0.0,0.0,0.0,0.0,0.0,0.0,0.0,0.0,0.0,0.0,0.0,0.0,0.0,0.0,0.0,-2.1874,-2.3509,-2.6972,-3.2352,-3.4462,-3.55,-3.5385,-3.1358,-2.7049,-2.274,0.0,0.0,0.0,0.0,0.0,0.0,0.0,0.0,0.0,0.0,0.0,0.0,0.0,0.0,0.0,0.0,0.0,0.0,0.0,0.0,0.0,0.0,0.0,0.0,0.0,0.0,0.0,0.0,0.0,0.0,0.0,0.0,0.0,0.0,0.0,0.0,0.0,0.0,0.0,-1.4041,-1.4714,0.0,0.0,0.0,0.0,0.0,0.0,0.0,0.0,-1.5567,0.0,0.0,0.0,0.0,0.0,0.0,0.0,0.0,0.0,0.0,0.0,0.0,0.0,0.0,0.0,0.0,0.0,0.0,0.0,0.0,0.0,0.0,0.0,0.0,0.0,0.0,0.0,0.0,0.0,0.0,0.0,0.0,0.0,0.0,0.0,0.0,0.0,0.0,0.0,0.0,0.0,0.0,0.0,0.0,0.0,0.0,0.0,0.0,0.0,0.0,0.0,0.0,0.0,0.0,0.0,-2.1427,-2.537,-2.9159,-3.2795,-3.4596,-3.55,-3.5385,-3.05,-2.6241,0.0,0.0,0.0,0.0,0.0,0.0,0.0,0.0,0.0,0.0,0.0,0.0,0.0,0.0,0.0,0.0,0.0,0.0,0.0,0.0,0.0,0.0,0.0,0.0,0.0,0.0,0.0,0.0,0.0,0.0,0.0,0.0,0.0,0.0,0.0,0.0,0.0,0.0,0.0,0.0,-1.5615,-1.6503,-1.8231,0.0,0.0,0.0,0.0,0.0,0.0,-1.76,-1.6904,0.0,0.0,0.0,0.0,0.0,0.0,0.0,0.0,0.0,0.0,0.0,0.0,0.0,0.0,0.0,0.0,0.0,0.0,0.0,0.0,0.0,0.0,0.0,0.0,0.0,0.0,0.0,0.0,0.0,0.0,0.0,0.0,0.0,0.0,0.0,0.0,0.0,0.0,0.0,0.0,0.0,0.0,0.0,0.0,0.0,0.0,0.0,0.0,0.0,0.0,0.0,0.0,0.0,0.0,0.0,-2.0423,-2.6615,-3.0871,-3.2852,-3.4596,-3.5423,-3.5135,-2.9788,-2.5505,0.0,0.0,0.0,0.0,0.0,0.0,0.0,0.0,0.0,0.0,0.0,0.0,0.0,0.0,0.0,0.0,0.0,0.0,0.0,0.0,0.0,0.0,0.0,0.0,0.0,0.0,0.0,0.0,0.0,0.0,0.0,0.0,0.0,0.0,0.0,0.0,0.0,0.0,0.0,0.0,0.0,-1.8696,-2.1139,-1.9212,0.0,0.0,0.0,0.0,-1.9923,-1.9869,0.0,0.0,0.0,0.0,0.0,0.0,0.0,0.0,0.0,0.0,0.0,0.0,0.0,0.0,0.0,0.0,0.0,0.0,0.0,0.0,0.0,0.0,0.0,0.0,0.0,0.0,0.0,0.0,0.0,0.0,0.0,0.0,0.0,0.0,0.0,0.0,0.0,0.0,0.0,0.0,0.0,0.0,0.0,0.0,0.0,0.0,0.0,0.0,0.0,0.0,0.0,0.0,0.0,0.0,0.0,0.0,-2.0346,-2.5486,-2.9737,-3.2776,-3.4615,-3.5135,-3.4321,-3.0063,-2.5832,0.0,0.0,0.0,0.0,0.0,0.0,0.0,0.0,0.0,0.0,0.0,0.0,0.0,0.0,0.0,0.0,0.0,0.0,0.0,0.0,0.0,0.0,0.0,0.0,0.0,0.0,0.0,0.0,0.0,0.0,0.0,0.0,0.0,0.0,0.0,0.0,0.0,0.0,0.0,0.0,0.0,-2.1932,-2.1562,-2.1177,-2.0962,0.0,0.0,0.0,-2.3494,-2.5317,0.0,0.0,0.0,0.0,0.0,0.0,0.0,0.0,0.0,0.0,0.0,0.0,0.0,0.0,0.0,0.0,0.0,0.0,0.0,0.0,0.0,0.0,0.0,0.0,0.0,0.0,0.0,0.0,0.0,0.0,0.0,0.0,0.0,0.0,0.0,0.0,0.0,0.0,0.0,0.0,0.0,0.0,0.0,0.0,0.0,0.0,0.0,0.0,0.0,0.0,0.0,0.0,0.0,0.0,0.0,-1.8827,-2.0481,-2.7178,-3.1454,-3.2872,-3.4615,-3.5103,-3.4205,-2.8703,-2.4413,0.0,0.0,0.0,0.0,0.0,0.0,0.0,0.0,0.0,0.0,0.0,0.0,0.0,0.0,0.0,0.0,0.0,0.0,0.0,0.0,0.0,0.0,0.0,0.0,0.0,0.0,0.0,0.0,0.0,0.0,0.0,0.0,0.0,0.0,0.0,0.0,0.0,0.0,0.0,0.0,0.0,0.0,-2.2631,-2.2849,0.0,0.0,0.0,-2.5356,-2.4851,0.0,0.0,0.0,0.0,0.0,0.0,0.0,0.0,0.0,0.0,0.0,0.0,0.0,0.0,0.0,0.0,0.0,0.0,0.0,0.0,0.0,0.0,0.0,0.0,0.0,0.0,0.0,0.0,0.0,0.0,0.0,0.0,0.0,0.0,0.0,0.0,0.0,0.0,0.0,0.0,0.0,0.0,0.0,0.0,0.0,0.0,0.0,0.0,0.0,0.0,0.0,0.0,0.0,0.0,0.0,0.0,0.0,-2.0442,-2.8621,-3.2891,-3.2949,-3.4596,-3.4988,-3.3814,-2.8324,0.0,0.0,0.0,0.0,0.0,0.0,0.0,0.0,0.0,0.0,0.0,0.0,0.0,0.0,0.0,0.0,0.0,0.0,0.0,0.0,0.0,0.0,0.0,0.0,0.0,0.0,0.0,-0.6733,0.0,0.0,0.0,0.0,0.0,0.0,0.0,0.0,0.0,0.0,0.0,0.0,0.0,0.0,-2.2527,-2.3796,-2.435,-2.4987,0.0,0.0,-2.6759,-2.6317,-2.7874,-2.7547,0.0,0.0,0.0,0.0,0.0,0.0,0.0,0.0,0.0,0.0,0.0,0.0,0.0,0.0,0.0,0.0,0.0,0.0,0.0,0.0,0.0,0.0,0.0,0.0,0.0,0.0,0.0,0.0,0.0,0.0,0.0,0.0,0.0,0.0,0.0,0.0,0.0,0.0,0.0,0.0,0.0,0.0,0.0,0.0,0.0,0.0,0.0,0.0,0.0,0.0,0.0,0.0,0.0,0.0,0.0,-2.0577,-2.8602,-3.291,-3.2949,-3.4603,-3.4692,-3.3006,-3.0237,-2.6106,0.0,0.0,0.0,0.0,0.0,0.0,0.0,0.0,0.0,0.0,0.0,0.0,0.0,0.0,0.0,0.0,0.0,0.0,0.0,0.0,0.0,0.0,0.0,0.0,0.0,0.0,0.0,0.0,0.0,0.0,0.0,0.0,0.0,0.0,0.0,0.0,0.0,0.0,0.0,0.0,0.0,-2.398,-2.4865,-2.5652,-2.674,0.0,0.0,-2.798,-2.871,-3.0899,-3.0548,-2.4612,0.0,0.0,0.0,0.0,0.0,0.0,0.0,0.0,0.0,0.0,0.0,0.0,0.0,0.0,0.0,0.0,0.0,0.0,0.0,0.0,0.0,0.0,0.0,0.0,0.0,0.0,0.0,0.0,0.0,0.0,0.0,0.0,0.0,0.0,0.0,0.0,0.0,0.0,0.0,0.0,0.0,0.0,0.0,0.0,0.0,0.0,0.0,0.0,0.0,0.0,0.0,0.0,0.0,-2.0558,-2.1135,-2.8852,-3.3141,-3.3718,-3.4865,-3.4673,-3.2929,-2.9948,-2.6063,0.0,0.0,0.0,0.0,0.0,0.0,0.0,0.0,0.0,0.0,0.0,0.0,0.0,0.0,0.0,0.0,0.0,0.0,0.0,0.0,0.0,0.0,0.0,0.0,0.0,0.0,0.0,0.0,-1.4236,-1.4621,-1.3558,0.0,0.0,0.0,0.0,0.0,0.0,0.0,0.0,0.0,0.0,-2.5128,-2.6237,-2.7257,0.0,0.0,-2.8927,-2.9039,-2.8874,-2.97,-2.8887,-2.45,-2.2715,0.0,0.0,0.0,0.0,0.0,0.0,0.0,0.0,0.0,0.0,0.0,0.0,0.0,0.0,0.0,0.0,0.0,0.0,0.0,0.0,0.0,0.0,0.0,0.0,0.0,0.0,0.0,0.0,0.0,0.0,0.0,0.0,0.0,0.0,0.0,0.0,0.0,0.0,0.0,0.0,0.0,0.0,0.0,0.0,0.0,0.0,0.0,0.0,0.0,0.0,0.0,0.0,-2.0688,-2.1487,-2.9,-3.3314,-3.418,-3.5038,-3.4654,-3.2929,-3.039,-2.7024,0.0,0.0,0.0,0.0,0.0,0.0,0.0,0.0,0.0,0.0,0.0,0.0,0.0,0.0,0.0,0.0,0.0,0.0,0.0,0.0,0.0,0.0,0.0,0.0,0.0,0.0,0.0,0.0,-1.5253,-1.5247,-1.4033,0.0,0.0,0.0,0.0,0.0,0.0,0.0,0.0,0.0,0.0,-2.5994,-2.7115,-2.7945,-2.8379,-2.8201,-2.8509,-2.8673,-2.837,-2.8379,-2.7554,-2.4948,0.0,0.0,0.0,0.0,0.0,0.0,0.0,0.0,0.0,0.0,0.0,0.0,0.0,0.0,0.0,0.0,0.0,0.0,0.0,0.0,0.0,0.0,0.0,0.0,0.0,0.0,0.0,0.0,0.0,0.0,0.0,0.0,0.0,0.0,0.0,0.0,0.0,0.0,0.0,0.0,0.0,0.0,0.0,0.0,0.0,0.0,0.0,0.0,0.0,0.0,0.0,0.0,0.0,0.0,-2.1501,-2.9021,-3.3333,-3.4199,-3.5045,-3.4673,-3.2968,-3.2045,-2.9577,-2.5269,0.0,0.0,0.0,0.0,0.0,0.0,0.0,0.0,0.0,0.0,0.0,0.0,0.0,0.0,0.0,0.0,0.0,0.0,0.0,0.0,0.0,0.0,0.0,0.0,0.0,0.0,-1.0709,-1.2514,-1.3956,0.0,0.0,0.0,0.0,0.0,0.0,0.0,0.0,0.0,0.0,-2.4777,-2.6549,-2.7293,-2.743,-2.7479,-2.7328,-2.6714,-2.6507,-2.7354,-2.7542,-2.7292,0.0,0.0,0.0,0.0,0.0,0.0,0.0,0.0,0.0,0.0,0.0,0.0,0.0,0.0,0.0,0.0,0.0,0.0,0.0,0.0,0.0,0.0,0.0,0.0,0.0,0.0,0.0,-1.2396,-1.1875,0.0,0.0,0.0,0.0,0.0,0.0,0.0,0.0,0.0,0.0,0.0,-2.2412,-2.3235,0.0,0.0,0.0,0.0,0.0,0.0,0.0,0.0,0.0,0.0,0.0,0.0,-2.1062,-2.319,-2.9449,-3.3439,-3.4818,-3.5278,-3.468,-3.2949,-3.2122,-2.9429,-2.4663,0.0,0.0,0.0,0.0,0.0,0.0,0.0,0.0,0.0,0.0,0.0,0.0,0.0,0.0,0.0,0.0,0.0,0.0,0.0,0.0,0.0,0.0,0.0,0.0,0.0,-1.3572,0.0,0.0,0.0,0.0,0.0,0.0,0.0,0.0,0.0,0.0,0.0,-2.2067,-2.4637,-2.5865,-2.6712,-2.7314,-2.7858,-2.8358,0.0,0.0,0.0,0.0,0.0,0.0,0.0,0.0,0.0,0.0,0.0,0.0,0.0,0.0,-2.5037,-2.1419,-2.136,-2.1884,-2.1884,0.0,0.0,0.0,0.0,0.0,0.0,0.0,0.0,0.0,0.0,0.0,0.0,0.0,0.0,0.0,0.0,-1.527,0.0,0.0,0.0,0.0,0.0,0.0,0.0,0.0,-2.4197,-2.6197,-2.678,-2.7544,-2.7505,0.0,-2.6125,-2.2836,0.0,0.0,0.0,0.0,0.0,0.0,0.0,0.0,-2.2066,-2.4442,-3.0163,-3.3887,-3.522,-3.5412,-3.4808,-3.3391,-3.2275,-2.9852,-2.5976,-2.3124,-2.0446,0.0,0.0,0.0,0.0,0.0,0.0,0.0,0.0,0.0,0.0,0.0,0.0,0.0,0.0,0.0,0.0,0.0,0.0,0.0,0.0,0.0,0.0,0.0,-1.4244,0.0,0.0,0.0,0.0,0.0,0.0,0.0,0.0,0.0,-2.3462,-2.3933,-2.4922,-2.7287,-2.7739,-2.7854,-2.7846,0.0,0.0,0.0,0.0,0.0,0.0,0.0,-2.6255,-2.601,-2.6282,-2.6884,-2.8147,-2.9492,-3.01,-2.9306,0.0,0.0,-2.571,-2.5483,-2.5963,-2.5981,-2.6313,-2.6431,-2.5917,-2.6442,-2.6832,0.0,0.0,0.0,0.0,0.0,0.0,0.0,0.0,-2.1639,-2.2023,0.0,-2.0212,0.0,0.0,0.0,0.0,0.0,0.0,0.0,0.0,-3.1218,-3.3276,-3.1775,-3.0942,-3.1,-3.1679,-3.0108,-2.7986,-2.5442,-2.3077,0.0,0.0,0.0,0.0,0.0,0.0,-2.3688,-2.5529,-3.1187,-3.4615,-3.5448,-3.55,-3.5064,-3.4129,-3.2564,-3.0871,-2.9107,-2.5933,-2.3759,-2.2778,-1.6567,0.0,0.0,0.0,0.0,0.0,0.0,0.0,0.0,0.0,0.0,0.0,0.0,0.0,0.0,0.0,0.0,0.0,0.0,0.0,0.0,-1.4514,0.0,0.0,0.0,0.0,0.0,0.0,0.0,0.0,0.0,0.0,-2.6788,-2.6701,-2.7413,-2.9996,0.0,0.0,0.0,0.0,-2.9265,-2.7438,-2.7102,-2.7185,-2.7222,-2.8586,-2.9889,-3.063,0.0,0.0,-3.3155,-3.2444,-3.1812,-3.0976,-3.2716,-3.3384,-3.0498,-2.9231,-2.8661,-2.8624,-2.8557,-2.8347,-2.8356,-2.9091,-2.9611,-2.7498,0.0,0.0,0.0,0.0,-2.2778,-2.3952,-2.6024,-2.5409,-2.4928,-2.4538,-2.3827,0.0,0.0,0.0,0.0,0.0,0.0,-2.6615,-2.9,-3.1352,-3.3103,-3.4385,-3.4154,-3.4173,-3.4385,-3.391,-3.266,-3.0775,-3.0627,-2.5967,-1.716,0.0,0.0,0.0,0.0,-2.5828,-2.8701,-3.2192,-3.4408,-3.5281,-3.5424,-3.4788,-3.3295,-3.2256,-3.1179,-3.0058,-2.7948,-2.5837,-2.3778,-2.0696,0.0,0.0,0.0,0.0,0.0,0.0,0.0,0.0,0.0,0.0,0.0,0.0,0.0,0.0,0.0,0.0,0.0,0.0,0.0,-1.5151,-1.6615,-1.7093,0.0,0.0,0.0,0.0,0.0,0.0,0.0,0.0,0.0,-3.0038,-2.8651,-2.8174,0.0,0.0,-2.8221,-2.7831,-2.9355,-3.0546,-3.0541,0.0,0.0,0.0,-3.1567,-3.1238,-3.1491,-3.3585,-3.4908,-3.4005,-3.512,-3.59,-3.5083,-3.5497,-3.5554,-3.4454,-3.3776,-3.322,-3.2717,-3.2485,-3.2462,-3.247,-3.2674,-3.2816,-3.3256,-2.9377,-2.6871,-2.6404,-2.7288,-2.7178,-2.8376,-3.0358,-2.9838,-2.95,-2.9269,-2.8269,-2.7077,-2.5755,-2.4755,0.0,0.0,0.0,-2.95,-3.2462,-3.2962,-3.4019,-3.5442,-3.55,-3.55,-3.55,-3.55,-3.4962,-3.393,-3.3757,-3.0006,-2.2966,0.0,0.0,-2.2105,-2.5466,-2.8377,-3.0713,-3.3243,-3.4802,-3.5304,-3.5451,-3.4673,-3.2968,-3.241,-3.1621,-3.0442,-2.8794,-2.7203,-2.5644,-2.297,-1.9865,0.0,0.0,0.0,0.0,0.0,0.0,0.0,0.0,0.0,0.0,0.0,-1.1485,0.0,0.0,0.0,0.0,-1.517,-1.8343,-1.8234,-1.9288,0.0,0.0,0.0,0.0,0.0,0.0,0.0,-2.4365,-2.8025,-3.091,-3.1731,-3.1308,-3.1341,-3.2488,-3.1413,-3.0413,-3.023,0.0,-3.282,-3.2862,-3.3208,-3.364,-3.4104,-3.3937,-3.3949,-3.4618,-3.5882,-3.6723,-3.6315,-3.7429,-3.8154,-3.7782,-3.7652,-3.7448,-3.6816,-3.6556,-3.6123,-3.5107,-3.5052,-3.5182,-3.5194,-3.52,-3.5194,-3.8154,-3.7692,-3.3058,-3.1019,-3.0981,-3.1698,-3.2872,-3.4276,-3.4282,-3.4757,-3.5308,-3.3038,-3.1558,-3.0673,-2.8352,0.0,0.0,-3.1641,-3.3237,-3.5481,-3.55,-3.55,-3.55,-3.55,-3.55,-3.55,-3.55,-3.55,-3.5404,-3.3904,-3.2256,-3.0615,-2.9788,-2.8475,-2.6913,-2.9129,-3.084,-3.1776,-3.4096,-3.5346,-3.55,-3.55,-3.4673,-3.2949,-3.2852,-3.2045,-3.0462,-2.8794,-2.7928,-2.7876,-2.4101,-2.2947,-2.4904,0.0,0.0,0.0,0.0,0.0,0.0,0.0,0.0,0.0,0.0,0.0,0.0,0.0,0.0,0.0,-1.9342,0.0,-2.3336,-2.2485,0.0,0.0,0.0,-2.3428,-2.6755,-2.8582,-2.9429,-2.9019,0.0,0.0,0.0,0.0,-3.6139,-3.6788,-3.5864,-3.5031,-3.4741,-3.5424,-3.5731,-3.484,-3.4754,-3.4829,-3.52,-3.6017,-3.7151,-3.8395,-3.9101,-3.8952,-3.8897,-3.8971,-3.9082,-3.899,-3.9082,-3.8841,-3.8116,-3.7931,-3.7634,-3.6413,-3.6408,-3.6662,-3.6588,-3.6569,-3.6538,-3.9519,-3.8819,-3.7666,-3.6411,-3.5154,-3.475,-3.4827,-3.5173,-3.5192,-3.5308,-3.5462,-3.4865,-3.4481,-3.425,-3.3654,-3.3731,-3.4288,-3.45,-3.4923,-3.5481,-3.55,-3.55,-3.55,-3.55,-3.55,-3.55,-3.55,-3.55,-3.5481,-3.5096,-3.4007,-3.2365,-3.2,-3.0356,-2.7547,-2.9363,-3.1072,-3.2457,-3.3153,-3.416,-3.5442,-3.55,-3.4654,-3.2949,-3.2314,-3.1487,-3.0442,-2.8775,-2.8179,-2.8723,-2.6621,-2.5365,-2.5231,-1.9735,0.0,0.0,0.0,0.0,0.0,0.0,0.0,0.0,0.0,-1.6138,-1.2952,0.0,-1.4989,0.0,-1.9362,-2.5673,-2.6601,-2.651,0.0,0.0,-2.753,-2.8376,-3.1102,-3.2929,-3.3288,-3.1481,-3.4526,-3.6799,-3.6818,-3.8276,-3.9714,-4.0693,-3.8671,-3.6891,-3.6502,-3.7694,-3.8471,-3.809,-3.8878,-3.9677,-3.9133,-3.878,-3.8637,-3.9027,-3.9101,-3.9101,-3.9101,-3.9101,-3.9101,-3.9101,-3.9101,-3.9008,-3.8822,-3.8822,-3.8711,-3.8321,-3.7485,-3.6718,-3.6718,-3.6736,-3.6736,-4.138,-4.0872,-4.0154,-3.8834,-3.7231,-3.6815,-3.6385,-3.6077,-3.6442,-3.6603,-3.6615,-3.6603,-3.6615,-3.6603,-3.6603,-3.6596,-3.6622,-3.6596,-3.6615,-3.6596,-3.6219,-3.6038,-3.6019,-3.5673,-3.55,-3.55,-3.55,-3.55,-3.55,-3.55,-3.5007,-3.4058,-3.3978,-3.2579,-2.999,-3.0171,-3.0746,-3.1573,-3.2368,-3.3616,-3.5285,-3.5361,-3.4192,-3.1769,-3.168,-3.0577,-2.8212,-2.7231,-2.6601,-2.6279,-2.5043,-2.4635,-2.5173,-2.0485,-1.6122,0.0,0.0,0.0,0.0,0.0,0.0,0.0,0.0,0.0,0.0,0.0,-1.9488,0.0,-2.5216,0.0,-2.8588,-2.9448,-3.0621,-3.1814,-3.1948,-3.2968,-3.5468,-3.6911,-3.743,-3.6699,-3.8757,-4.0422,-4.0756,-4.1598,-4.2368,-4.2936,-4.1875,-4.0585,-3.9512,-3.9963,-4.0373,-4.0281,-4.0996,-4.1349,-4.0731,-4.0085,-3.9528,-3.9175,-3.9101,-3.9101,-3.9101,-3.9101,-3.9101,-3.9101,-3.9101,-3.9101,-3.9101,-3.9101,-3.9101,-3.899,-3.8395,-3.7838,-3.7764,-3.7745,-3.7745,-4.3321,-4.3096,-4.1508,-3.9881,-3.8315,-3.8315,-3.7507,-3.6269,-3.7007,-3.7469,-3.768,-3.7892,-3.8007,-3.8007,-3.8007,-3.8007,-3.8007,-3.8007,-3.8007,-3.795,-3.7219,-3.6853,-3.6827,-3.6154,-3.575,-3.5654,-3.5654,-3.5596,-3.55,-3.55,-3.5385,-3.5173,-3.5159,-3.4208,-3.2395,-3.0934,-3.0221,-3.0227,-3.18,-3.336,-3.4859,-3.4679,-3.3104,-3.0204,-3.0663,-2.9288,-2.5673,-2.536,-2.4692,-2.337,-2.2581,-2.3,-2.4769,-2.0754,-1.7911,0.0,-1.6308,0.0,0.0,0.0,0.0,0.0,0.0,0.0,0.0,-2.3759,-2.3971,-2.5125,-3.3006,-3.5872,-3.0723,-3.2237,-3.4218,-3.5769,-3.5981,-3.6949,-3.9296,-4.0246,-4.1112,-4.2285,-4.2912,-4.3442,-4.3871,-4.4299,-4.4362,-4.4152,-4.4442,-4.4015,-4.2725,-4.2113,-4.199,-4.1935,-4.1906,-4.1832,-4.107,-4.0754,-4.0364,-3.9547,-3.9324,-3.9212,-3.912,-3.9101,-3.9101,-3.9101,-3.9101,-3.9101,-3.9101,-3.9101,-3.9101,-3.9101,-3.9008,-3.8971,-3.8971,-3.8952,-3.9101,-4.4411,-4.3995,-4.303,-4.1623,-4.0035,-4.0015,-3.7572,-3.3622,-3.3776,-3.4661,-3.6058,-3.7392,-3.8007,-3.8007,-3.8007,-3.8007,-3.8007,-3.8007,-3.8007,-3.7988,-3.7815,-3.7757,-3.7738,-3.7603,-3.7154,-3.65,-3.6481,-3.6135,-3.55,-3.55,-3.4788,-3.343,-3.3278,-3.2398,-3.075,0.0,0.0,0.0,-3.1988,-3.2999,-3.3249,-3.2001,-3.0675,-2.9317,-2.8162,0.0,-2.6385,-2.5668,-2.55,-2.5851,-2.5736,0.0,0.0,0.0,0.0,0.0,0.0,0.0,0.0,0.0,0.0,0.0,-2.5173,-2.4981,-2.5096,-2.6197,-2.8145,-3.1025,-3.5372,-3.7565,-3.6449,-3.6719,-3.743,-3.843,-3.8565,-3.9315,-4.1085,-4.1462,-4.2085,-4.3401,-4.3855,-4.4276,-4.4775,-4.5141,-4.5226,-4.4975,-4.4924,-4.4735,-4.4303,-4.392,-4.3764,-4.3602,-4.341,-4.3206,-4.2482,-4.211,-4.1553,-4.0513,-4.016,-3.99,-3.9342,-3.9138,-3.9101,-3.912,-3.9101,-3.9101,-3.9101,-3.9101,-3.9101,-3.9101,-3.9101,-3.9101,-3.9101,-3.9101,-3.9101,-4.5073,0.0,-4.3969,-4.2439,0.0,-4.0042,-3.7697,-3.4295,-3.5949,-3.7161,-3.8027,-3.8873,-3.9246,-3.9188,-3.8373,-3.8007,-3.795,-3.7142,-3.7219,-3.7969,-3.7565,-3.7815,-3.8623,-3.82,-3.7777,-3.7353,-3.7334,-3.7123,-3.6719,-3.6308,-3.5654,-3.4776,-3.4311,-3.3669,-3.2844,-3.2825,-3.2429,-3.1654,-3.2378,-3.3161,-3.3966,-3.3219,-3.1947,-3.0305,0.0,0.0,0.0,0.0,0.0,0.0,0.0,0.0,0.0,0.0,0.0,-2.8852,-2.6332,-2.5216,-2.6467,-2.7351,-2.8588,-3.0217,-3.0756,-3.0275,-2.8596,-3.041,-3.2526,-3.4615,-3.7507,-3.9065,-3.87,-3.8996,-3.9419,-3.9861,-4.0277,-4.0912,-4.172,-4.2547,-4.3297,-4.3978,-4.4586,-4.5052,-4.5314,-4.5505,-4.555,-4.54,-4.5052,-4.4788,-4.477,-4.4438,-4.4151,-4.402,-4.4005,-4.3689,-4.302,-4.3076,-4.2667,-4.1404,-4.0977,-4.081,-4.0401,-3.9993,-3.9765,-3.9695,-3.9417,-3.9101,-3.9101,-3.9101,-3.9101,-3.9101,-3.9101,-3.9101,-3.9101,-3.9101,-3.9101,-4.5342,-4.5314,-4.4537,-4.3031,-4.1078,-4.0071,-3.8405,-3.6565,0.0,0.0,0.0,-4.0381,-4.0496,-4.04,-3.9046,-3.843,-3.8334,-3.7,-3.7123,-3.8373,-3.77,-3.8142,-3.9457,-3.8777,-3.8373,-3.8219,-3.8219,-3.8142,-3.7969,-3.7276,-3.693,-3.6846,-3.6115,-3.5635,-3.55,-3.55,-3.4788,-3.3423,-3.2905,-3.3349,-3.4733,-3.4504,-3.3368,-3.1269,-3.1866,-3.0929,-2.8261,-2.8736,-2.8472,-2.7121,-2.7178,-2.7038,-2.6558,-2.7135,-2.8635,-3.1,-2.9852,-2.9679,-3.1192,-3.1962,-3.2968,-3.4353,-3.5212,-3.4827,-3.2718,-3.4365,-3.5962,-3.7058,-3.92,-4.0227,-3.9592,-4.0092,-4.0573,-4.0727,-4.1373,-4.1865,-4.2297,-4.3412,-4.4297,-4.4566,-4.5152,-4.5594,-4.5586,-4.5586,-4.5594,-4.5522,-4.5118,-4.4739,-4.4624,-4.4279,-4.4036,-4.4005,-4.4005,-4.3763,-4.3299,-4.3503,-4.3392,-4.2073,-4.1813,-4.1757,-4.1534,-4.1051,-4.0657,-4.062,-3.99,-3.9454,-3.9342,-3.9231,-3.9101,-3.9101,-3.9101,-3.9101,-3.9101,-3.9101,-3.9101,-4.5148,-4.5323,-4.4537,-4.4028,-4.3632,-4.2029,-4.0776,-3.9738,-3.8777,-3.8354,-3.845,-3.9881,-4.0496,-4.0496,-4.0246,-4.015,-4.0131,-3.99,-3.9919,0.0,-4.0027,-4.0092,-4.0323,-4.0208,-3.9785,-3.9142,-3.913,-3.8719,-3.8046,-3.7892,-3.7815,-3.7719,-3.6962,-3.6192,-3.5538,-3.55,-3.5385,-3.5096,-3.3615,-3.2974,-3.3205,-3.1815,-3.0931,-3.0547,-3.0013,-2.9454,-2.8973,-2.9107,-2.8992,-2.878,-2.9467,-3.025,-3.1077,-3.1,-3.2122,-3.4481,-3.3853,-3.3757,-3.4692,-3.4904,-3.5058,-3.5327,-3.6077,-3.6365,-3.6038,-3.5673,-3.6442,-3.8661,-3.9861,-4.0477,-4.0342,-4.0439,-4.0823,-4.1489,-4.1731,-4.2354,-4.3682,-4.4143,-4.4624,-4.5267,-4.5498,-4.5594,-4.5594,-4.5594,-4.5594,-4.5522,-4.5129,-4.4669,-4.4265,-4.4048,-4.4005,-4.4005,-4.4005,-4.3949,-4.3801,-4.3893,-4.3615,-4.2779,-4.263,-4.2445,-4.1887,-4.1605,-4.1441,-4.1441,-4.0769,-4.0285,-4.0141,-3.9584,-3.925,-3.9138,-3.9101,-3.9101,-3.9101,-3.9101,-3.9101,-4.5693,-4.5362,-4.4998,-4.4642,-4.417,-4.2467,-4.1542,-4.1104,-3.99,-3.9354,-3.9438,-4.0169,-4.0496,-4.0419,-3.9554,-3.915,-3.9104,-3.82,-3.8277,-3.9104,-3.913,-3.9631,-4.0439,-4.0496,-4.0304,-3.9958,-3.9938,-3.9765,-3.9361,-3.8938,-3.87,-3.8661,-3.7834,-3.6988,-3.6212,-3.6135,-3.5942,-3.5481,-3.4712,-3.4308,-3.4308,-3.3558,-3.3173,-3.3173,-3.275,-3.2583,-3.2564,-3.2583,-3.2583,-3.2564,-3.2942,-3.3404,-3.3904,-3.3827,-3.4269,-3.5404,-3.5135,-3.5084,-3.5462,-3.55,-3.5692,-3.6115,-3.6481,-3.7123,-3.8065,-3.7334,-3.7546,-3.915,-4.0035,-4.0496,-4.0516,-4.0931,-4.1354,-4.1758,-4.2566,-4.347,-4.4182,-4.4739,-4.5171,-4.5518,-4.5594,-4.5594,-4.5594,-4.5594,-4.5594,-4.5559,-4.5129,-4.4599,-4.4075,-4.4005,-4.4005,-4.4005,-4.4005,-4.4005,-4.4005,-4.4005,-4.3838,-4.3503,-4.3448,-4.3299,-4.289,-4.2612,-4.2277,-4.2203,-4.1571,-4.094,-4.0546,-4.0104,-3.9677,-3.9157,-3.9101,-3.9101,-3.9101,-3.9101,-3.9101,-4.6493,-4.5688,-4.5688,-4.5141,-4.417,-4.2733,-4.1981,-4.1712,-4.0854,-4.0496,-4.0496,-4.0496,-4.0496,-4.0362,-3.9123,-3.8565,-3.8373,-3.7219,-3.7353,-3.8488,-3.8565,-3.9258,-4.0381,-4.0496,-4.0496,-4.0496,-4.0496,-4.0496,-4.0419,-3.9861,-3.9477,-3.9246,-3.8623,-3.7853,-3.6988,-3.6788,-3.6385,-3.5788,-3.5596,-3.55,-3.55,-3.55,-3.5481,-3.55,-3.5462,-3.55,-3.55,-3.55,-3.55,-3.55,-3.55,-3.55,-3.55,-3.55,-3.55,-3.55,-3.55,-3.55,-3.55,-3.5673,-3.6038,-3.6661,-3.7065,-3.7853,-3.9053,-3.8873,-3.8834,-3.9515,-4.015,-4.0573,-4.0854,-4.1373,-4.195,-4.2354,-4.3489,-4.4316,-4.4624,-4.521,-4.5594,-4.5594,-4.5594,-4.5594,-4.5594,-4.5594,-4.5568,-4.5467,-4.5096,-4.4612,-4.4192,-4.4048,-4.4005,-4.4005,-4.4005,-4.4005,-4.4005,-4.4005,-4.3986,-4.4005,-4.3986,-4.3912,-4.3782,-4.3392,-4.3132,-4.2983,-4.2407,-4.1646,-4.0866,-4.0476,-4.0044,-3.9324,-3.9101,-3.9101,-3.9101,-3.9101,-3.9101,-4.7375,-4.6646,-4.6589,-4.5697,-4.4313,-4.3376,-4.2566,-4.1777,-4.0881,-4.0496,-4.0496,-4.0496,-4.0496,-4.0477,-4.0285,-4.0169,-4.0189,-4.0092,-4.0035,-4.0169,-4.0265,-4.0362,-4.0477,-4.0496,-4.0496,-4.0496,-4.0496,-4.0496,-4.0496,-4.0419,-4.0015,-3.9381,-3.92,-3.8746,-3.7892,-3.7135,-3.6673,-3.6577,-3.5885,-3.55,-3.55,-3.55,-3.55,-3.55,-3.55,-3.55,-3.55,-3.55,-3.55,-3.55,-3.55,-3.55,-3.55,-3.55,-3.55,-3.55,-3.55,-3.55,-3.5558,-3.6173,-3.6635,-3.6788,-3.8161,-3.9053,-3.9361,-3.9881,-4.0285,-4.0439,-4.0477,-4.095,-4.1566,-4.1808,-4.2508,-4.3701,-4.4182,-4.4586,-4.5287,-4.5537,-4.5594,-4.5594,-4.5594,-4.5594,-4.5594,-4.5594,-4.5504,-4.5312,-4.5052,-4.4714,-4.4388,-4.4166,-4.402,-4.4005,-4.4005,-4.4005,-4.4005,-4.4005,-4.4005,-4.4005,-4.4005,-4.4005,-4.3949,-4.3931,-4.3875,-4.3578,-4.3243,-4.2426,-4.1671,-4.094,-4.023,-3.9615,-3.9303,-3.9124,-3.9096,-3.9137,-3.9165,-4.8318,-4.7521,-4.7521,-4.6877,-4.5732,-4.4385,-4.3335,-4.2508,-4.1643,-4.0989,-4.0535,-4.0496,-4.0496,-4.0496,-4.0496,-4.0496,-4.0496,-4.0496,-4.0496,-4.0496,-4.0496,-4.0496,-4.0496,-4.0496,-4.0496,-4.0496,-4.0496,-4.0496,-4.0496,-4.0496,-4.0323,-4.0054,-3.9996,-3.9611,-3.8815,-3.8411,-3.7988,-3.7469,-3.6635,-3.6212,-3.6154,-3.5731,-3.55,-3.55,-3.55,-3.55,-3.55,-3.55,-3.55,-3.55,-3.55,-3.55,-3.55,-3.55,-3.55,-3.5519,-3.5942,-3.6212,-3.6212,-3.7007,-3.77,-3.818,-3.888,-3.9477,-3.9977,-4.0323,-4.0689,-4.1219,-4.1739,-4.2027,-4.195,-4.2681,-4.3585,-4.4239,-4.4748,-4.5229,-4.5537,-4.5594,-4.5594,-4.5594,-4.5594,-4.5594,-4.5594,-4.5594,-4.5485,-4.5272,-4.5085,-4.4872,-4.4493,-4.4289,-4.4181,-4.4051,-4.4005,-4.4005,-4.4005,-4.4005,-4.4005,-4.4005,-4.4005,-4.4005,-4.4005,-4.4005,-4.4005,-4.4005,-4.3686,-4.3271,-4.2698,-4.2168,-4.1533,-4.0635,-3.9744,-3.9519,-3.95,-3.95,-3.95,-4.926,-4.8471,-4.8221,-4.749,-4.6451,-4.5201,-4.4066,-4.3104,-4.2412,-4.1662,-4.09,-4.0854,-4.0854,-4.0823,-4.0631,-4.0496,-4.0496,-4.0496,-4.0496,-4.0496,-4.0496,-4.0496,-4.0496,-4.0496,-4.0496,-4.0496,-4.0496,-4.0496,-4.0496,-4.0496,-4.0496,-4.0496,-4.0496,-4.0227,-3.9669,-3.9457,-3.8988,-3.8354,-3.7488,-3.7065,-3.6988,-3.6488,-3.5962,-3.5558,-3.55,-3.55,-3.55,-3.55,-3.55,-3.55,-3.55,-3.55,-3.55,-3.55,-3.5635,-3.5981,-3.6661,-3.7065,-3.7065,-3.7853,-3.8623,-3.9227,-3.9477,-3.9861,-4.0362,-4.0496,-4.0893,-4.1739,-4.2989,-4.3431,-4.2797,-4.3585,-4.4335,-4.4643,-4.5267,-4.5594,-4.5594,-4.5594,-4.5594,-4.5594,-4.5594,-4.5594,-4.5594,-4.5586,-4.5513,-4.5362,-4.5243,-4.5096,-4.4701,-4.4506,-4.4318,-4.4155,-4.4064,-4.4005,-4.4005,-4.4109,-4.4079,-4.4017,-4.4033,-4.4109,-4.4051,-4.4005,-4.4079,-4.4136,-4.4106,-4.3889,-4.331,-4.2967,-4.2697,-4.1704,-4.0824,-4.0244,-4.0197,-4.0033,-3.9816,-5.0144,-4.9279,-4.8452,-4.7221,-4.5691,-4.5556,-4.4594,-4.3181,-4.3066,-4.2547,-4.1816,-4.1739,-4.1731,-4.1681,-4.0958,-4.0516,-4.0496,-4.0496,-4.0496,-4.0496,-4.0496,-4.0496,-4.0496,-4.0496,-4.0496,-4.0496,-4.0496,-4.0496,-4.0496,-4.0496,-4.0496,-4.0496,-4.0496,-4.0477,-4.0304,-3.9688,-3.9304,-3.9169,-3.8392,-3.793,-3.793,-3.7892,-3.7046,-3.5788,-3.5538,-3.5615,-3.5577,-3.5538,-3.5538,-3.5519,-3.5558,-3.5538,-3.5558,-3.5558,-3.6077,-3.7077,-3.7654,-3.795,-3.8027,-3.8757,-3.9284,-3.94,-3.9977,-4.0458,-4.0593,-4.0535,-4.0958,-4.1816,-4.4028,-4.4932,-4.4239,-4.4278,-4.4729,-4.5344,-4.5537,-4.5594,-4.5594,-4.5594,-4.5594,-4.5594,-4.5594,-4.5594,-4.5594,-4.5594,-4.5586,-4.5513,-4.5352,-4.518,-4.5063,-4.4714,-4.4457,-4.4318,-4.4162,-4.4005,-4.4036,-4.4181,-4.4206,-4.4177,-4.4221,-4.4318,-4.4121,-4.4036,-4.4181,-4.4289,-4.436,-4.4178,-4.3775,-4.3424,-4.3178,-4.2495,-4.1738,-4.1252,-4.1212,-4.0374,-4.0148,-5.051,-5.0115,-4.8702,-4.774,-4.7124,-4.6075,-4.494,-4.3912,-4.3855,-4.3393,-4.272,-4.2643,-4.2624,-4.2577,-4.172,-4.1027,-4.0535,-4.0496,-4.0496,-4.0496,-4.0496,-4.0496,-4.0496,-4.0496,-4.0496,-4.0496,-4.0496,-4.0496,-4.0496,-4.0496,-4.0496,-4.0496,-4.0496,-4.0496,-4.0439,-4.0208,-4.0073,-3.9977,-3.9265,-3.8834,-3.8777,-3.8296,-3.768,-3.7142,-3.7103,-3.7103,-3.7103,-3.7103,-3.7115,-3.7103,-3.6584,-3.6519,-3.7019,-3.7096,-3.7777,-3.9065,-3.9027,-3.8842,-3.8931,-3.9611,-4.0073,-4.0092,-4.0323,-4.0758,-4.1085,-4.0893,-4.1285,-4.3162,-4.4624,-4.5364,-4.5248,-4.5133,-4.5248,-4.5518,-4.5594,-4.5594,-4.5594,-4.5594,-4.5594,-4.5594,-4.5594,-4.5594,-4.5594,-4.5594,-4.5594,-4.5586,-4.5513,-4.54,-4.5201,-4.4872,-4.4612,-4.4416,-4.4196,-4.4005,-4.4005,-4.424,-4.4374,-4.4388,-4.4425,-4.4559,-4.4511,-4.4457,-4.4559,-4.4612,-4.465,-4.4688,-4.4357,-4.4187,-4.3862,-4.3514,-4.2752,-4.2335,-4.2393,-4.1543,-4.1179,-5.0366,-4.976,-4.8894,-4.8029,-4.724,-4.6394,-4.5355,-4.4412,-4.4586,-4.4239,-4.3605,-4.3489,-4.3489,-4.3297,-4.2308,-4.1508,-4.092,-4.065,-4.0496,-4.0496,-4.0496,-4.0496,-4.0496,-4.0496,-4.0496,-4.0496,-4.0496,-4.0496,-4.0496,-4.0496,-4.0496,-4.0496,-4.0496,-4.0496,-4.0496,-4.0496,-4.0496,-4.0381,-3.9958,-3.9688,-3.9611,-3.913,-3.8796,-3.8796,-3.8823,-3.8527,-3.8046,-3.8007,-3.8007,-3.7911,-3.743,-3.7392,-3.793,-3.8257,-3.9027,-4.0227,-3.9996,-3.9681,-3.9746,-4.0208,-4.0496,-4.0535,-4.0785,-4.12,-4.1712,-4.1508,-4.2393,-4.3951,-4.5075,-4.5594,-4.5594,-4.5575,-4.5594,-4.5594,-4.5594,-4.5594,-4.5594,-4.5594,-4.5594,-4.5594,-4.5594,-4.5594,-4.5594,-4.5594,-4.5594,-4.5594,-4.5594,-4.5504,-4.5342,-4.5096,-4.4872,-4.4676,-4.4452,-4.4351,-4.4379,-4.4585,-4.4519,-4.4506,-4.472,-4.4861,-4.4861,-4.4849,-4.4879,-4.4927,-4.4996,-4.5085,-4.5051,-4.4891,-4.468,-4.4403,-4.3886,-4.3347,-4.3131,-4.2763,-4.2354,-4.9721,-4.849,-4.9009,-4.7913,-4.6144,-4.6451,-4.5836,-4.4682,-4.5201,-4.5017,-4.4335,-4.4316,-4.4316,-4.4008,-4.2777,-4.1923,-4.1797,-4.115,-4.0669,-4.0516,-4.0496,-4.0496,-4.0496,-4.0496,-4.0496,-4.0496,-4.0496,-4.0496,-4.0496,-4.0496,-4.0496,-4.0496,-4.0496,-4.0496,-4.0496,-4.0496,-4.0496,-4.0477,-4.04,-4.0419,-4.0477,-4.0323,-4.0265,-4.0323,-4.0323,-3.965,-3.82,-3.8161,-3.8238,-3.818,-3.8065,-3.8007,-3.8123,-3.8796,-3.9669,-4.0323,-4.0458,-4.0458,-4.0439,-4.0477,-4.0496,-4.0593,-4.1258,-4.1731,-4.2008,-4.2566,-4.3355,-4.4335,-4.5114,-4.5594,-4.5594,-4.5594,-4.5594,-4.5594,-4.5594,-4.5594,-4.5594,-4.5594,-4.5594,-4.5594,-4.5594,-4.5594,-4.5594,-4.5594,-4.5594,-4.5594,-4.5594,-4.5586,-4.5513,-4.5312,-4.5182,-4.5107,-4.4849,-4.463,-4.4788,-4.4954,-4.4763,-4.4644,-4.4966,-4.5191,-4.5074,-4.503,-4.5107,-4.5169,-4.5201,-4.5283,-4.5371,-4.526,-4.5327,-4.5052,-4.4624,-4.4278,-4.4066,-4.3758,-4.3316,-5.0019,-4.8971,-4.8625,-4.7759,-4.649,-4.6163,-4.5652,-4.5229,-4.5518,-4.5421,-4.5229,-4.519,-4.519,-4.496,-4.4008,-4.3508,-4.3451,-4.2643,-4.167,-4.0708,-4.0535,-4.0535,-4.0554,-4.0516,-4.0496,-4.0496,-4.0496,-4.0496,-4.0496,-4.0496,-4.0496,-4.0496,-4.0496,-4.0496,-4.0496,-4.0496,-4.0496,-4.0496,-4.0496,-4.0496,-4.0496,-4.0496,-4.0496,-4.0496,-4.0496,-4.0208,-3.9765,-3.9727,-3.9727,-3.9669,-3.9181,-3.8623,-3.8373,-3.9361,-4.0208,-4.0458,-4.0496,-4.0496,-4.0496,-4.0496,-4.0496,-4.065,-4.1316,-4.2066,-4.2643,-4.3278,-4.4113,-4.4998,-4.546,-4.5594,-4.5594,-4.5594,-4.5594,-4.5594,-4.5594,-4.5594,-4.5594,-4.5594,-4.5594,-4.5594,-4.5594,-4.5594,-4.5594,-4.5594,-4.5594,-4.5594,-4.5594,-4.5594,-4.5568,-4.54,-4.5211,-4.518,-4.4973,-4.4872,-4.4996,-4.5107,-4.5074,-4.4988,-4.5211,-4.539,-4.5292,-4.5243,-4.5332,-4.5371,-4.54,-4.5466,-4.5549,-4.5594,-4.5594,-4.5594,-4.521,-4.5075,-4.5066,-4.4701,-4.4162,-5.0019,-4.8894,-4.8336,-4.7432,-4.6413,-4.5806,-4.5594,-4.5594,-4.5594,-4.5594,-4.5594,-4.5594,-4.5594,-4.5421,-4.4682,-4.4335,-4.4201,-4.347,-4.2527,-4.1508,-4.1066,-4.1143,-4.1335,-4.1104,-4.0766,-4.0535,-4.0496,-4.0496,-4.0496,-4.0496,-4.0496,-4.0496,-4.0496,-4.0496,-4.0496,-4.0496,-4.0496,-4.0496,-4.0496,-4.0496,-4.0496,-4.0496,-4.0496,-4.0496,-4.0496,-4.0496,-4.0496,-4.0496,-4.0496,-4.0419,-3.9996,-3.9477,-3.9092,-3.9919,-4.0496,-4.0496,-4.0496,-4.0496,-4.0496,-4.0496,-4.0496,-4.0669,-4.1585,-4.247,-4.3162,-4.3874,-4.4902,-4.5441,-4.5594,-4.5594,-4.5594,-4.5594,-4.5594,-4.5594,-4.5594,-4.5594,-4.5594,-4.5594,-4.5594,-4.5594,-4.5594,-4.5594,-4.5594,-4.5594,-4.5594,-4.5594,-4.5594,-4.5594,-4.5568,-4.5476,-4.539,-4.5322,-4.5282,-4.5201,-4.5159,-4.5232,-4.5361,-4.539,-4.5467,-4.5513,-4.5485,-4.5457,-4.5513,-4.5504,-4.5531,-4.5522,-4.5594,-4.5594,-4.5594,-4.5594,-4.5594,-4.5498,-4.5325,-4.521,-4.4806,-4.9683,-4.8173,-4.8096,-4.7144,-4.5768,-4.5614,-4.5594,-4.5594,-4.5594,-4.5594,-4.5594,-4.5594,-4.5594,-4.5421,-4.4816,-4.4528,-4.4278,-4.3816,-4.3451,-4.3047,-4.2508,-4.2297,-4.247,-4.1931,-4.1239,-4.0593,-4.0496,-4.0496,-4.0496,-4.0496,-4.0496,-4.0496,-4.0496,-4.0496,-4.0496,-4.0496,-4.0496,-4.0496,-4.0496,-4.0496,-4.0496,-4.0496,-4.0496,-4.0496,-4.0496,-4.0496,-4.0496,-4.0496,-4.0496,-4.0496,-4.0419,-4.0342,-4.0419,-4.0496,-4.0496,-4.0496,-4.0496,-4.0496,-4.0496,-4.0496,-4.0573,-4.0816,-4.2066,-4.3143,-4.3412,-4.4566,-4.5421,-4.5575,-4.5594,-4.5594,-4.5594,-4.5594,-4.5594,-4.5594,-4.5594,-4.5594,-4.5594,-4.5594,-4.5594,-4.5594,-4.5594,-4.5594,-4.5594,-4.5594,-4.5594,-4.5594,-4.5594,-4.5594,-4.5586,-4.5559,-4.5586,-4.5531,-4.5476,-4.5438,-4.5352,-4.5371,-4.5485,-4.5495,-4.5559,-4.5577,-4.5594,-4.5594,-4.5594,-4.5594,-4.5594,-4.5594,-4.5594,-4.5594,-4.5594,-4.5594,-4.5594,-4.5594,-4.5518,-4.5383,-4.5325,-4.9683,-4.8163,-4.8096,-4.7144,-4.571,-4.5594,-4.5594,-4.5594,-4.5594,-4.5594,-4.5594,-4.5594,-4.5594,-4.5556,-4.5364,-4.5248,-4.5114,-4.4979,-4.494,-4.4797,-4.4047,-4.2989,-4.2308,-4.195,-4.1373,-4.065,-4.0593,-4.0496,-4.0496,-4.0496,-4.0496,-4.0496,-4.0496,-4.0496,-4.0496,-4.0496,-4.0496,-4.0496,-4.0496,-4.0496,-4.0496,-4.0496,-4.0496,-4.0496,-4.0496,-4.0496,-4.0496,-4.0496,-4.0496,-4.0496,-4.0496,-4.0496,-4.0496,-4.0496,-4.0496,-4.0496,-4.0496,-4.0496,-4.0496,-4.0496,-4.0766,-4.147,-4.2412,-4.3335,-4.397,-4.4951,-4.5518,-4.5594,-4.5594,-4.5594,-4.5594,-4.5594,-4.5594,-4.5594,-4.5594,-4.5594,-4.5594,-4.5594,-4.5594,-4.5594,-4.5594,-4.5594,-4.5594,-4.5594,-4.5594,-4.5594,-4.5594,-4.5594,-4.5594,-4.5594,-4.5594,-4.5594,-4.5568,-4.5577,-4.5577,-4.5577,-4.5577,-4.5577,-4.5586,-4.5586,-4.5594,-4.5594,-4.5594,-4.5594,-4.5594,-4.5594,-4.5594,-4.5594,-4.5594,-4.5594,-4.5594,-4.5594,-4.5594,-4.5518,-4.5498,-4.9336,-4.8086,-4.774,-4.6836,-4.5671,-4.5594,-4.5594,-4.5594,-4.5594,-4.5594,-4.5594,-4.5594,-4.5594,-4.5594,-4.5594,-4.5594,-4.5594,-4.5594,-4.5575,-4.5498,-4.5037,-4.3932,-4.2816,-4.2604,-4.222,-4.1143,-4.1027,-4.0843,-4.0573,-4.0496,-4.0496,-4.0496,-4.0496,-4.0496,-4.0496,-4.0496,-4.0496,-4.0496,-4.0496,-4.0496,-4.0496,-4.0496,-4.0496,-4.0496,-4.0496,-4.0496,-4.0496,-4.0496,-4.0496,-4.0496,-4.0496,-4.0496,-4.0496,-4.0496,-4.0496,-4.0496,-4.0496,-4.0496,-4.0496,-4.0516,-4.0893,-4.1739,-4.2604,-4.3431,-4.422,-4.5075,-4.5594,-4.5594,-4.5594,-4.5594,-4.5594,-4.5594,-4.5594,-4.5594,-4.5594,-4.5594,-4.5594,-4.5594,-4.5594,-4.5594,-4.5594,-4.5594,-4.5594,-4.5594,-4.5594,-4.5594,-4.5594,-4.5594,-4.5594,-4.5594,-4.5594,-4.5594,-4.5594,-4.5594,-4.5594,-4.5594,-4.5594,-4.5594,-4.5594,-4.5594,-4.5594,-4.5594,-4.5594,-4.5594,-4.5594,-4.5594,-4.5594,-4.5594,-4.5594,-4.5594,-4.5594,-4.5594,-4.5594,-4.5594,-4.5594,-4.8875,-4.8029,-4.724,-4.6394,-4.5671,-4.5594,-4.5594,-4.5594,-4.5594,-4.5594,-4.5594,-4.5594,-4.5594,-4.5594,-4.5594,-4.5594,-4.5594,-4.5594,-4.5594,-4.5575,-4.5402,-4.4701,-4.3701,-4.3797,-4.3201,-4.2115,-4.1923,-4.145,-4.0969,-4.0727,-4.0593,-4.0535,-4.0496,-4.0496,-4.0496,-4.0496,-4.0496,-4.0496,-4.0496,-4.0496,-4.0496,-4.0496,-4.0496,-4.0496,-4.0496,-4.0496,-4.0496,-4.0496,-4.0496,-4.0496,-4.0496,-4.0496,-4.0496,-4.0496,-4.0496,-4.0496,-4.0496,-4.0496,-4.0554,-4.0631,-4.1066,-4.1989,-4.2835,-4.3585,-4.4451,-4.5248,-4.5594,-4.5594,-4.5594,-4.5594,-4.5594,-4.5594,-4.5594,-4.5594,-4.5594,-4.5594,-4.5594,-4.5594,-4.5594,-4.5594,-4.5594,-4.5594,-4.5594,-4.5594,-4.5594,-4.5594,-4.5594,-4.5594,-4.5594,-4.5594,-4.5594,-4.5594,-4.5594,-4.5594,-4.5594,-4.5594,-4.5594,-4.5594,-4.5594,-4.5594,-4.5594,-4.5594,-4.5594,-4.5594,-4.5594,-4.5594,-4.5594,-4.5594,-4.5594,-4.5594,-4.5594,-4.5594,-4.5594,-4.5594,-4.5594,-4.8875,-4.8048,-4.7231,-4.6394,-4.5671,-4.5594,-4.5594,-4.5594,-4.5594,-4.5594,-4.5594,-4.5594,-4.5594,-4.5594,-4.5594,-4.5594,-4.5594,-4.5594,-4.5594,-4.5594,-4.5594,-4.5479,-4.4883,-4.4643,-4.3758,-4.2989,-4.2816,-4.2354,-4.172,-4.1412,-4.1162,-4.0612,-4.0535,-4.0496,-4.0496,-4.0496,-4.0496,-4.0496,-4.0496,-4.0496,-4.0496,-4.0496,-4.0496,-4.0496,-4.0496,-4.0496,-4.0496,-4.0496,-4.0496,-4.0496,-4.0496,-4.0496,-4.0496,-4.0554,-4.0631,-4.0689,-4.0631,-4.0573,-4.065,-4.12,-4.1893,-4.2758,-4.3508,-4.4393,-4.521,-4.5441,-4.5594,-4.5594,-4.5594,-4.5594,-4.5594,-4.5594,-4.5594,-4.5594,-4.5594,-4.5594,-4.5594,-4.5594,-4.5594,-4.5594,-4.5594,-4.5594,-4.5594,-4.5691,-4.5671,-4.5614,-4.5671,-4.5633,-4.571,-4.5806,-4.5787,-4.5874,-4.5614,-4.5614,-4.5594,-4.5594,-4.5594,-4.5594,-4.5594,-4.5594,-4.5594,-4.5594,-4.5594,-4.5594,-4.5594,-4.5594,-4.5594,-4.5594,-4.5594,-4.5594,-4.5594,-4.5594,-4.5594,-4.5594,-4.5594,-4.8298,-4.7471,-4.6644,-4.6028,-4.5652,-4.5594,-4.5594,-4.5594,-4.5594,-4.5594,-4.5594,-4.5594,-4.5594,-4.5594,-4.5594,-4.5594,-4.5594,-4.5594,-4.5594,-4.5594,-4.5594,-4.5594,-4.5556,-4.5124,-4.4489,-4.3778,-4.3662,-4.3181,-4.2547,-4.1989,-4.1546,-4.1085,-4.0727,-4.0516,-4.0496,-4.0496,-4.0496,-4.0496,-4.0496,-4.0496,-4.0496,-4.0496,-4.0496,-4.0496,-4.0496,-4.0496,-4.0496,-4.0496,-4.0496,-4.0496,-4.0516,-4.0496,-4.0612,-4.0893,-4.1258,-4.1651,-4.1708,-4.1728,-4.1893,-4.2143,-4.2758,-4.3566,-4.4085,-4.4729,-4.5344,-4.5594,-4.5594,-4.5594,-4.5594,-4.5594,-4.5594,-4.5594,-4.5594,-4.5594,-4.5594,-4.5594,-4.5594,-4.5594,-4.5594,-4.5594,-4.5594,-4.5594,-4.5633,-4.5768,-4.6086,-4.6182,-4.6797,-4.6817,-4.6778,-4.6797,-4.6413,-4.6259,-4.5825,-4.5614,-4.5594,-4.5594,-4.5594,-4.5594,-4.5594,-4.5594,-4.5594,-4.5594,-4.5594,-4.5594,-4.5594,-4.5594,-4.5594,-4.5594,-4.5594,-4.5594,-4.5594,-4.5594,-4.5594,-4.5594,-4.5594,-4.7528,-4.6827,-4.5951,-4.5594,-4.5594,-4.5594,-4.5594,-4.5594,-4.5594,-4.5594,-4.5594,-4.5594,-4.5594,-4.5594,-4.5594,-4.5594,-4.5594,-4.5594,-4.5594,-4.5594,-4.5594,-4.5594,-4.5575,-4.5441,-4.5171,-4.4556,-4.4509,-4.4008,-4.3066,-4.2393,-4.1854,-4.1508,-4.09,-4.0535,-4.0496,-4.0496,-4.0496,-4.0496,-4.0496,-4.0496,-4.0496,-4.0496,-4.0496,-4.0496,-4.0496,-4.0496,-4.0496,-4.0496,-4.0496,-4.0496,-4.0612,-4.0612,-4.0727,-4.1316,-4.2423,-4.3239,-4.3143,-4.2797,-4.2835,-4.3124,-4.3566,-4.4297,-4.4489,-4.4816,-4.5421,-4.5594,-4.5594,-4.5594,-4.5594,-4.5594,-4.5594,-4.5594,-4.5594,-4.5594,-4.5594,-4.5594,-4.5594,-4.5594,-4.5594,-4.5594,-4.5594,-4.5594,-4.5768,-4.5932,-4.6374,-4.6827,-4.7432,-4.7778,-4.7644,-4.7336,-4.6682,-4.6297,-4.5825,-4.5614,-4.5594,-4.5594,-4.5594,-4.5594,-4.5594,-4.5594,-4.5594,-4.5594,-4.5594,-4.5594,-4.5594,-4.5594,-4.5594,-4.5594,-4.5594,-4.5594,-4.5594,-4.5594,-4.5594,-4.5594,-4.5594,-4.7019,-4.6827,-4.5951,-4.5594,-4.5594,-4.5594,-4.5594,-4.5594,-4.5594,-4.5594,-4.5594,-4.5594,-4.5594,-4.5594,-4.5594,-4.5594,-4.5594,-4.5594,-4.5594,-4.5594,-4.5594,-4.5594,-4.5594,-4.5594,-4.546,-4.5441,-4.5267,-4.4556,-4.3547,-4.2912,-4.2316,-4.1131,-4.0689,-4.0593,-4.0689,-4.0516,-4.0554,-4.0631,-4.0554,-4.0496,-4.0496,-4.0612,-4.0631,-4.0669,-4.0746,-4.0766,-4.065,-4.0573,-4.0496,-4.0573,-4.12,-4.1123,-4.1027,-4.1508,-4.2951,-4.4239,-4.3951,-4.3431,-4.3451,-4.3797,-4.4085,-4.4432,-4.4902,-4.5287,-4.5556,-4.5594,-4.5594,-4.5594,-4.5594,-4.5594,-4.5594,-4.5594,-4.5594,-4.5594,-4.5594,-4.5594,-4.5594,-4.5594,-4.5594,-4.5594,-4.5594,-4.5614,-4.5787,-4.597,-4.6297,-4.6586,-4.6951,-4.7163,-4.7048,-4.6663,-4.6144,-4.5874,-4.5691,-4.5614,-4.5594,-4.5594,-4.5594,-4.5594,-4.5594,-4.5594,-4.5594,-4.5594,-4.5594,-4.5594,-4.5594,-4.5594,-4.5594,-4.5594,-4.5594,-4.5594,-4.5594,-4.5594,-4.5594,-4.5594,-4.5594,-4.6624,-4.6201,-4.5768,-4.5594,-4.5594,-4.5594,-4.5594,-4.5594,-4.5594,-4.5594,-4.5594,-4.5594,-4.5594,-4.5594,-4.5594,-4.5594,-4.5594,-4.5594,-4.5594,-4.5594,-4.5594,-4.5594,-4.5594,-4.5594,-4.5594,-4.5575,-4.5537,-4.5248,-4.4393,-4.3932,-4.3162,-4.2547,-4.17,-4.1373,-4.147,-4.0958,-4.092,-4.0969,-4.0777,-4.0516,-4.0593,-4.0873,-4.1143,-4.1239,-4.1612,-4.1843,-4.1843,-4.1843,-4.1854,-4.195,-4.2239,-4.2181,-4.2181,-4.2701,-4.3797,-4.5094,-4.4806,-4.4363,-4.4402,-4.4786,-4.4951,-4.5009,-4.5402,-4.5575,-4.5594,-4.5594,-4.5594,-4.5594,-4.5594,-4.5594,-4.5594,-4.5594,-4.5594,-4.5594,-4.5594,-4.5594,-4.5594,-4.5594,-4.5594,-4.5594,-4.5594,-4.5633,-4.571,-4.5941,-4.6201,-4.6413,-4.6567,-4.6567,-4.6509,-4.624,-4.5893,-4.5902,-4.5806,-4.5614,-4.5594,-4.5594,-4.5594,-4.5594,-4.5594,-4.5594,-4.5594,-4.5594,-4.5594,-4.5594,-4.5594,-4.5594,-4.5594,-4.5594,-4.5594,-4.5594,-4.5594,-4.5594,-4.5594,-4.5594,-4.5594,-4.624,-4.5594,-4.5594,-4.5594,-4.5594,-4.5594,-4.5594,-4.5594,-4.5594,-4.5594,-4.5594,-4.5594,-4.5594,-4.5594,-4.5594,-4.5594,-4.5594,-4.5594,-4.5594,-4.5594,-4.5594,-4.5594,-4.5594,-4.5594,-4.5594,-4.5594,-4.5594,-4.5518,-4.4932,-4.4489,-4.422,-4.347,-4.2489,-4.2354,-4.2566,-4.1797,-4.1662,-4.1546,-4.1219,-4.0785,-4.0931,-4.1412,-4.1923,-4.2058,-4.2739,-4.3008,-4.2874,-4.2854,-4.2874,-4.297,-4.3162,-4.3239,-4.3278,-4.4028,-4.4874,-4.546,-4.5594,-4.5594,-4.5556,-4.5498,-4.546,-4.546,-4.5556,-4.5594,-4.5594,-4.5594,-4.5594,-4.5594,-4.5594,-4.5594,-4.5594,-4.5594,-4.5594,-4.5594,-4.5594,-4.5594,-4.5594,-4.5594,-4.5594,-4.5594,-4.5594,-4.5633,-4.5691,-4.5748,-4.597,-4.6047,-4.6201,-4.6355,-4.6297,-4.6278,-4.6086,-4.6105,-4.5998,-4.5691,-4.5594,-4.5594,-4.5594,-4.5594,-4.5594,-4.5594,-4.5594,-4.5594,-4.5594,-4.5594,-4.5594,-4.5594,-4.5594,-4.5594,-4.5594,-4.5594,-4.5594,-4.5594,-4.5594,-4.5594,-4.5594,-4.5691,-4.5594,-4.5594,-4.5594,-4.5594,-4.5594,-4.5594,-4.5594,-4.5594,-4.5594,-4.5594,-4.5594,-4.5594,-4.5594,-4.5594,-4.5594,-4.5594,-4.5594,-4.5594,-4.5594,-4.5594,-4.5594,-4.5594,-4.5594,-4.5594,-4.5594,-4.5594,-4.5114,-4.4836,-4.4528,-4.4047,-4.3528,-4.3335,-4.3085,-4.3335,-4.272,-4.2854,-4.2758,-4.2085,-4.1662,-4.1692,-4.1846,-4.2335,-4.2797,-4.3162,-4.3316,-4.3412,-4.3431,-4.3355,-4.3355,-4.3874,-4.3778,-4.3489,-4.4624,-4.5306,-4.5575,-4.5594,-4.5594,-4.5594,-4.5594,-4.5594,-4.5594,-4.5594,-4.5594,-4.5594,-4.5594,-4.5594,-4.5594,-4.5594,-4.5594,-4.5594,-4.5594,-4.5594,-4.5594,-4.5594,-4.5594,-4.5594,-4.5594,-4.5594,-4.5594,-4.5594,-4.5594,-4.5633,-4.5671,-4.571,-4.5759,-4.5855,-4.6028,-4.6297,-4.6451,-4.6528,-4.6624,-4.6826,-4.6576,-4.6441,-4.6326,-4.6075,-4.5941,-4.5652,-4.5633,-4.5594,-4.5594,-4.5594,-4.5594,-4.5594,-4.5594,-4.5594,-4.5594,-4.5594,-4.5594,-4.5594,-4.5594,-4.5594,-4.5594,-4.5594,-4.5594,-4.5594,-4.5594,-4.5594,-4.5594,-4.5594,-4.5594,-4.5594,-4.5594,-4.5594,-4.5594,-4.5594,-4.5594,-4.5594,-4.5594,-4.5594,-4.5594,-4.5594,-4.5594,-4.5594,-4.5594,-4.5594,-4.5594,-4.5594,-4.5594,-4.5594,-4.5575,-4.5498,-4.5066,-4.497,-4.4778,-4.447,-4.4066,-4.4105,-4.4162,-4.3528,-4.3489,-4.3393,-4.3008,-4.2585,-4.2662,-4.297,-4.3374,-4.3758,-4.422,-4.4393,-4.4432,-4.4509,-4.4517,-4.4556,-4.4921,-4.4902,-4.4701,-4.519,-4.5594,-4.5594,-4.5594,-4.5594,-4.5594,-4.5594,-4.5594,-4.5594,-4.5594,-4.5594,-4.5594,-4.5594,-4.5594,-4.5594,-4.5594,-4.5594,-4.5594,-4.5594,-4.5594,-4.5594,-4.5594,-4.5594,-4.5594,-4.5594,-4.5594,-4.5594,-4.5614,-4.5671,-4.5729,-4.5787,-4.5825,-4.5836,-4.597,-4.6163,-4.6663,-4.7182,-4.7259,-4.7298,-4.7528,-4.7691,-4.7625,-4.7548,-4.7163,-4.6817,-4.5806,-4.5768,-4.5633,-4.5594,-4.5594,-4.5594,-4.5594,-4.5594,-4.5594,-4.5594,-4.5594,-4.5594,-4.5594,-4.5594,-4.5594,-4.5594,-4.5594,-4.5594,-4.5594,-4.5594,-4.5594,-4.5594,-4.5594,-4.5594,-4.5594,-4.5594,-4.5594,-4.5594,-4.5594,-4.5594,-4.5594,-4.5594,-4.5594,-4.5594,-4.5594,-4.5594,-4.5594,-4.5594,-4.5594,-4.5594,-4.5594,-4.5594,-4.5594,-4.5594,-4.5537,-4.5556,-4.5537,-4.5498,-4.5575,-4.4893,-4.494,-4.5056,-4.4566,-4.4085,-4.4066,-4.3682,-4.3412,-4.3489,-4.3912,-4.4297,-4.4701,-4.5182,-4.5594,-4.5594,-4.5518,-4.5518,-4.5498,-4.546,-4.5421,-4.5441,-4.5479,-4.5594,-4.5594,-4.5594,-4.5594,-4.5594,-4.5594,-4.5594,-4.5594,-4.5594,-4.5594,-4.5594,-4.5594,-4.5594,-4.5594,-4.5594,-4.5594,-4.5594,-4.5594,-4.5594,-4.5594,-4.5594,-4.5594,-4.5594,-4.5594,-4.5806,-4.6067,-4.6047,-4.5883,-4.5941,-4.5979,-4.599,-4.5951,-4.6086,-4.6394,-4.7028,-4.7836,-4.8067,-4.8144,-4.8452,-4.8788,-4.9057,-4.8875,-4.8432,-4.7798,-4.6778,-4.6133,-4.6144,-4.5825,-4.5594,-4.5594,-4.5671,-4.5594,-4.5594,-4.5594,-4.5594,-4.5594,-4.5594,-4.5594,-4.5594,-4.5594,-4.5594,-4.5594,-4.5594,-4.5594,-4.5594,-4.5594,-4.5594,-4.5594,-4.5594,-4.5594,-4.5594,-4.5594,-4.5594,-4.5594,-4.5594,-4.5594,-4.5594,-4.5594,-4.5594,-4.5594,-4.5594,-4.5594,-4.5594,-4.5594,-4.5594,-4.5594,-4.5594,-4.5594,-4.5594,-4.5594,-4.5594,-4.5594,-4.5537,-4.5364,-4.5479,-4.5518,-4.521,-4.4729,-4.4633,-4.4278,-4.4239,-4.422,-4.444,-4.4729,-4.5287,-4.5518,-4.5594,-4.5594,-4.5594,-4.5594,-4.5594,-4.5594,-4.5594,-4.5594,-4.5594,-4.5594,-4.5594,-4.5594,-4.5594,-4.5594,-4.5594,-4.5594,-4.5594,-4.5594,-4.5594,-4.5594,-4.5594,-4.5594,-4.5594,-4.5594,-4.5594,-4.5594,-4.5594,-4.5594,-4.5594,-4.5594,-4.5594,-4.5594,-4.5594,-4.5864,-4.6394,-4.649,-4.6297,-4.6471,-4.6605,-4.6471,-4.6451,-4.7509,-4.7855,-4.7952,-4.8586,-4.8894,-4.9106,-4.9433,-4.9856,-5.0481,-5.0337,-5.0048,-4.9221,-4.8163,-4.7413,-4.6932,-4.649,-4.6182,-4.5855,-4.5951,-4.5768,-4.5594,-4.5594,-4.5594,-4.5594,-4.5594,-4.5594,-4.5594,-4.5594,-4.5594,-4.5594,-4.5594,-4.5594,-4.5594,-4.5594,-4.5594,-4.5594,-4.5594,-4.5594,-4.5594,-4.5594,-4.5594,-4.5594,-4.5594,-4.5594,-4.5594,-4.5594,-4.5594,-4.5594,-4.5594,-4.5594,-4.5594,-4.5594,-4.5594,-4.5594,-4.5594,-4.5594,-4.5594,-4.5594,-4.5594,-4.5594,-4.5594,-4.5594,-4.5594,-4.5594,-4.5594,-4.5344,-4.5229,-4.5075,-4.5094,-4.5114,-4.5094,-4.5267,-4.5518,-4.5594,-4.5594,-4.5594,-4.5594,-4.5594,-4.5594,-4.5594,-4.5594,-4.5594,-4.5594,-4.5594,-4.5594,-4.5594,-4.5594,-4.5594,-4.5594,-4.5594,-4.5594,-4.5594,-4.5594,-4.5594,-4.5594,-4.5594,-4.5594,-4.5594,-4.5594,-4.5594,-4.5594,-4.5594,-4.5594,-4.5594,-4.5594,-4.5594,-4.5594,-4.6133,-4.6759,-4.6797,-4.6663,-4.6971,-4.7317,-4.7135,-4.7058,-4.8279,-4.9298,-4.9471,-4.9683,-5.0144,-5.0683,-5.1087,-5.1491,-5.2106,-5.1972,-5.1702,-5.0644,-4.9548,-4.8682,-4.7942,-4.7635,-4.7278,-4.6817,-4.624,-4.6067,-4.5893,-4.5671,-4.5594,-4.5594,-4.5594,-4.5594,-4.5594,-4.5594,-4.5594,-4.5594,-4.5594,-4.5594,-4.5594,-4.5594,-4.5594,-4.5594,-4.5594,-4.5594,-4.5594,-4.5594,-4.5594,-4.5594,-4.5594,-4.5594,-4.5594,-4.5594,-4.5594,-4.5594,-4.5594,-4.5594,-4.5594,-4.5594,-4.5594,-4.5594,-4.5594,-4.5594,-4.5594,-4.5594,-4.5594,-4.5594,-4.5594,-4.5594,-4.5594,-4.5594,-4.5594,-4.5594,-4.5594,-4.5594,-4.5594,-4.5575,-4.5556,-4.5556,-4.5594,-4.5594,-4.5594,-4.5594,-4.5594,-4.5594,-4.5594,-4.5594,-4.5594,-4.5594,-4.5594,-4.5594,-4.5594,-4.5594,-4.5594,-4.5594,-4.5594,-4.5594,-4.5594,-4.5594,-4.5594,-4.5594,-4.5594,-4.5594,-4.5594,-4.5594,-4.5594,-4.5594,-4.5594,-4.5594,-4.5594,-4.5594,-4.5594,-4.5594,-4.5652,-4.6441,-4.7144,-4.7086,-4.7192,-4.8865,-4.9365,-4.9086,-4.9029,-4.9721,-5.0741,-5.126,-5.151,-5.1865,-5.2452,-5.3029,-5.3453,-5.3857,-5.3664,-5.3299,-5.201,-5.0914,-4.976,-4.9067,-4.8682,-4.7904,-4.7028,-4.6547,-4.6394,-4.6086,-4.571,-4.5614,-4.5594,-4.5594,-4.5594,-4.5594,-4.5594,-4.5594,-4.5594,-4.5594,-4.5594,-4.5594,-4.5594,-4.5594,-4.5594,-4.5594,-4.5594,-4.5594,-4.5594,-4.5594,-4.5594,-4.5594,-4.5594,-4.5594,-4.5594,-4.5594,-4.5594,-4.5594,-4.5594,-4.5594,-4.5594,-4.5594,-4.5594,-4.5594,-4.5594,-4.5594,-4.5594,-4.5594,-4.5594,-4.5594,-4.5594,-4.5594,-4.5594,-4.5594,-4.5594,-4.5594,-4.5594,-4.5594,-4.5594,-4.5594,-4.5594,-4.5594,-4.5594,-4.5594,-4.5594,-4.5594,-4.5594,-4.5594,-4.5594,-4.5594,-4.5594,-4.5594,-4.5594,-4.5594,-4.5594,-4.5594,-4.5594,-4.5594,-4.5594,-4.5594,-4.5594,-4.5594,-4.5594,-4.5594,-4.5594,-4.5594,-4.5594,-4.5594,-4.5594,-4.5594,-4.5594,-4.5594,-4.5594,-4.5594,-4.5594,-4.5633,-4.6345,-4.7144,-4.7413,-4.7923,-5.0212,-5.1615,-5.1298,-5.1279,-5.1548,-5.2087,-5.2702,-5.301,-5.3241,-5.3587,-5.4145,-5.4318,-5.4626,-5.5203,-5.4838,-5.351,-5.2202,-5.0971,-4.9894,-4.9202,-4.8336,-4.7375,-4.7394,-4.7702,-4.6701,-4.5643,-4.5633,-4.5594,-4.5594,-4.5594,-4.5594,-4.5594,-4.5594,-4.5594,-4.5594,-4.5594,-4.5594,-4.5594,-4.5594,-4.5594,-4.5594,-4.5594,-4.5594,-4.5594,-4.5594,-4.5594,-4.5594,-4.5594,-4.5594,-4.5594,-4.5594,-4.5594,-4.5594,-4.5594,-4.5594,-4.5594,-4.5594,-4.5594,-4.5594,-4.5594,-4.5594,-4.5594,-4.5594,-4.5594,-4.5594,-4.5594,-4.5594,-4.5594,-4.5594,-4.5594,-4.5594,-4.5594,-4.5594,-4.5594,-4.5594,-4.5594,-4.5594,-4.5594,-4.5594,-4.5594,-4.5594,-4.5594,-4.5594,-4.5594,-4.5594,-4.5594,-4.5594,-4.5594,-4.5594,-4.5594,-4.5594,-4.5594,-4.5594,-4.5594,-4.5594,-4.5594,-4.5594,-4.5594,-4.5594,-4.5594,-4.5594,-4.5594,-4.5594,-4.5594,-4.5594,-4.5594,-4.5594,-4.5594,-4.5594,-4.5594,-4.5633,-4.6037,-4.6894,-4.7413,-4.8981,-5.1,-5.2654,-5.276,-5.2914,-5.3126,-5.3337,-5.3857,-5.403,-5.4203,-5.4434,-5.478,-5.4953,-5.5222,-5.553,-5.5126,-5.3703,-5.2818,-5.2049,-5.101,-5.0125,-4.976,-4.9298,-4.9202,-4.9029,-4.774,-4.6567,-4.5845,-4.5594,-4.5652,-4.5633,-4.5594,-4.5594,-4.5594,-4.5594,-4.5594,-4.5594,-4.5594,-4.5594,-4.5594,-4.5594,-4.5594,-4.5594,-4.5594,-4.5594,-4.5594,-4.5594,-4.5594,-4.5594,-4.5594,-4.5594,-4.5594,-4.5594,-4.5594,-4.5594,-4.5594,-4.5594,-4.5594,-4.5594,-4.5594,-4.5594,-4.5594,-4.5594,-4.5594,-4.5594,-4.5594,-4.5594,-4.5594,-4.5594,-4.5594,-4.5594,-4.5594,-4.5594,-4.5594,-4.5594,-4.5594,-4.5594,-4.5594,-4.5594,-4.5594,-4.5594,-4.5594,-4.5594,-4.5594,-4.5594,-4.5594,-4.5594,-4.5594,-4.5594,-4.5594,-4.5594,-4.5594,-4.5594,-4.5594,-4.5594,-4.5594,-4.5594,-4.5594,-4.5594,-4.5594,-4.5594,-4.5594,-4.5594,-4.5633,-4.5652,-4.5633,-4.5691,-4.5691,-4.5748,-4.5748,-4.6105,-4.6172,-4.6864,-4.7605,-4.8336,-5.001,-5.15,-5.301,-5.4049,-5.4337,-5.4645,-5.478,-5.4838,-5.4876,-5.4934,-5.5088,-5.5222,-5.5318,-5.5415,-5.5588,-5.4953,-5.3837,-5.3299,-5.2895,-5.2414,-5.1625,-5.1433,-5.1183,-5.0798,-5.0106,-4.8682,-4.7586,-4.6701,-4.6047,-4.5768,-4.5729,-4.5614,-4.5594,-4.5594,-4.5594,-4.5594,-4.5594,-4.5594,-4.5594,-4.5594,-4.5594,-4.5594,-4.5594,-4.5594,-4.5594,-4.5594,-4.5594,-4.5594,-4.5594,-4.5594,-4.5594,-4.5594,-4.5594,-4.5594,-4.5594,-4.5594,-4.5594,-4.5594,-4.5594,-4.5594,-4.5594,-4.5594,-4.5594,-4.5594,-4.5594,-4.5594,-4.5594,-4.5594,-4.5594,-4.5594,-4.5594,-4.5594,-4.5594,-4.5594,-4.5594,-4.5594,-4.5594,-4.5594,-4.5594,-4.5594,-4.5594,-4.5594,-4.5594,-4.5594,-4.5594,-4.5594,-4.5594,-4.5594,-4.5594,-4.5594,-4.5594,-4.5594,-4.5594,-4.5594,-4.5594,-4.5594,-4.5594,-4.5594,-4.5594,-4.5594,-4.5594,-4.5594,-4.5594,-4.5671,-4.5729,-4.5806,-4.5874,-4.5932,-4.6018,-4.6317,-4.6817,-4.7375,-4.8221,-4.8894,-4.9433,-5.0606,-5.1769,-5.3203,-5.4357,-5.4684,-5.4895,-5.528,-5.5338,-5.5376,-5.5415,-5.5434,-5.5549,-5.5607,-5.5684,-5.5684,-5.5164,-5.4184,-5.4145,-5.3799,-5.3395,-5.2933,-5.2626,-5.2279,-5.2049,-5.1327,-5.0337,-4.8913,-4.7432,-4.6913,-4.6701,-4.5922,-4.5864,-4.5633,-4.5594,-4.5594,-4.5594,-4.5594,-4.5594,-4.5594,-4.5594,-4.5594,-4.5594,-4.5594,-4.5594,-4.5594,-4.5594,-4.5594,-4.5594,-4.5594,-4.5594,-4.5594,-4.5594,-4.5594,-4.5594,-4.5594,-4.5594,-4.5594,-4.5594,-4.5594,-4.5594,-4.5594,-4.5594,-4.5594,-4.5594,-4.5594,-4.5594,-4.5594,-4.5594,-4.5594,-4.5594,-4.5594,-4.5594,-4.5594,-4.5594,-4.5594,-4.5594,-4.5594,-4.5594,-4.5594,-4.5594,-4.5594,-4.5594,-4.5594,-4.5594,-4.5594,-4.5594,-4.5594,-4.5594,-4.5594,-4.5594,-4.5594,-4.5594,-4.5594,-4.5594,-4.5594,-4.5594,-4.5594,-4.5594,-4.5594,-4.5594,-4.5614,-4.5729,-4.5941,-4.6133,-4.6394,-4.6528,-4.6682,-4.6836,-4.6932,-4.7201,-4.7644,-4.8029,-4.8875,-4.976,-5.0298,-5.0971,-5.2115,-5.3029,-5.4087,-5.4568,-5.5011,-5.5415,-5.5684,-5.5684,-5.5684,-5.5684,-5.5684,-5.5684,-5.5684,-5.5684,-5.5203,-5.4703,-5.4664,-5.4434,-5.3799,-5.3453,-5.3472,-5.3356,-5.3126,-5.2837,-5.2375,-5.0664,-4.8529,-4.8336,-4.8067,-4.6951,-4.6095,-4.6056,-4.596,-4.5594,-4.5594,-4.5594,-4.5594,-4.5594,-4.5594,-4.5594,-4.5594,-4.5594,-4.5594,-4.5594,-4.5594,-4.5594,-4.5594,-4.5594,-4.5594,-4.5594,-4.5594,-4.5594,-4.5594,-4.5594,-4.5594,-4.5594,-4.5594,-4.5594,-4.5594,-4.5594,-4.5594,-4.5594,-4.5594,-4.5594,-4.5594,-4.5594,-4.5594,-4.5594,-4.5594,-4.5594,-4.5594,-4.5594,-4.5594,-4.5594,-4.5594,-4.5594,-4.5594,-4.5594,-4.5594,-4.5594,-4.5594,-4.5594,-4.5594,-4.5594,-4.5594,-4.5594,-4.5594,-4.5629,-4.5629,-4.5612,-4.5631,-4.5631,-4.5622,-4.5594,-4.5594,-4.5594,-4.5594,-4.5594,-4.5594,-4.5855,-4.6105,-4.6471,-4.6797,-4.7124,-4.7423,-4.7702,-4.7971,-4.8086,-4.8202,-4.8394,-4.8586,-4.9394,-5.0375,-5.1029,-5.1577,-5.2356,-5.3126,-5.3683,-5.3991,-5.453,-5.5184,-5.5511,-5.5684,-5.5684,-5.5684,-5.5684,-5.5684,-5.5684,-5.5684,-5.5415,-5.5164,-5.5184,-5.4857,-5.4203,-5.4222,-5.4502,-5.4414,-5.4184,-5.3828,-5.3377,-5.152,-4.974,-4.9586,-4.9086,-4.7913,-4.7163,-4.7048,-4.6913,-4.5479,-4.5479,-4.5556,-4.5594,-4.5594,-4.5594,-4.5594,-4.5594,-4.5594,-4.5594,-4.5594,-4.5594,-4.5594,-4.5594,-4.5594,-4.5594,-4.5594,-4.5594,-4.5594,-4.5594,-4.5594,-4.5594,-4.5594,-4.5594,-4.5594,-4.5594,-4.5594,-4.5594,-4.5594,-4.5594,-4.5594,-4.5594,-4.5594,-4.5594,-4.5594,-4.5594,-4.5594,-4.5594,-4.5594,-4.5594,-4.5594,-4.5594,-4.5594,-4.5594,-4.5594,-4.5594,-4.5594,-4.5594,-4.5594,-4.5594,-4.5594,-4.5594,-4.5594,-4.562,-4.5643,-4.5651,-4.5654,-4.5657,-4.5657,-4.5648,-4.5622,-4.5614,-4.5594,-4.5594,-4.5594,-4.5594,-4.5855,-4.6797,-4.7278,-4.7875,-4.8279,-4.8317,-4.849,-4.8817,-4.9048,-4.9183,-4.9375,-4.9548,-4.9933,-5.0702,-5.101,-5.151,-5.1645,-5.2318,-5.2799,-5.3203,-5.3818,-5.4607,-5.4983,-5.5271,-5.5502,-5.5502,-5.5425,-5.5444,-5.5684,-5.5684,-5.5684,-5.5607,-5.5502,-5.5491,-5.5011,-5.5214,-5.5618,-5.5215,-5.4744,-5.4542,-5.3897,-5.2107,-5.0856,-5.0558,-4.9894,-4.8807,-4.8279,-4.823,-4.7817,-4.4613,-4.4671,-4.5344,-4.5594,-4.5594,-4.5594,-4.5594,-4.5594,-4.5594,-4.5594,-4.5594,-4.5594,-4.5594,-4.5594,-4.5594,-4.5594,-4.5594,-4.5594,-4.5594,-4.5594,-4.5594,-4.5594,-4.5594,-4.5594,-4.5594,-4.5594,-4.5594,-4.5594,-4.5594,-4.5594,-4.5594,-4.5594,-4.5594,-4.5594,-4.5594,-4.5594,-4.5594,-4.5594,-4.5594,-4.5594,-4.5594,-4.5594,-4.5594,-4.5594,-4.5594,-4.5594,-4.5594,-4.5594,-4.5594,-4.5594,-4.5594,-4.5594,-4.5594,-4.5635,-4.5676,-4.57,-4.5684,-4.5687,-4.569,-4.5673,-4.5657,-4.5603,-4.5603,-4.5594,-4.5594,-4.5594,-4.6133,-4.7259,-4.8259,-4.8913,-4.9307,-4.924,-4.9269,-4.9615,-4.9933,-5.0125,-5.0317,-5.0471,-5.0596,-5.0827,-5.1058,-5.1174,-5.127,-5.1462,-5.1865,-5.2423,-5.3049,-5.3645,-5.3954,-5.4272,-5.4918,-5.4995,-5.4925,-5.5021,-5.5291,-5.5474,-5.534,-5.534,-5.5235,-5.5416,-5.5579,-5.538,-5.515,-5.5363,-5.52,-5.465,-5.3947,-5.2916,-5.1904,-5.1433,-5.076,-4.9681,-4.9663,-4.9673,-4.9,-4.3778,-4.3874,-4.4662,-4.5248,-4.5556,-4.5594,-4.5594,-4.5594,-4.5594,-4.5594,-4.5594,-4.5594,-4.5594,-4.5594,-4.5594,-4.5594,-4.5594,-4.5594,-4.5594,-4.5594,-4.5594,-4.5594,-4.5594,-4.5594,-4.5594,-4.5594,-4.5594,-4.5594,-4.5594,-4.5594,-4.5594,-4.5594,-4.5594,-4.5594,-4.5594,-4.5594,-4.5594,-4.5594,-4.5594,-4.5614,-4.5614,-4.5614,-4.5594,-4.5594,-4.5594,-4.5594,-4.5594,-4.5594,-4.5594,-4.5622,-4.5631,-4.5646,-4.5662,-4.5676,-4.5704,-4.5719,-4.5731,-4.5727,-4.5719,-4.5714,-4.5698,-4.5654,-4.5665,-4.5682,-4.6155,-4.6224,-4.6383,-4.7528,-4.924,-5.0058,-5.0067,-5.0028,-5.0076,-5.0325,-5.0421,-5.0527,-5.0816,-5.1076,-5.1269,-5.15,-5.1635,-5.1635,-5.1577,-5.1143,-5.1587,-5.204,-5.2608,-5.2954,-5.3205,-5.3273,-5.3927,-5.4448,-5.438,-5.4225,-5.4235,-5.4543,-5.4793,-5.4832,-5.4832,-5.4582,-5.4438,-5.4535,-5.4583,-5.4603,-5.4487,-5.4121,-5.3388,-5.2634,-5.2355,-5.1856,-5.1268,-5.0574,-5.0749,-5.0721,-5.0076,-4.3008,-4.3201,-4.397,-4.472,-4.5402,-4.5556,-4.5594,-4.5594,-4.5594,-4.5594,-4.5594,-4.5594,-4.5594,-4.5594,-4.5594,-4.5594,-4.5594,-4.5594,-4.5594,-4.5594,-4.5594,-4.5594,-4.5594,-4.5594,-4.5594,-4.5594,-4.5594,-4.5594,-4.5594,-4.5594,-4.5594,-4.5594,-4.5594,-4.5594,-4.5594,-4.5594,-4.5594,-4.5594,-4.5614,-4.5691,-4.5691,-4.5652,-4.5614,-4.5594,-4.5594,-4.5594,-4.5594,-4.5594,-4.5594,-4.5618,-4.5671,-4.5684,-4.5734,-4.5759,-4.5766,-4.5787,-4.58,-4.5791,-4.5773,-4.5743,-4.5727,-4.5719,-4.5766,-4.6105,-4.659,-4.6951,-4.7111,-4.8152,-4.9865,-5.0625,-5.0634,-5.0662,-5.0727,-5.0764,-5.0773,-5.0793,-5.112,-5.1401,-5.1613,-5.1825,-5.1825,-5.1825,-5.1564,-5.1129,-5.1285,-5.174,-5.2059,-5.2425,-5.2646,-5.2598,-5.2858,-5.3494,-5.3803,-5.362,-5.3494,-5.3697,-5.414,-5.4034,-5.3967,-5.3562,-5.3388,-5.3773,-5.3879,-5.3618,-5.3445,-5.3231,-5.2903,-5.2264,-5.2092,-5.1901,-5.1419,-5.0801,-5.0775,-5.0776,-5.0748,-4.247,-4.3181,-4.3951,-4.4412,-4.4671,-4.5267,-4.5594,-4.5594,-4.5594,-4.5594,-4.5594,-4.5594,-4.5594,-4.5594,-4.5594,-4.5594,-4.5594,-4.5594,-4.5594,-4.5594,-4.5594,-4.5594,-4.5594,-4.5594,-4.5594,-4.5594,-4.5594,-4.5594,-4.5594,-4.5594,-4.5594,-4.5594,-4.5594,-4.5594,-4.5594,-4.5614,-4.5633,-4.571,-4.5864,-4.597,-4.6317,-4.6163,-4.5652,-4.5594,-4.5594,-4.5594,-4.5594,-4.5594,-4.5594,-4.5635,-4.5711,-4.574,-4.5783,-4.5885,-4.59,-4.5866,-4.5873,-4.5841,-4.5819,-4.5776,-4.5773,-4.5974,-4.6186,-4.6765,-4.7259,-4.7761,-4.8191,-4.8981,-5.0254,-5.067,-5.0745,-5.0745,-5.0801,-5.0791,-5.0791,-5.0791,-5.0964,-5.1022,-5.111,-5.1168,-5.1168,-5.1196,-5.1194,-5.0943,-5.0906,-5.1217,-5.1236,-5.1545,-5.168,-5.1736,-5.1878,-5.241,-5.3038,-5.3329,-5.333,-5.3205,-5.3436,-5.3291,-5.3127,-5.2836,-5.2845,-5.3317,-5.3307,-5.2833,-5.2608,-5.242,-5.2053,-5.1777,-5.1518,-5.1297,-5.1161,-5.0883,-5.0838,-5.0829,-5.0801]},{"header":{"parameterUnit":"m.s-1","parameterCategory":1,"la1":31.0,"la2":29.5877,"lo1":-88.7671,"lo2":-86.6584,"dy":0.0162,"dx":0.0185,"nx":115,"ny":88,"refTime":"2024-07-16T06:00:00:Z","depth":0,"parameterNumber":3,"parameterNumberName":"V-component_of_WINDS"},"data":[0.0,0.0,0.0,0.0,0.0,0.0,0.0,0.0,0.0,0.0,0.0,0.0,0.0,0.0,0.0,0.0,0.0,0.0,0.0,0.0,0.0,0.0,0.0,0.0,0.0,0.0,0.0,0.0,0.0,0.0,0.0,0.0,0.0,0.0,0.0,0.0,0.0,0.0,0.0,0.0,0.0,0.0,0.0,0.0,0.0,0.0,0.0,0.0,0.0,0.0,0.0,0.0,0.0,0.0,0.0,0.0,0.0,0.0,0.0,0.0,0.0,0.0,0.0,0.0,0.0,0.0,0.0,0.0,0.0,0.0,0.0,0.0,0.0,0.0,0.0,0.0,0.0,0.0,0.0,0.0,0.0,0.0,0.0,0.0,0.0,0.0,0.0,0.0,0.0,0.0,0.0,0.0,0.0,0.0,0.0,0.0,0.0,0.0,0.0,0.0,0.0,0.0,0.0,0.0,0.0,0.0,0.0,0.0,0.0,0.0,0.0,0.0,0.0,0.0,0.0,0.0,0.0,0.0,0.0,0.0,0.0,0.0,0.0,0.0,0.0,0.0,0.0,0.0,0.0,0.0,0.0,0.0,0.0,0.0,0.0,0.0,0.0,0.0,0.0,0.0,0.0,0.0,0.0,0.0,0.0,0.0,0.0,0.0,0.0,0.0,0.0,0.0,0.0,0.0,0.0,0.0,0.0,0.0,0.0,0.0,0.0,0.0,0.0,0.0,0.0,0.0,0.0,0.0,0.0,0.0,0.0,0.0,0.0,0.0,0.0,0.0,0.0,0.0,0.0,0.0,0.0,0.0,0.0,0.0,0.0,0.0,0.0,0.0,0.0,0.0,0.0,0.0,0.0,0.0,0.0,0.0,0.0,0.0,0.0,0.0,0.0,0.0,0.0,0.0,0.0,0.0,0.0,0.0,0.0,0.0,0.0,0.0,0.0,0.0,0.0,0.0,0.0,0.0,0.0,0.0,0.0,0.0,0.0,0.0,0.0,0.0,0.0,0.0,0.0,0.0,0.0,0.0,0.0,0.0,0.0,0.0,0.0,0.0,0.0,0.0,0.0,0.0,0.0,0.0,0.0,0.0,0.0,0.0,0.0,0.0,0.0,0.0,0.0,0.0,0.0,0.0,0.0,0.0,0.0,0.0,0.0,0.0,0.0,0.0,0.0,0.0,0.0,0.0,0.0,0.0,0.0,0.0,0.0,0.0,0.0,0.0,0.0,0.0,0.0,0.0,0.0,0.0,0.0,0.0,0.0,0.0,0.0,0.0,0.0,0.0,0.0,0.0,0.0,0.0,0.0,0.0,0.0,0.0,0.0,0.0,0.0,0.0,0.0,0.0,0.0,0.0,0.0,0.0,0.0,0.0,0.0,0.0,0.0,0.0,0.0,0.0,0.0,0.0,0.0,0.0,0.0,0.0,0.0,0.0,0.0,0.0,0.0,0.0,0.0,0.0,0.0,0.0,0.0,0.0,0.0,0.0,0.0,0.0,0.0,0.0,0.0,0.0,0.0,0.0,0.0,0.0,0.0,0.0,0.0,0.0,0.0,0.0,0.0,0.0,0.0,0.0,0.0,0.0,0.0,0.0,0.0,0.0,0.0,0.0,0.0,0.0,0.0,0.0,0.0,0.0,0.0,0.0,0.0,0.0,0.0,0.0,0.0,0.0,0.0,0.0,0.0,0.0,0.0,0.0,0.0,0.0,0.0,0.0,0.0,0.0,0.0,0.0,0.0,0.0,0.0,0.0,0.0,0.0,0.0,0.0,0.0,0.0,0.0,0.0,0.0,0.0,0.0,0.0,0.0,0.0,0.0,0.0,0.0,0.0,0.0,0.0,0.0,0.0,0.0,0.0,0.0,0.0,0.0,0.0,0.0,0.0,0.0,0.0,0.0,0.0,0.0,0.0,0.0,0.0,0.0,0.0,0.0,0.0,0.0,0.0,0.0,0.0,0.0,0.0,0.0,0.0,0.0,0.0,0.0,0.0,0.0,0.0,0.0,0.0,0.0,0.0,0.0,0.0,0.0,0.0,0.0,0.0,0.0,0.0,0.0,0.0,0.0,0.0,0.0,0.0,0.0,0.0,0.0,0.0,0.0,0.0,0.0,0.0,0.0,0.0,0.0,0.0,0.0,0.0,0.0,0.0,0.0,0.0,0.0,0.0,0.0,0.0,0.0,0.0,0.0,0.0,0.0,0.0,0.0,0.0,0.0,0.0,0.0,0.0,0.0,0.0,0.0,0.0,0.0,0.0,0.0,0.0,0.0,0.0,0.0,0.0,0.0,0.0,0.0,0.0,0.0,0.0,0.0,0.0,0.0,0.0,0.0,0.0,0.0,0.0,0.0,0.0,0.0,0.0,0.0,0.0,0.0,0.0,0.0,0.0,0.0,0.0,0.0,0.0,0.0,0.0,0.0,0.0,0.0,0.0,0.0,0.0,0.0,0.0,0.0,0.0,0.0,0.0,0.0,0.0,0.0,0.0,0.0,0.0,0.0,0.0,0.0,0.0,0.0,0.0,0.0,0.0,0.0,0.0,0.0,0.0,0.0,0.0,0.0,0.0,0.0,0.0,0.0,0.0,0.0,0.0,0.0,0.0,0.0,0.0,0.0,0.0,0.0,0.0,0.0,0.0,0.0,0.0,0.0,0.0,0.0,0.0,0.0,0.0,0.0,0.0,0.0,0.0,0.0,0.0,0.0,0.0,0.0,0.0,0.0,0.0,0.0,0.0,0.0,0.0,0.0,0.0,0.0,0.0,0.0,0.0,0.0,0.0,0.0,0.0,0.0,0.0,0.0,0.0,0.0,0.0,0.0,0.0,0.0,0.0,0.0,0.0,0.0,0.0,0.0,0.0,0.0,0.0,0.0,0.0,0.0,0.0,0.0,0.0,0.0,0.0,0.0,0.0,0.0,0.0,0.0,0.0,0.0,0.0,0.0,0.0,0.0,0.0,0.0,0.0,0.0,0.0,0.0,0.0,0.0,0.0,0.0,0.0,0.0,0.0,0.0,0.0,0.0,0.0,0.0,0.0,0.0,0.0,0.0,0.0,0.0,0.0,0.0,0.0,0.0,0.0,0.0,0.0,0.0,0.0,0.0,0.0,0.0,0.0,0.0,0.0,0.0,0.0,0.0,0.0,0.0,0.0,0.0,0.0,0.0,0.0,0.0,0.0,0.0,0.0,0.0,0.0,0.0,0.0,0.0,0.0,0.0,0.0,0.0,0.0,0.0,0.0,0.0,0.0,0.0,0.0,0.0,0.0,0.0,0.0,0.0,0.0,0.0,0.0,0.0,0.0,0.0,0.0,0.0,0.0,0.0,0.0,0.0,0.0,0.0,0.0,0.0,0.0,0.0,0.0,0.0,0.0,0.0,0.0,0.0,0.0,0.0,0.0,0.0,0.0,0.0,0.0,0.0,0.0,0.0,0.0,0.0,0.0,0.0,0.0,0.0,0.0,0.0,0.0,0.0,0.0,0.0,0.0,0.0,0.0,0.0,0.0,0.0,0.0,0.0,0.0,0.0,0.0,0.0,0.0,0.0,0.0,0.0,0.0,0.0,0.0,0.0,0.0,0.0,0.0,0.0,0.0,0.0,0.0,0.0,0.0,0.0,0.0,0.0,0.0,0.0,0.0,0.0,0.0,0.0,0.0,0.0,0.0,0.0,0.0,0.0,0.0,0.0,0.0,0.0,0.0,0.0,0.0,0.0,0.0,0.0,0.0,0.0,0.0,0.0,0.0,0.0,0.0,0.0,0.0,0.0,0.0,0.0,0.0,0.0,0.0,0.0,0.0,0.0,0.0,0.0,0.0,0.0,0.0,0.0,0.0,0.0,0.0,0.0,0.0,0.0,0.0,0.0,0.0,0.0,0.0,0.0,0.0,0.0,0.0,0.0,0.0,0.0,0.0,0.0,0.0,0.0,0.0,0.0,0.0,0.0,0.0,0.0,0.0,0.0,0.0,0.0,0.0,0.0,0.0,0.0,0.0,0.0,0.0,0.0,0.0,0.0,0.0,0.0,0.0,0.0,0.0,0.0,0.0,0.0,0.0,0.0,0.0,0.0,0.0,0.0,0.0,0.0,0.0,0.0,0.0,0.0,0.0,0.0,0.0,0.0,0.0,0.0,0.0,0.0,0.0,0.0,0.0,0.0,0.0,0.0,0.0,0.0,0.0,0.0,0.0,0.0,0.0,0.0,0.0,0.0,0.0,0.0,0.0,0.0,0.0,0.0,0.0,0.0,0.0,0.0,0.0,0.0,0.0,0.0,0.0,0.0022,0.0,0.0,0.0,0.0,0.0,0.0,0.0,0.0,0.0,0.0,0.0,0.0,0.0,0.0,0.0,0.0,0.0,0.0,0.0,0.0,0.0,0.0,0.0,0.0,0.0,0.0,0.0,0.0,0.0,0.0,0.0,0.0,0.0,0.0,0.0,0.0,0.0,0.0,0.0,0.0,0.0,0.0,0.0,0.0,0.0,0.0,0.0,0.0,0.0,0.0,0.0,0.0,0.0,0.0,0.0,0.0,0.0,0.0,0.0,0.0,0.0,0.0,0.0,0.0,0.0,0.0,0.0,0.0,0.0,0.0,0.0,0.0,0.0,0.0,0.0,0.0,0.0,0.0,0.0,0.0,0.0,0.0,0.0,0.0,0.0,0.0,0.0,0.0,0.0,0.0,0.0,0.0,0.0,0.0,0.0,0.0,0.0,0.0,0.0,0.0,0.0,0.0,0.0,0.0,0.0,0.0,0.0,0.0,0.0,0.0,0.0,0.0,0.0,0.0,0.0,0.0,0.0,0.0,0.0,0.0,0.0,0.0,0.0,0.0,0.0,0.0,0.0,0.0,0.0,0.0,0.0,0.0,0.0,0.0,0.0,0.0,0.0,0.0,0.0,0.0,0.0,0.0,0.0,0.0,0.0,0.0,0.0,0.0,0.0,0.0,0.0,0.0,0.0,0.0,0.0,0.0,0.0,0.0,0.0,0.0,0.0,0.0,0.0,0.0,0.0,0.0,0.0,0.0,0.0,0.0,0.0,0.0,0.0,0.0,0.0,0.0,0.0,0.0,0.0,0.0,0.0,0.0,0.0,0.0,0.0,0.0,0.0,0.0,0.0,0.0,0.0,0.0,0.0,0.0,0.0,0.0,0.0,0.0,0.0,0.0,0.0,0.0,0.0,0.0,0.0,0.0,0.0,0.0,0.0,0.0,0.0,0.0,0.0,0.0,0.0,0.0,0.0,0.0,0.0,0.0,0.0,0.0,0.0,0.0,0.0,0.0,0.0,0.0,0.0,0.0,0.0,0.0,0.0,0.0,0.0,0.0,0.0,0.0,0.0,0.0,0.0,0.0,0.0,0.0,0.0,0.0,0.0,0.0,0.0,0.0,0.0,0.0,0.0,0.0,0.0,0.0,0.0,0.0,0.0,0.0,0.0,0.0,0.0,0.0,0.0,0.0,0.0,0.0,0.0,0.0,0.0,0.0,0.0,0.0,0.0,0.0,0.0,0.0,0.0,0.0,0.0,0.0,0.0,0.0,0.0,0.0,0.0,0.0,0.0,0.0,0.0,0.0,0.0,0.0,0.0,0.0,0.0,0.0,0.0,0.0,0.0,0.0,0.0,0.0,0.0,0.0,0.0,0.0,0.0,0.0,0.0,0.0,0.0,0.0,0.0,0.0,0.0,0.0,0.0,0.0,0.0,0.0,0.0,0.0,0.0,0.0,0.0,0.0,0.0,0.0,0.0,0.0,0.0,0.0,0.0,0.0,0.0,0.0,0.0,0.0,0.0,0.0,0.0,0.0,0.0,0.0,0.0,0.0,0.0,0.0,0.0,0.0,0.0,0.0,0.0,0.0,0.0,0.0,0.0,0.0,0.0,0.0,0.0,0.0,0.0,0.0,0.0,0.0,0.0,0.0,0.0,0.0,0.0,0.0,0.0,0.0,0.0,0.0,0.0,0.0,0.0,0.0,0.0,0.0,0.0,0.0,0.0,0.0,0.0,0.0,0.0,0.0,0.0,0.0,0.0,0.0,0.0,0.0,0.0,0.0,0.0,0.0,0.0,0.0,0.0,0.0,0.0,0.0,0.0,0.0,0.0,0.0,0.0,0.0,0.0,0.0,0.0,0.0,0.0,0.0,0.0,0.0,0.0,0.0,0.0,0.0,0.0,0.0,0.0,0.0,0.0,0.0,0.0,0.0,0.0,0.0,0.0,0.0,0.0,0.0,0.0,0.0,0.0,0.0,0.0,0.0,0.0,0.0,0.0,0.0,0.0,0.0,0.0,0.0,0.0,0.0,0.0,0.0,0.0,0.0,0.0,0.0,0.0,0.0,0.0,0.0,0.0,0.0,0.0,0.0,0.0,0.0,0.0,0.0,0.0,0.0,0.0,0.0,0.0,0.0,0.0,0.0,0.0,0.0,0.0,0.0,0.0,0.0,0.0,0.0,0.0,0.0,0.0,0.0,0.0,0.0,0.0,0.0,0.0,0.0,0.0,0.0,0.0,0.0,0.0,0.0,0.0,0.0,0.0,0.0,0.0,0.0,0.0,0.0,0.0,0.0,0.0,0.0,0.0,0.0,0.0,0.0,0.0,0.0,0.0,0.0,0.0,0.0,0.0,0.0,0.0,0.0,0.0,0.0,0.0,0.0,0.0,0.0,0.0,0.0,0.0,0.0,0.0,0.0,0.0,0.0,0.0,0.0,0.0,0.0,0.0,0.0,0.0,0.0,0.0,0.0,0.0,0.0,0.0,0.0,0.0,0.0,0.0,0.0,0.0,0.0,0.0,0.0,0.0,0.0,0.0,0.0,0.0,0.0,0.0,0.0,0.0,0.0,0.0,0.0,0.0,0.0,0.0,0.0,0.0,0.0,0.0,0.0,0.0,0.0,0.0,0.0,0.0,0.0,0.0,0.0,0.0,0.0,0.0,0.0,0.0,0.0,0.0,0.0,0.0,0.0,0.0,0.0,0.0,0.0,0.0,0.0,0.0,0.0,0.0,0.0,0.0,0.0,0.0,0.0,0.0,0.0,0.0,0.0,0.0,0.0,0.0,0.0,0.0,0.0,0.0,0.0,0.0,0.0,0.0,0.0,0.0,0.0,0.0,0.0,0.0,0.0,0.0,0.0,0.0,0.0,0.0,0.0,0.0,0.0,0.0,0.0,0.0,0.0,0.0,0.0,0.0,0.0,0.0,0.0,0.0,0.0,0.0,0.0,0.0,0.0,0.0,0.0,0.0,0.0,0.0,0.0,0.0,0.0,0.0,0.0,0.0,0.0,0.0,0.0,0.0,0.0,0.0,0.0,0.0,0.0,0.0,0.0,0.0,0.0,0.0,0.0,0.0,0.0,0.0,0.0,0.0,0.0,0.0,0.0,0.0,0.0,0.0,0.0,0.0,0.0,0.0,0.0,0.0,0.0,0.0,0.0,0.0,0.0,0.0,0.0,0.0,0.0,0.0,0.0,0.0,0.0,0.0,0.0,0.0,0.0,0.0,0.0,0.0,0.0,0.0,0.0,0.0,0.0,0.0,0.0,0.0,0.0,0.0,0.0,0.0,0.0,0.0,0.0,0.0,0.0,0.0,0.0,0.0,0.0,0.0,0.0,0.0,0.0,0.0,0.0,0.0,0.0,0.0,0.0,0.0,0.0,0.0,0.0,0.0,0.0,0.0,0.0,0.0,0.0,0.0,0.0,0.0,0.0,0.0,0.0,0.0,0.0,0.0,0.0,0.0,0.0,0.0,0.0,0.0,0.0,0.0,0.0,0.0,0.0,0.0,0.0,0.0,0.0,0.0,0.0,0.0,0.0,-0.0328,-0.0486,-0.0612,0.0,-0.0577,-0.0511,0.0,0.0,0.0,0.0,0.0,0.0,0.0,0.0,0.0,0.0,0.0,0.0,0.0,0.0,0.0,0.0,0.0,0.0,0.0,0.0,0.0,0.0,0.0,0.0,0.0,0.0,0.0,0.0,0.0,0.0,0.0,0.0,0.0,0.0,0.0,0.0,0.0,0.0,0.0,0.0,0.0,0.0,0.0,0.0,0.0,0.0,0.0,0.0,0.0,0.0,0.0,0.0,0.0,0.0,0.0,0.0,0.0,0.0,0.0,0.0,0.0,0.0,0.0,0.0,0.0,0.0,0.0,0.0,0.0,0.0,0.0,0.0,0.0,0.0,0.0,0.0,0.0,0.0,0.0,0.0,0.0,0.0,0.0,0.0,0.0,0.0,0.0,0.0,0.0,0.0,0.0,0.0,0.0,0.0,0.0,0.0,0.0,0.0,0.0,0.0,0.0,0.0,0.0,0.0,0.0,0.0,0.0,0.0,0.0,-0.0699,0.0,-0.1058,0.0,-0.0972,-0.0881,0.0,0.0,0.0,0.0,0.0,0.0,0.0,0.0,0.0,0.0,0.0,0.0,0.0,0.0,0.0,0.0,0.0,0.0,0.0,0.0,0.0,0.0,0.0,0.0,0.0,0.0,0.0,0.0,0.0,0.0,0.0,0.0,0.0,0.0,0.0,0.0,0.0,0.0,0.0,0.0,0.0,0.0,0.0,0.0,0.0,0.0,0.0,0.0,0.0,0.0,0.0,0.0,0.0,0.0,0.0,0.0,0.0,0.0,0.0,0.0,0.0,0.0,0.0,0.0,0.0,0.0,0.0,0.0,0.0,0.0,0.0,0.0,0.0,0.0,0.0,0.0,0.0,0.0,0.0,0.0,0.0,0.0,0.0,0.0,0.0,0.0,0.0,0.0,0.0,0.0,0.0,0.0,0.0,0.0,0.0,0.0,0.0,0.0,0.0,0.0,0.0,0.0,0.0,0.0,0.0,0.0,0.0,0.0,0.0,-0.111,-0.1255,-0.131,-0.1127,-0.1132,-0.1025,0.0,0.0,0.0,0.0,0.0,0.0,0.0,0.0,0.0,0.0,0.0,0.0,0.0,0.0,0.0,0.0,0.0,0.0,0.0,0.0,0.0,0.0,0.0,0.0,0.0,0.0,0.0,0.0,0.0,0.0,0.0,0.0,0.0,0.0,0.0,0.0,0.0,0.0,0.0,0.0,0.0,0.0,0.0,0.0,0.0,0.0,0.0,0.0,0.0,0.0,0.0,0.0,0.0,0.0,0.0,0.0,0.0,0.0,0.0,0.0,0.0,0.0,0.0,0.0,0.0,0.0,0.0,0.0,0.0,0.0,0.0,0.0,0.0,0.0,0.0,0.0,0.0,0.0,0.0,0.0,0.0,0.0,0.0,0.0,0.0,0.0,0.0,0.0,0.0,0.0,0.0,0.0,0.0,0.0,0.0,0.0,0.0,0.0,0.0,0.0,0.0,0.0,0.0,0.0,0.0,0.0,0.0,0.0,0.0,-0.1734,-0.1989,-0.2157,-0.2182,-0.1847,-0.1701,0.0,0.0,0.0,0.0,0.0,0.0,0.0,0.0,0.0,0.0,0.0,0.0,0.0,0.0,0.0,0.0,0.0,0.0,0.0,0.0,0.0,0.0,0.0,0.0,0.0,0.0,0.0,0.0,0.0,0.0,0.0,0.0,0.0,0.0,0.0,0.0,0.0,0.0,0.0,0.0,0.0,0.0,0.0,0.0,0.0,0.0,0.0,0.0,0.0,0.0,0.0,0.0,0.0,0.0,0.0,0.0,0.0,0.0,0.0,0.0,0.0,0.0,0.0,0.0,0.0,0.0,0.0,0.0,0.0,0.0,0.0,0.0,0.0,0.0,0.0,0.0,0.0,0.0,0.0,0.0,0.0,0.0,0.0,0.0,0.0,0.0,0.0,0.0,0.0,0.0,0.0,0.0,0.0,0.0,0.0,0.0,0.0,0.0,0.0,0.0,0.0,0.0,0.0,0.0,0.0,0.0,0.0,0.0,0.0,-0.2523,-0.2781,-0.2898,-0.2846,-0.2473,-0.2212,-0.2084,0.0,0.0,0.0,0.0,0.0,0.0,0.0,0.0,0.0,0.0,0.0,0.0,0.0,0.0,0.0,0.0,0.0,0.0,0.0,0.0,0.0,0.0,0.0,0.0,0.0,0.0,0.0,0.0,0.0,0.0,0.0,0.0,0.0,0.0,0.0,0.0,0.0,0.0,0.0,0.0,0.0,0.0,0.0,0.0,0.0,0.0,0.0,0.0,0.0,0.0,0.0,0.0,0.0,0.0,0.0,0.0,0.0,0.0,0.0,0.0,0.0,0.0,0.0,0.0,0.0,0.0,0.0,0.0,0.0,0.0,0.0,0.0,0.0,0.0,0.0,0.0,0.0,0.0,0.0,0.0,0.0,0.0,0.0,0.0,0.0,0.0,0.0,0.0,0.0,0.0,0.0,0.0,0.0,0.0,0.0,0.0,0.0,0.0,0.0,0.0,0.0,0.0,0.0,0.0,0.0,0.0,0.0,0.0,-0.3416,-0.3597,-0.3527,-0.3162,-0.2993,-0.26,0.0,0.0,0.0,0.0,0.0,0.0,0.0,0.0,0.0,0.0,0.0,0.0,0.0,0.0,0.0,0.0,0.0,0.0,0.0,0.0,0.0,0.0,0.0,0.0,0.0,0.0,0.0,0.0,0.0,0.0,0.0,0.0,0.0,0.0,0.0,0.0,0.0,0.0,0.0,0.0,0.0,0.0,0.0,0.0,0.0,0.0,0.0,0.0,0.0,0.0,0.0,0.0,0.0,0.0,0.0,0.0,0.0,0.0,0.0,0.0,0.0,0.0,0.0,0.0,0.0,0.0,0.0,0.0,0.0,0.0,0.0,0.0,0.0,0.0,0.0,0.0,0.0,0.0,0.0,0.0,0.0,0.0,0.0,0.0,0.0,0.0,0.0,0.0,0.0,0.0,0.0,0.0,0.0,0.0,0.0,0.0,0.0,0.0,0.0,0.0,0.0,0.0,0.0,0.0,0.0,0.0,0.0,0.0,0.0,-0.3713,-0.4498,-0.4621,-0.3944,-0.3336,-0.2926,0.0,0.0,0.0,0.0,0.0,0.0,0.0,0.0,0.0,0.0,0.0,0.0,0.0,0.0,0.0,0.0,0.0,0.0,0.0,0.0,0.0,0.0,0.0,0.0,0.0,0.0,0.0,0.0,0.0,0.0,0.0,0.0,0.0,0.0,0.0,0.0,0.0,0.0,0.0,0.0,0.0,0.0,0.0,0.0,0.0,0.0,0.0,0.0,0.0,0.0,0.0,0.0,0.0,0.0,0.0,0.0,0.0,0.0,0.0,0.0,0.0,0.0,0.0,0.0,0.0,0.0,0.0,0.0,0.0,0.0,0.0,0.0,0.0,0.0,0.0,0.0,0.0,0.0,0.0,0.0,0.0,0.0,0.0,0.0,0.0,0.0,0.0,0.0,0.0,0.0,0.0,0.0,0.0,0.0,0.0,0.0,0.0,0.0,0.0,0.0,0.0,0.0,0.0,0.0,0.0,0.0,0.0,0.0,-0.3718,-0.4168,-0.5131,-0.5403,-0.4881,-0.4028,-0.3354,0.0,0.0,0.0,0.0,0.0,0.0,0.0,0.0,0.0,0.0,0.0,0.0,0.0,0.0,0.0,0.0,0.0,0.0,0.0,0.0,0.0,0.0,0.0,0.0,0.0,0.0,0.0,0.0,0.0,0.0,0.0,0.0,0.0,0.0,0.0,0.0,0.0,0.0,0.0,0.0,0.0,0.0,0.0,0.0,0.0,0.0,0.0,0.0,0.0,0.0,0.0,0.0,0.0,0.0,0.0,0.0,0.0,0.0,0.0,0.0,0.0,0.0,0.0,0.0,0.0,0.0,0.0,0.0,0.0,0.0,0.0,0.0,0.0,0.0,0.0,0.0,0.0,0.0,0.0,0.0,0.0,0.0,0.0,0.0,0.0,0.0,0.0,0.0,0.0,0.0,0.0,0.0,0.0,0.0,0.0,0.0,0.0,0.0,0.0,0.0,0.0,0.0,0.0,0.0,0.0,0.0,0.0,0.0,-0.4124,-0.4707,-0.5558,-0.5942,-0.58,-0.4786,-0.3842,0.0,0.0,0.0,0.0,0.0,0.0,0.0,0.0,0.0,0.0,0.0,0.0,0.0,0.0,0.0,0.0,0.0,0.0,0.0,0.0,0.0,0.0,0.0,0.0,0.0,0.0,0.0,0.0,0.0,0.0,0.0,0.0,0.0,0.0,0.0,0.0,0.0,0.0,0.0,0.0,0.0,0.0,0.0,0.0,0.0,0.0,0.0,0.0,0.0,0.0,0.0,0.0,0.0,0.0,0.0,0.0,0.0,0.0,0.0,0.0,0.0,0.0,0.0,0.0,0.0,0.0,0.0,0.0,0.0,0.0,0.0,0.0,0.0,0.0,0.0,0.0,0.0,0.0,0.0,0.0,0.0,0.0,0.0,0.0,0.0,0.0,0.0,0.0,0.0,0.0,0.0,0.0,0.0,0.0,0.0,0.0,0.0,0.0,0.0,0.0,0.0,0.0,0.0,0.0,0.0,0.0,0.0,0.0,-0.4358,-0.487,-0.5749,-0.6139,-0.5946,-0.4965,-0.4111,0.0,0.0,0.0,0.0,0.0,0.0,0.0,0.0,0.0,0.0,0.0,0.0,0.0,0.0,0.0,0.0,0.0,0.0,0.0,0.0,0.0,0.0,0.0,0.0,0.0,0.0,0.0,0.0,0.0,0.0,0.0,0.0,0.0,0.0,0.0,0.0,0.0,0.0,0.0,0.0,0.0,0.0,0.0,0.0,0.0,0.0,0.0,0.0,-0.167,0.0,0.0,0.0,0.0,0.0,0.0,0.0,0.0,0.0,0.0,0.0,0.0,0.0,0.0,0.0,0.0,0.0,0.0,0.0,0.0,0.0,0.0,0.0,0.0,0.0,0.0,0.0,0.0,0.0,0.0,0.0,0.0,0.0,0.0,0.0,0.0,0.0,0.0,0.0,0.0,0.0,0.0,0.0,0.0,0.0,0.0,0.0,0.0,0.0,0.0,0.0,0.0,0.0,0.0,0.0,0.0,0.0,0.0,0.0,-0.4602,-0.5128,-0.5907,-0.6262,-0.6112,-0.5254,-0.4457,0.0,0.0,0.0,0.0,0.0,0.0,0.0,0.0,0.0,0.0,0.0,0.0,0.0,0.0,0.0,0.0,0.0,0.0,0.0,0.0,0.0,0.0,0.0,0.0,0.0,0.0,0.0,0.0,0.0,0.0,0.0,0.0,0.0,0.0,0.0,0.0,0.0,0.0,0.0,0.0,0.0,0.0,0.0,0.0,0.0,0.0,0.0,0.0,0.0,0.0,0.0,0.0,0.0,0.0,0.0,0.0,0.0,0.0,0.0,0.0,0.0,0.0,0.0,0.0,0.0,0.0,0.0,0.0,0.0,0.0,0.0,0.0,0.0,0.0,0.0,0.0,0.0,0.0,0.0,0.0,0.0,0.0,0.0,0.0,0.0,0.0,0.0,0.0,0.0,0.0,0.0,0.0,0.0,0.0,0.0,0.0,0.0,0.0,0.0,0.0,0.0,0.0,0.0,0.0,0.0,0.0,0.0,-0.4058,-0.4784,-0.5446,-0.6013,-0.63,-0.6289,-0.5528,-0.4692,-0.388,0.0,0.0,0.0,0.0,0.0,0.0,0.0,0.0,0.0,0.0,0.0,0.0,0.0,0.0,0.0,0.0,0.0,0.0,0.0,0.0,0.0,0.0,0.0,0.0,0.0,0.0,0.0,0.0,0.0,0.0,0.0,0.0,0.0,0.0,0.0,0.0,0.0,0.0,-0.1722,-0.1906,0.0,0.0,0.0,0.0,0.0,0.0,0.0,0.0,-0.2383,0.0,0.0,0.0,0.0,0.0,0.0,0.0,0.0,0.0,0.0,0.0,0.0,0.0,0.0,0.0,0.0,0.0,0.0,0.0,0.0,0.0,0.0,0.0,0.0,0.0,0.0,0.0,0.0,0.0,0.0,0.0,0.0,0.0,0.0,0.0,0.0,0.0,0.0,0.0,0.0,0.0,0.0,0.0,0.0,0.0,0.0,0.0,0.0,0.0,0.0,0.0,0.0,0.0,0.0,0.0,0.0,-0.3832,-0.4119,-0.4726,-0.5705,-0.6115,-0.63,-0.6279,-0.5494,-0.4739,-0.3984,0.0,0.0,0.0,0.0,0.0,0.0,0.0,0.0,0.0,0.0,0.0,0.0,0.0,0.0,0.0,0.0,0.0,0.0,0.0,0.0,0.0,0.0,0.0,0.0,0.0,0.0,0.0,0.0,0.0,0.0,0.0,0.0,0.0,0.0,0.0,0.0,0.0,0.0,0.0,-0.2476,-0.2595,0.0,0.0,0.0,0.0,0.0,0.0,0.0,0.0,-0.271,0.0,0.0,0.0,0.0,0.0,0.0,0.0,0.0,0.0,0.0,0.0,0.0,0.0,0.0,0.0,0.0,0.0,0.0,0.0,0.0,0.0,0.0,0.0,0.0,0.0,0.0,0.0,0.0,0.0,0.0,0.0,0.0,0.0,0.0,0.0,0.0,0.0,0.0,0.0,0.0,0.0,0.0,0.0,0.0,0.0,0.0,0.0,0.0,0.0,0.0,0.0,0.0,0.0,0.0,0.0,-0.3778,-0.4473,-0.5142,-0.5783,-0.6139,-0.63,-0.6279,-0.5412,-0.4597,0.0,0.0,0.0,0.0,0.0,0.0,0.0,0.0,0.0,0.0,0.0,0.0,0.0,0.0,0.0,0.0,0.0,0.0,0.0,0.0,0.0,0.0,0.0,0.0,0.0,0.0,0.0,0.0,0.0,0.0,0.0,0.0,0.0,0.0,0.0,0.0,0.0,0.0,0.0,0.0,-0.2771,-0.291,-0.3235,0.0,0.0,0.0,0.0,0.0,0.0,-0.3103,-0.3,0.0,0.0,0.0,0.0,0.0,0.0,0.0,0.0,0.0,0.0,0.0,0.0,0.0,0.0,0.0,0.0,0.0,0.0,0.0,0.0,0.0,0.0,0.0,0.0,0.0,0.0,0.0,0.0,0.0,0.0,0.0,0.0,0.0,0.0,0.0,0.0,0.0,0.0,0.0,0.0,0.0,0.0,0.0,0.0,0.0,0.0,0.0,0.0,0.0,0.0,0.0,0.0,0.0,0.0,0.0,-0.3624,-0.4723,-0.5443,-0.5793,-0.6139,-0.6286,-0.6235,-0.5286,-0.4497,0.0,0.0,0.0,0.0,0.0,0.0,0.0,0.0,0.0,0.0,0.0,0.0,0.0,0.0,0.0,0.0,0.0,0.0,0.0,0.0,0.0,0.0,0.0,0.0,0.0,0.0,0.0,0.0,0.0,0.0,0.0,0.0,0.0,0.0,0.0,0.0,0.0,0.0,0.0,0.0,0.0,-0.3297,-0.3727,-0.3409,0.0,0.0,0.0,0.0,-0.3535,-0.3503,0.0,0.0,0.0,0.0,0.0,0.0,0.0,0.0,0.0,0.0,0.0,0.0,0.0,0.0,0.0,0.0,0.0,0.0,0.0,0.0,0.0,0.0,0.0,0.0,0.0,0.0,0.0,0.0,0.0,0.0,0.0,0.0,0.0,0.0,0.0,0.0,0.0,0.0,0.0,0.0,0.0,0.0,0.0,0.0,0.0,0.0,0.0,0.0,0.0,0.0,0.0,0.0,0.0,0.0,0.0,0.0,-0.361,-0.4494,-0.5243,-0.5779,-0.6143,-0.6235,-0.6013,-0.5301,-0.4555,0.0,0.0,0.0,0.0,0.0,0.0,0.0,0.0,0.0,0.0,0.0,0.0,0.0,0.0,0.0,0.0,0.0,0.0,0.0,0.0,0.0,0.0,0.0,0.0,0.0,0.0,0.0,0.0,0.0,0.0,0.0,0.0,0.0,0.0,0.0,0.0,0.0,0.0,0.0,0.0,0.0,-0.3842,-0.3802,-0.3734,-0.372,0.0,0.0,0.0,-0.409,-0.4436,0.0,0.0,0.0,0.0,0.0,0.0,0.0,0.0,0.0,0.0,0.0,0.0,0.0,0.0,0.0,0.0,0.0,0.0,0.0,0.0,0.0,0.0,0.0,0.0,0.0,0.0,0.0,0.0,0.0,0.0,0.0,0.0,0.0,0.0,0.0,0.0,0.0,0.0,0.0,0.0,0.0,0.0,0.0,0.0,0.0,0.0,0.0,0.0,0.0,0.0,0.0,0.0,0.0,0.0,0.0,-0.3341,-0.3634,-0.4792,-0.5511,-0.5796,-0.6143,-0.619,-0.5993,-0.5029,-0.4277,0.0,0.0,0.0,0.0,0.0,0.0,0.0,0.0,0.0,0.0,0.0,0.0,0.0,0.0,0.0,0.0,0.0,0.0,0.0,0.0,0.0,0.0,0.0,0.0,0.0,0.0,0.0,0.0,0.0,0.0,0.0,0.0,0.0,0.0,0.0,0.0,0.0,0.0,0.0,0.0,0.0,0.0,-0.494,-0.4467,0.0,0.0,0.0,-0.4442,-0.4382,0.0,0.0,0.0,0.0,0.0,0.0,0.0,0.0,0.0,0.0,0.0,0.0,0.0,0.0,0.0,0.0,0.0,0.0,0.0,0.0,0.0,0.0,0.0,0.0,0.0,0.0,0.0,0.0,0.0,0.0,0.0,0.0,0.0,0.0,0.0,0.0,0.0,0.0,0.0,0.0,0.0,0.0,0.0,0.0,0.0,0.0,0.0,0.0,0.0,0.0,0.0,0.0,0.0,0.0,0.0,0.0,0.0,-0.3628,-0.5047,-0.58,-0.581,-0.6139,-0.6169,-0.5962,-0.4931,0.0,0.0,0.0,0.0,0.0,0.0,0.0,0.0,0.0,0.0,0.0,0.0,0.0,0.0,0.0,0.0,0.0,0.0,0.0,0.0,0.0,0.0,0.0,0.0,0.0,0.0,0.0,-0.118,0.0,0.0,0.0,0.0,0.0,0.0,0.0,0.0,0.0,0.0,0.0,0.0,0.0,0.0,-0.4583,-0.5713,-0.512,-0.4829,0.0,0.0,-0.4809,-0.4729,-0.5009,-0.495,0.0,0.0,0.0,0.0,0.0,0.0,0.0,0.0,0.0,0.0,0.0,0.0,0.0,0.0,0.0,0.0,0.0,0.0,0.0,0.0,0.0,0.0,0.0,0.0,0.0,0.0,0.0,0.0,0.0,0.0,0.0,0.0,0.0,0.0,0.0,0.0,0.0,0.0,0.0,0.0,0.0,0.0,0.0,0.0,0.0,0.0,0.0,0.0,0.0,0.0,0.0,0.0,0.0,0.0,0.0,-0.3651,-0.5043,-0.5803,-0.581,-0.6101,-0.6156,-0.582,-0.5332,-0.4574,0.0,0.0,0.0,0.0,0.0,0.0,0.0,0.0,0.0,0.0,0.0,0.0,0.0,0.0,0.0,0.0,0.0,0.0,0.0,0.0,0.0,0.0,0.0,0.0,0.0,0.0,0.0,0.0,0.0,0.0,0.0,0.0,0.0,0.0,0.0,0.0,0.0,0.0,0.0,0.0,0.0,-0.5261,-0.5512,-0.557,-0.5714,0.0,0.0,-0.5186,-0.5321,-0.5727,-0.58,-0.5203,0.0,0.0,0.0,0.0,0.0,0.0,0.0,0.0,0.0,0.0,0.0,0.0,0.0,0.0,0.0,0.0,0.0,0.0,0.0,0.0,0.0,0.0,0.0,0.0,0.0,0.0,0.0,0.0,0.0,0.0,0.0,0.0,0.0,0.0,0.0,0.0,0.0,0.0,0.0,0.0,0.0,0.0,0.0,0.0,0.0,0.0,0.0,0.0,0.0,0.0,0.0,0.0,0.0,-0.3648,-0.375,-0.5087,-0.5844,-0.5945,-0.6187,-0.6153,-0.5806,-0.5281,-0.4596,0.0,0.0,0.0,0.0,0.0,0.0,0.0,0.0,0.0,0.0,0.0,0.0,0.0,0.0,0.0,0.0,0.0,0.0,0.0,0.0,0.0,0.0,0.0,0.0,0.0,0.0,0.0,0.0,-0.2494,-0.2562,-0.2406,0.0,0.0,0.0,0.0,0.0,0.0,0.0,0.0,0.0,0.0,-0.5312,-0.6663,-0.6355,0.0,0.0,-0.6678,-0.6538,-0.6467,-0.6347,-0.6041,-0.5263,-0.4828,0.0,0.0,0.0,0.0,0.0,0.0,0.0,0.0,0.0,0.0,0.0,0.0,0.0,0.0,0.0,0.0,0.0,0.0,0.0,0.0,0.0,0.0,0.0,0.0,0.0,0.0,0.0,0.0,0.0,0.0,0.0,0.0,0.0,0.0,0.0,0.0,0.0,0.0,0.0,0.0,0.0,0.0,0.0,0.0,0.0,0.0,0.0,0.0,0.0,0.0,0.0,0.0,-0.3694,-0.3886,-0.5146,-0.5874,-0.6027,-0.6218,-0.6149,-0.5806,-0.5359,-0.4765,0.0,0.0,0.0,0.0,0.0,0.0,0.0,0.0,0.0,0.0,0.0,0.0,0.0,0.0,0.0,0.0,0.0,0.0,0.0,0.0,0.0,0.0,0.0,0.0,0.0,0.0,0.0,0.0,-0.269,-0.2723,-0.2522,0.0,0.0,0.0,0.0,0.0,0.0,0.0,0.0,0.0,0.0,-0.5466,-0.717,-0.6838,-0.6617,-0.7261,-0.724,-0.7149,-0.7073,-0.6617,-0.6108,-0.5588,0.0,0.0,0.0,0.0,0.0,0.0,0.0,0.0,0.0,0.0,0.0,0.0,0.0,0.0,0.0,0.0,0.0,0.0,0.0,0.0,0.0,0.0,0.0,0.0,0.0,0.0,0.0,0.0,0.0,0.0,0.0,0.0,0.0,0.0,0.0,0.0,0.0,0.0,0.0,0.0,0.0,0.0,0.0,0.0,0.0,0.0,0.0,0.0,0.0,0.0,0.0,0.0,0.0,0.0,-0.4131,-0.5248,-0.5878,-0.603,-0.6179,-0.6153,-0.5813,-0.565,-0.5248,-0.4484,0.0,0.0,0.0,0.0,0.0,0.0,0.0,0.0,0.0,0.0,0.0,0.0,0.0,0.0,0.0,0.0,0.0,0.0,0.0,0.0,0.0,0.0,0.0,0.0,0.0,0.0,-0.1912,-0.2249,-0.2508,0.0,0.0,0.0,0.0,0.0,0.0,0.0,0.0,0.0,0.0,-0.4985,-0.5947,-0.671,-0.6807,-0.7011,-0.7579,-0.7158,-0.6793,-0.6947,-0.6422,-0.6113,0.0,0.0,0.0,0.0,0.0,0.0,0.0,0.0,0.0,0.0,0.0,0.0,0.0,0.0,0.0,0.0,0.0,0.0,0.0,0.0,0.0,0.0,0.0,0.0,0.0,0.0,0.0,-0.1453,-0.1366,0.0,0.0,0.0,0.0,0.0,0.0,0.0,0.0,0.0,0.0,0.0,-0.3927,-0.4097,0.0,0.0,0.0,0.0,0.0,0.0,0.0,0.0,0.0,0.0,0.0,0.0,-0.4525,-0.5035,-0.6025,-0.6689,-0.6965,-0.6538,-0.6115,-0.581,-0.5664,-0.5189,-0.4321,0.0,0.0,0.0,0.0,0.0,0.0,0.0,0.0,0.0,0.0,0.0,0.0,0.0,0.0,0.0,0.0,0.0,0.0,0.0,0.0,0.0,0.0,0.0,0.0,0.0,-0.2439,0.0,0.0,0.0,0.0,0.0,0.0,0.0,0.0,0.0,0.0,0.0,-0.4189,-0.5547,-0.5321,-0.5465,-0.6621,-0.6946,-0.7202,0.0,0.0,0.0,0.0,0.0,0.0,0.0,0.0,0.0,0.0,0.0,0.0,0.0,0.0,-0.6069,-0.5241,-0.5474,-0.5787,-0.5787,0.0,0.0,0.0,0.0,0.0,0.0,0.0,0.0,0.0,0.0,0.0,0.0,0.0,0.0,0.0,0.0,-0.2214,0.0,0.0,0.0,0.0,0.0,0.0,0.0,0.0,-0.4267,-0.4619,-0.4692,-0.4857,-0.485,0.0,-0.4577,-0.4001,0.0,0.0,0.0,0.0,0.0,0.0,0.0,0.0,-0.469,-0.5251,-0.6137,-0.6741,-0.7046,-0.6563,-0.6177,-0.5888,-0.5691,-0.5264,-0.4522,-0.4051,-0.3605,0.0,0.0,0.0,0.0,0.0,0.0,0.0,0.0,0.0,0.0,0.0,0.0,0.0,0.0,0.0,0.0,0.0,0.0,0.0,0.0,0.0,0.0,0.0,-0.256,0.0,0.0,0.0,0.0,0.0,0.0,0.0,0.0,0.0,-0.4163,-0.4409,-0.4957,-0.6049,-0.5612,-0.5635,-0.675,0.0,0.0,0.0,0.0,0.0,0.0,0.0,-0.7777,-0.7643,-0.7754,-0.8059,-0.8606,-0.9017,-0.9167,-0.889,0.0,0.0,-0.6979,-0.7067,-0.7383,-0.7389,-0.7857,-0.8207,-0.8017,-0.8369,-0.8686,0.0,0.0,0.0,0.0,0.0,0.0,0.0,0.0,-0.3816,-0.3883,0.0,-0.3587,0.0,0.0,0.0,0.0,0.0,0.0,0.0,0.0,-0.5504,-0.5867,-0.5603,-0.5491,-0.5501,-0.5586,-0.5275,-0.4935,-0.4515,-0.4095,0.0,0.0,0.0,0.0,0.0,0.0,-0.4337,-0.4905,-0.5675,-0.6143,-0.637,-0.63,-0.6183,-0.5979,-0.5742,-0.5443,-0.51,-0.4544,-0.4163,-0.3991,-0.2884,0.0,0.0,0.0,0.0,0.0,0.0,0.0,0.0,0.0,0.0,0.0,0.0,0.0,0.0,0.0,0.0,0.0,0.0,0.0,0.0,-0.2608,0.0,0.0,0.0,0.0,0.0,0.0,0.0,0.0,0.0,0.0,-0.4754,-0.522,-0.5546,-0.5458,0.0,0.0,0.0,0.0,-0.7671,-0.8585,-0.8741,-0.88,-0.8812,-0.8774,-0.8783,-0.8892,0.0,0.0,-1.0653,-1.0503,-1.0298,-1.0027,-1.0551,-1.0446,-0.8351,-0.8244,-0.8456,-0.8445,-0.8867,-0.9142,-0.9179,-0.9382,-0.955,-0.5003,0.0,0.0,0.0,0.0,-0.3991,-0.4196,-0.4589,-0.448,-0.4395,-0.4354,-0.4228,0.0,0.0,0.0,0.0,0.0,0.0,-0.4723,-0.5146,-0.5528,-0.5837,-0.6102,-0.6061,-0.6064,-0.6102,-0.5979,-0.5759,-0.5426,-0.5366,-0.4579,-0.3007,0.0,0.0,0.0,0.0,-0.5402,-0.6068,-0.655,-0.6922,-0.7138,-0.6606,-0.6173,-0.5871,-0.5688,-0.5498,-0.5334,-0.4928,-0.4527,-0.4166,-0.3649,0.0,0.0,0.0,0.0,0.0,0.0,0.0,0.0,0.0,0.0,0.0,0.0,0.0,0.0,0.0,0.0,0.0,0.0,0.0,-0.2706,-0.2948,-0.3052,0.0,0.0,0.0,0.0,0.0,0.0,0.0,0.0,0.0,-0.533,-0.5213,-0.5317,0.0,0.0,-0.6256,-0.681,-0.7866,-0.8759,-0.9192,0.0,0.0,0.0,-1.0105,-0.9849,-0.9891,-1.0589,-1.1132,-1.1008,-1.1369,-1.1621,-1.1357,-1.1534,-1.1424,-1.0822,-1.0568,-1.0514,-1.0355,-1.0438,-1.0509,-1.055,-1.0616,-1.0623,-0.5976,-0.5147,-0.4738,-0.4685,-0.4842,-0.4792,-0.4972,-0.5319,-0.5228,-0.5235,-0.5194,-0.5016,-0.4805,-0.4541,-0.4365,0.0,0.0,0.0,-0.5235,-0.576,-0.5849,-0.6037,-0.6289,-0.63,-0.63,-0.63,-0.63,-0.6204,-0.5983,-0.5952,-0.5291,-0.405,0.0,0.0,-0.3873,-0.4921,-0.5709,-0.6179,-0.6575,-0.6844,-0.7022,-0.657,-0.6153,-0.5813,-0.5715,-0.5576,-0.5402,-0.5077,-0.4766,-0.4493,-0.4024,-0.3525,0.0,0.0,0.0,0.0,0.0,0.0,0.0,0.0,0.0,0.0,0.0,-0.2012,0.0,0.0,0.0,0.0,-0.2709,-0.3276,-0.3215,-0.3423,0.0,0.0,0.0,0.0,0.0,0.0,0.0,-0.4324,-0.4942,-0.545,-0.5631,-0.5556,-0.5809,-0.6758,-0.6928,-0.7267,-0.7994,0.0,-0.9683,-1.0086,-1.055,-1.093,-1.1081,-1.1027,-1.099,-1.1206,-1.1615,-1.1932,-1.1799,-1.2161,-1.2397,-1.2276,-1.2234,-1.2168,-1.1962,-1.1878,-1.1694,-1.1407,-1.1389,-1.1431,-1.1393,-1.1437,-1.1393,-0.677,-0.6689,-0.5866,-0.5504,-0.5498,-0.5589,-0.5796,-0.6044,-0.6006,-0.6129,-0.6265,-0.5863,-0.56,-0.5443,-0.4999,0.0,0.0,-0.5579,-0.5861,-0.6296,-0.63,-0.63,-0.63,-0.63,-0.63,-0.63,-0.63,-0.63,-0.6282,-0.6016,-0.5688,-0.5433,-0.5286,-0.5085,-0.4836,-0.5202,-0.5507,-0.571,-0.605,-0.6272,-0.63,-0.63,-0.6153,-0.581,-0.5793,-0.565,-0.5405,-0.5077,-0.4925,-0.4884,-0.425,-0.4046,-0.4419,0.0,0.0,0.0,0.0,0.0,0.0,0.0,0.0,0.0,0.0,0.0,0.0,0.0,0.0,0.0,-0.3454,0.0,-0.4089,-0.3965,0.0,0.0,0.0,-0.4131,-0.4718,-0.504,-0.5189,-0.515,0.0,0.0,0.0,0.0,-0.682,-0.7946,-0.8321,-0.8856,-1.0003,-1.0241,-1.0584,-1.1153,-1.1292,-1.1317,-1.1437,-1.1703,-1.2071,-1.2475,-1.2705,-1.2656,-1.2638,-1.2662,-1.2699,-1.2668,-1.2699,-1.262,-1.2385,-1.2324,-1.2228,-1.1875,-1.183,-1.1868,-1.1844,-1.1838,-1.1872,-0.7235,-0.7151,-0.6726,-0.642,-0.6238,-0.6166,-0.618,-0.6242,-0.6245,-0.6265,-0.6293,-0.6187,-0.6119,-0.6078,-0.5972,-0.5986,-0.6085,-0.6122,-0.6197,-0.6296,-0.63,-0.63,-0.63,-0.63,-0.63,-0.63,-0.63,-0.63,-0.6296,-0.6228,-0.5996,-0.5743,-0.6111,-0.6073,-0.5573,-0.5442,-0.5759,-0.6419,-0.6107,-0.6023,-0.6289,-0.63,-0.6149,-0.581,-0.5698,-0.5552,-0.5402,-0.5074,-0.4969,-0.5032,-0.4694,-0.4501,-0.4477,-0.348,0.0,0.0,0.0,0.0,0.0,0.0,0.0,0.0,0.0,-0.2846,-0.224,0.0,-0.2609,0.0,-0.3458,-0.4556,-0.4691,-0.4645,0.0,0.0,-0.4823,-0.4972,-0.5484,-0.5806,-0.5907,-0.5586,-0.6088,-0.6903,-0.7994,-0.7397,-0.7675,-0.9629,-0.875,-0.8559,-1.0381,-1.0898,-1.1304,-1.2147,-1.2632,-1.2892,-1.2668,-1.2554,-1.2554,-1.2681,-1.2705,-1.2705,-1.2705,-1.2705,-1.2705,-1.2705,-1.2705,-1.2674,-1.2614,-1.2614,-1.2578,-1.2451,-1.218,-1.1886,-1.1886,-1.1892,-1.1892,-0.7483,-0.7437,-0.7125,-0.6848,-0.6607,-0.6491,-0.6457,-0.6402,-0.6467,-0.6454,-0.6497,-0.6454,-0.6497,-0.6454,-0.6454,-0.6494,-0.6458,-0.6494,-0.6497,-0.6494,-0.6386,-0.6395,-0.6392,-0.633,-0.63,-0.63,-0.63,-0.63,-0.63,-0.63,-0.6173,-0.6044,-0.6374,-0.6407,-0.6204,-0.5899,-0.6011,-0.6459,-0.6365,-0.6496,-0.6819,-0.6834,-0.6607,-0.6175,-0.58,-0.5426,-0.5006,-0.4832,-0.4691,-0.4604,-0.4416,-0.4371,-0.4467,-0.3612,-0.2825,0.0,0.0,0.0,0.0,0.0,0.0,0.0,0.0,0.0,0.0,0.0,-0.3414,0.0,-0.4446,0.0,-0.5009,-0.5192,-0.5399,-0.561,-0.5633,-0.5813,-0.6254,-0.6508,-0.66,-0.6471,-0.6834,-0.7401,-0.8246,-0.7804,-0.8044,-0.9814,-0.9188,-0.923,-1.1004,-1.1838,-1.244,-1.2991,-1.332,-1.3435,-1.3185,-1.3025,-1.2843,-1.2729,-1.2705,-1.2705,-1.2705,-1.2705,-1.2705,-1.2705,-1.2705,-1.2705,-1.2705,-1.2705,-1.2705,-1.2668,-1.2475,-1.2294,-1.227,-1.2264,-1.2264,-0.7834,-0.7647,-0.7319,-0.6987,-0.6756,-0.6756,-0.6614,-0.6436,-0.6525,-0.6607,-0.6644,-0.6681,-0.6702,-0.6702,-0.6702,-0.6702,-0.6702,-0.6702,-0.6702,-0.6692,-0.6563,-0.6498,-0.6535,-0.6416,-0.6344,-0.6327,-0.6327,-0.6317,-0.63,-0.63,-0.6279,-0.6242,-0.6318,-0.6417,-0.6628,-0.6364,-0.6148,-0.6115,-0.6614,-0.6977,-0.7251,-0.7253,-0.6961,-0.642,-0.5822,-0.5197,-0.4556,-0.4529,-0.4382,-0.4121,-0.3982,-0.4081,-0.4395,-0.3659,-0.3138,0.0,-0.2894,0.0,0.0,0.0,0.0,0.0,0.0,0.0,0.0,-0.4163,-0.42,-0.4402,-0.582,-0.6325,-0.5383,-0.5684,-0.6034,-0.6347,-0.6385,-0.6515,-0.6929,-0.7051,-0.7203,-0.7409,-0.7567,-0.7709,-0.8082,-0.7911,-0.8222,-0.9284,-0.97,-1.0263,-1.1548,-1.2625,-1.329,-1.3525,-1.3616,-1.3592,-1.3344,-1.3242,-1.3115,-1.285,-1.2777,-1.2741,-1.2711,-1.2705,-1.2705,-1.2705,-1.2705,-1.2705,-1.2705,-1.2705,-1.2705,-1.2705,-1.2674,-1.2662,-1.2662,-1.2656,-1.2705,-0.9187,-0.8055,-0.7684,-0.7339,-0.7014,-0.7011,-0.6583,-0.5928,-0.5956,-0.6112,-0.6399,-0.6593,-0.6702,-0.6702,-0.6702,-0.6702,-0.6702,-0.6702,-0.6702,-0.6698,-0.6668,-0.6658,-0.6654,-0.663,-0.6593,-0.6477,-0.6474,-0.6412,-0.63,-0.63,-0.6173,-0.5895,-0.6393,-0.6518,-0.6291,0.0,0.0,0.0,-0.5856,-0.6079,-0.6125,-0.5895,-0.5651,-0.5368,-0.5061,0.0,-0.4682,-0.4584,-0.4525,-0.4558,-0.4538,0.0,0.0,0.0,0.0,0.0,0.0,0.0,0.0,0.0,0.0,0.0,-0.4467,-0.4433,-0.4453,-0.4619,-0.4931,-0.5471,-0.6237,-0.6624,-0.6427,-0.6474,-0.66,-0.6776,-0.68,-0.6932,-0.7244,-0.7357,-0.7421,-0.7604,-0.7733,-0.8256,-0.9262,-0.8723,-0.8382,-0.9355,-1.032,-1.0947,-1.1303,-1.2283,-1.3171,-1.3957,-1.4105,-1.4039,-1.3803,-1.3682,-1.3501,-1.3163,-1.3049,-1.2964,-1.2783,-1.2717,-1.2705,-1.2711,-1.2705,-1.2705,-1.2705,-1.2705,-1.2705,-1.2705,-1.2705,-1.2705,-1.2705,-1.2705,-1.2705,-0.917,0.0,-0.8199,-0.777,0.0,-0.7196,-0.6774,-0.6047,-0.6339,-0.6552,-0.6705,-0.6854,-0.6876,-0.6866,-0.6766,-0.6702,-0.6692,-0.6549,-0.6563,-0.6695,-0.6624,-0.6668,-0.681,-0.6736,-0.6661,-0.6586,-0.6583,-0.6546,-0.6474,-0.6443,-0.6327,-0.6132,-0.6398,-0.643,-0.6273,-0.6269,-0.6047,-0.5617,-0.611,-0.6483,-0.6641,-0.6495,-0.6282,-0.5925,0.0,0.0,0.0,0.0,0.0,0.0,0.0,0.0,0.0,0.0,0.0,-0.5087,-0.4643,-0.4446,-0.4667,-0.4823,-0.5009,-0.5328,-0.5423,-0.5338,-0.5074,-0.5362,-0.5735,-0.6143,-0.6614,-0.6888,-0.6824,-0.6832,-0.6906,-0.6984,-0.7102,-0.7214,-0.7356,-0.7502,-0.7634,-0.7705,-0.7862,-0.8248,-0.8962,-0.8485,-0.8237,-0.8825,-1.0194,-1.1219,-1.137,-1.2533,-1.3709,-1.425,-1.4298,-1.4195,-1.3978,-1.3996,-1.3863,-1.3453,-1.3314,-1.326,-1.3127,-1.2994,-1.2873,-1.2898,-1.2807,-1.2705,-1.2705,-1.2705,-1.2705,-1.2705,-1.2705,-1.2705,-1.2705,-1.2705,-1.2705,-0.9019,-0.8757,-0.8657,-0.8218,-0.7613,-0.7472,-0.7031,-0.6447,0.0,0.0,0.0,-0.7075,-0.7095,-0.7078,-0.6885,-0.6776,-0.6759,-0.6566,-0.6546,-0.6766,-0.6647,-0.6725,-0.6913,-0.6837,-0.6766,-0.6739,-0.6739,-0.6725,-0.6695,-0.6573,-0.6512,-0.6538,-0.6409,-0.6323,-0.63,-0.63,-0.6173,-0.5931,-0.6471,-0.6937,-0.7185,-0.7138,-0.6941,-0.6575,-0.5978,-0.5454,-0.4951,-0.5067,-0.4988,-0.4782,-0.4792,-0.4798,-0.4713,-0.4815,-0.5081,-0.5501,-0.5264,-0.5233,-0.5535,-0.5672,-0.5813,-0.6057,-0.6248,-0.618,-0.5769,-0.6098,-0.6381,-0.6576,-0.6912,-0.7048,-0.6937,-0.7024,-0.7109,-0.7136,-0.7295,-0.7429,-0.7458,-0.7655,-0.7811,-0.7858,-0.7911,-0.7988,-0.8038,-0.8038,-0.7988,-0.8283,-0.9899,-1.1414,-1.1853,-1.3221,-1.4202,-1.4298,-1.4298,-1.422,-1.4069,-1.4135,-1.4099,-1.367,-1.3586,-1.3568,-1.3495,-1.3338,-1.3161,-1.3149,-1.2964,-1.2819,-1.2783,-1.2747,-1.2705,-1.2705,-1.2705,-1.2705,-1.2705,-1.2705,-1.2705,-0.9854,-0.881,-0.8657,-0.8409,-0.8087,-0.7837,-0.7419,-0.7007,-0.6837,-0.6763,-0.678,-0.6987,-0.7095,-0.7095,-0.7051,-0.7034,-0.7031,-0.6991,-0.6994,0.0,-0.7058,-0.7024,-0.7065,-0.7045,-0.697,-0.6902,-0.6856,-0.6827,-0.6709,-0.6681,-0.6668,-0.6651,-0.6559,-0.6422,-0.6306,-0.63,-0.6279,-0.6228,-0.6079,-0.6,-0.6042,-0.5825,-0.5663,-0.5593,-0.536,-0.516,-0.5076,-0.51,-0.5079,-0.5042,-0.5196,-0.5368,-0.5515,-0.5501,-0.5664,-0.6119,-0.5969,-0.5952,-0.6156,-0.6194,-0.6221,-0.6269,-0.6402,-0.6453,-0.6395,-0.633,-0.6467,-0.6817,-0.6984,-0.7092,-0.7068,-0.7085,-0.7152,-0.7316,-0.7405,-0.7468,-0.7702,-0.7784,-0.7868,-0.7931,-0.7971,-0.7988,-0.7988,-0.7988,-0.7988,-0.8283,-0.985,-1.176,-1.327,-1.41,-1.4298,-1.4298,-1.4298,-1.428,-1.4232,-1.4262,-1.4171,-1.39,-1.3851,-1.3791,-1.361,-1.3468,-1.3465,-1.3465,-1.3197,-1.3041,-1.3043,-1.2862,-1.2753,-1.2717,-1.2705,-1.2705,-1.2705,-1.2705,-1.2705,-0.9452,-0.8817,-0.8747,-0.8526,-0.8186,-0.7727,-0.7465,-0.7248,-0.6991,-0.6939,-0.691,-0.7038,-0.7095,-0.7082,-0.693,-0.6859,-0.6895,-0.6736,-0.6749,-0.6895,-0.6856,-0.6943,-0.7085,-0.7095,-0.7061,-0.7001,-0.6997,-0.6967,-0.6896,-0.6822,-0.6824,-0.6817,-0.6671,-0.6522,-0.6426,-0.6412,-0.6378,-0.6296,-0.616,-0.6088,-0.6088,-0.5955,-0.5887,-0.5887,-0.5812,-0.5745,-0.5742,-0.5745,-0.5745,-0.5742,-0.5846,-0.5928,-0.6016,-0.6003,-0.6081,-0.6282,-0.6235,-0.6186,-0.6293,-0.63,-0.6334,-0.6409,-0.6474,-0.6546,-0.6712,-0.6583,-0.662,-0.6859,-0.7014,-0.7095,-0.7098,-0.7217,-0.7292,-0.7363,-0.7506,-0.7665,-0.779,-0.7889,-0.7914,-0.7975,-0.7988,-0.7988,-0.7988,-0.7988,-0.7988,-0.8187,-0.985,-1.195,-1.395,-1.4298,-1.4298,-1.4298,-1.4298,-1.4298,-1.4298,-1.4298,-1.4244,-1.4135,-1.4117,-1.4069,-1.3936,-1.3845,-1.3737,-1.3713,-1.3507,-1.3302,-1.3125,-1.3031,-1.2892,-1.2723,-1.2705,-1.2705,-1.2705,-1.2705,-1.2705,-0.9037,-0.8881,-0.8881,-0.8621,-0.8186,-0.7679,-0.745,-0.7402,-0.7204,-0.7095,-0.7095,-0.7095,-0.7095,-0.7071,-0.6898,-0.68,-0.6766,-0.6563,-0.6586,-0.6787,-0.68,-0.6922,-0.7075,-0.7095,-0.7095,-0.7095,-0.7095,-0.7095,-0.7082,-0.6984,-0.6916,-0.6876,-0.681,-0.6675,-0.6522,-0.6528,-0.6457,-0.6351,-0.6317,-0.63,-0.63,-0.63,-0.6296,-0.63,-0.6293,-0.63,-0.63,-0.63,-0.63,-0.63,-0.63,-0.63,-0.63,-0.63,-0.63,-0.63,-0.63,-0.63,-0.63,-0.633,-0.6395,-0.6464,-0.6536,-0.6675,-0.6842,-0.6854,-0.6848,-0.6923,-0.7034,-0.7109,-0.7204,-0.7295,-0.7397,-0.7468,-0.7668,-0.7814,-0.7868,-0.7921,-0.7988,-0.7988,-0.7988,-0.7988,-0.7988,-0.7988,-0.8137,-0.8581,-0.9998,-1.1901,-1.3511,-1.41,-1.4298,-1.4298,-1.4298,-1.4298,-1.4298,-1.4298,-1.4292,-1.4298,-1.4292,-1.4268,-1.4226,-1.4099,-1.4014,-1.3966,-1.3779,-1.3532,-1.3278,-1.3151,-1.2963,-1.2777,-1.2705,-1.2705,-1.2705,-1.2705,-1.2705,-0.9209,-0.9067,-0.9056,-0.8728,-0.8163,-0.7746,-0.7506,-0.7366,-0.7162,-0.7095,-0.7095,-0.7095,-0.7095,-0.7092,-0.7058,-0.7038,-0.7041,-0.7024,-0.7014,-0.7038,-0.7055,-0.7071,-0.7092,-0.7095,-0.7095,-0.7095,-0.7095,-0.7095,-0.7095,-0.7082,-0.7011,-0.69,-0.6912,-0.6788,-0.6681,-0.659,-0.6508,-0.6491,-0.6368,-0.63,-0.63,-0.63,-0.63,-0.63,-0.63,-0.63,-0.63,-0.63,-0.63,-0.63,-0.63,-0.63,-0.63,-0.63,-0.63,-0.63,-0.63,-0.63,-0.631,-0.6419,-0.6501,-0.6528,-0.6729,-0.6842,-0.6896,-0.6987,-0.7058,-0.7085,-0.7092,-0.7221,-0.7329,-0.7419,-0.7495,-0.7706,-0.779,-0.7862,-0.7934,-0.7978,-0.7988,-0.7988,-0.7988,-0.7988,-0.7988,-0.7988,-0.8382,-0.9167,-1.0194,-1.1512,-1.278,-1.3661,-1.425,-1.4298,-1.4298,-1.4298,-1.4298,-1.4298,-1.4298,-1.4298,-1.4298,-1.4298,-1.428,-1.4274,-1.4256,-1.4159,-1.4051,-1.3785,-1.3389,-1.3302,-1.3023,-1.2443,-1.2392,-1.2571,-1.2656,-1.2528,-1.2443,-0.8846,-0.8754,-0.8754,-0.8582,-0.8218,-0.7876,-0.7641,-0.7495,-0.7343,-0.7227,-0.7102,-0.7095,-0.7095,-0.7095,-0.7095,-0.7095,-0.7095,-0.7095,-0.7095,-0.7095,-0.7095,-0.7095,-0.7095,-0.7095,-0.7095,-0.7095,-0.7095,-0.7095,-0.7095,-0.7095,-0.7065,-0.7018,-0.7007,-0.694,-0.6844,-0.6773,-0.6698,-0.6607,-0.6501,-0.6426,-0.6416,-0.634,-0.63,-0.63,-0.63,-0.63,-0.63,-0.63,-0.63,-0.63,-0.63,-0.63,-0.63,-0.63,-0.63,-0.6303,-0.6378,-0.6426,-0.6426,-0.6525,-0.6647,-0.6732,-0.6812,-0.6916,-0.7004,-0.7065,-0.7129,-0.7268,-0.736,-0.7411,-0.7397,-0.7526,-0.7685,-0.7801,-0.784,-0.7924,-0.7978,-0.7988,-0.7988,-0.7988,-0.7988,-0.7988,-0.7988,-0.7988,-0.8482,-0.9365,-1.0047,-1.0877,-1.2339,-1.3119,-1.3613,-1.4154,-1.4298,-1.4298,-1.4298,-1.4298,-1.4298,-1.4298,-1.4298,-1.4298,-1.4298,-1.4298,-1.4298,-1.4298,-1.4142,-1.3643,-1.2851,-1.3245,-1.3245,-1.2181,-1.1116,-1.1052,-1.1047,-1.1047,-1.1047,-0.8686,-0.8547,-0.8503,-0.8374,-0.8191,-0.797,-0.777,-0.76,-0.7478,-0.7346,-0.7166,-0.7204,-0.7204,-0.7152,-0.7119,-0.7095,-0.7095,-0.7095,-0.7095,-0.7095,-0.7095,-0.7095,-0.7095,-0.7095,-0.7095,-0.7095,-0.7095,-0.7095,-0.7095,-0.7095,-0.7095,-0.7095,-0.7095,-0.7048,-0.695,-0.6913,-0.6875,-0.6763,-0.661,-0.6536,-0.6522,-0.6434,-0.6381,-0.631,-0.63,-0.63,-0.63,-0.63,-0.63,-0.63,-0.63,-0.63,-0.63,-0.63,-0.6323,-0.6385,-0.6464,-0.6536,-0.6536,-0.6675,-0.681,-0.6873,-0.6916,-0.6984,-0.7071,-0.7095,-0.721,-0.736,-0.758,-0.7658,-0.7546,-0.7685,-0.7818,-0.7872,-0.7931,-0.7988,-0.7988,-0.7988,-0.7988,-0.7988,-0.7988,-0.7988,-0.7988,-0.8038,-0.8333,-0.892,-0.941,-0.9998,-1.156,-1.229,-1.3022,-1.3763,-1.4052,-1.4298,-1.4298,-1.3908,-1.4004,-1.4196,-1.4148,-1.3908,-1.4154,-1.4298,-1.4004,-1.3757,-1.3854,-1.3366,-1.2215,-1.2422,-1.2648,-1.098,-1.0084,-0.9987,-1.0255,-1.0028,-0.9927,-0.8842,-0.8689,-0.8543,-0.8326,-0.8005,-0.7982,-0.7813,-0.7614,-0.7594,-0.7502,-0.7373,-0.736,-0.7405,-0.735,-0.7176,-0.7098,-0.7095,-0.7095,-0.7095,-0.7095,-0.7095,-0.7095,-0.7095,-0.7095,-0.7095,-0.7095,-0.7095,-0.7095,-0.7095,-0.7095,-0.7095,-0.7095,-0.7095,-0.7092,-0.7061,-0.6953,-0.6886,-0.6862,-0.677,-0.6688,-0.6688,-0.6681,-0.6532,-0.6351,-0.6306,-0.632,-0.6313,-0.6306,-0.6306,-0.6303,-0.631,-0.6306,-0.631,-0.631,-0.6402,-0.6579,-0.6682,-0.6692,-0.6705,-0.6834,-0.6883,-0.6903,-0.7004,-0.7088,-0.7112,-0.7102,-0.7176,-0.7373,-0.7763,-0.7923,-0.7801,-0.7807,-0.7837,-0.7944,-0.7978,-0.7988,-0.7988,-0.7988,-0.7988,-0.7988,-0.7988,-0.7988,-0.7988,-0.7988,-0.8038,-0.8333,-0.897,-0.9706,-1.0145,-1.1512,-1.2538,-1.3022,-1.3607,-1.4298,-1.4202,-1.3613,-1.3463,-1.3559,-1.3414,-1.3022,-1.3806,-1.4202,-1.3613,-1.3119,-1.2877,-1.2304,-1.1321,-1.0877,-1.0815,-1.0153,-0.9876,-0.9809,-0.9467,-0.9786,-0.9639,-0.8906,-0.878,-0.8587,-0.8418,-0.8309,-0.8073,-0.7874,-0.7743,-0.7733,-0.7651,-0.7533,-0.7519,-0.7516,-0.7555,-0.7356,-0.7234,-0.7102,-0.7095,-0.7095,-0.7095,-0.7095,-0.7095,-0.7095,-0.7095,-0.7095,-0.7095,-0.7095,-0.7095,-0.7095,-0.7095,-0.7095,-0.7095,-0.7095,-0.7095,-0.7085,-0.7045,-0.7021,-0.7004,-0.6879,-0.6848,-0.6837,-0.6753,-0.6644,-0.6549,-0.6542,-0.6542,-0.6542,-0.6542,-0.6586,-0.6542,-0.6451,-0.648,-0.6569,-0.6583,-0.6661,-0.6888,-0.6881,-0.6805,-0.6865,-0.694,-0.7021,-0.7024,-0.7065,-0.7187,-0.7244,-0.721,-0.7233,-0.7611,-0.7868,-0.7948,-0.7928,-0.7907,-0.7928,-0.7975,-0.7988,-0.7988,-0.7988,-0.7988,-0.7988,-0.7988,-0.7988,-0.7988,-0.7988,-0.7988,-0.7988,-0.8038,-0.8333,-0.8825,-0.9608,-1.0877,-1.1901,-1.2684,-1.3565,-1.4298,-1.4298,-1.342,-1.2829,-1.278,-1.2581,-1.2096,-1.2344,-1.2538,-1.2096,-1.1901,-1.1755,-1.1297,-1.0343,-0.9493,-0.9423,-0.9647,-0.938,-0.8999,-0.8529,-0.8783,-0.8612,-0.8824,-0.8774,-0.8621,-0.8469,-0.833,-0.818,-0.7997,-0.7831,-0.7862,-0.7801,-0.7689,-0.7668,-0.7668,-0.7634,-0.7508,-0.7319,-0.7169,-0.7122,-0.7095,-0.7095,-0.7095,-0.7095,-0.7095,-0.7095,-0.7095,-0.7095,-0.7095,-0.7095,-0.7095,-0.7095,-0.7095,-0.7095,-0.7095,-0.7095,-0.7095,-0.7095,-0.7095,-0.7075,-0.7001,-0.6953,-0.694,-0.6856,-0.6841,-0.6841,-0.6802,-0.6793,-0.6709,-0.6702,-0.6702,-0.6685,-0.66,-0.6593,-0.6688,-0.6746,-0.6881,-0.7048,-0.7007,-0.6997,-0.6964,-0.7045,-0.7095,-0.7102,-0.7146,-0.7265,-0.7402,-0.7319,-0.7475,-0.775,-0.7897,-0.7988,-0.7988,-0.7985,-0.7988,-0.7988,-0.7988,-0.7988,-0.7988,-0.7988,-0.7988,-0.7988,-0.7988,-0.7988,-0.7988,-0.7988,-0.7988,-0.7988,-0.7988,-0.8382,-0.9019,-0.9998,-1.0877,-1.1658,-1.2484,-1.298,-1.2883,-1.1999,-1.2242,-1.229,-1.1409,-1.0925,-1.0925,-1.0974,-1.093,-1.0734,-1.044,-1.0047,-0.9371,-0.8472,-0.8432,-0.8832,-0.863,-0.823,-0.7897,-0.7733,-0.7802,-0.8767,-0.855,-0.8642,-0.8448,-0.8136,-0.8191,-0.8082,-0.7879,-0.797,-0.7887,-0.7818,-0.7814,-0.7814,-0.776,-0.7543,-0.7439,-0.737,-0.721,-0.7125,-0.7098,-0.7095,-0.7095,-0.7095,-0.7095,-0.7095,-0.7095,-0.7095,-0.7095,-0.7095,-0.7095,-0.7095,-0.7095,-0.7095,-0.7095,-0.7095,-0.7095,-0.7095,-0.7092,-0.7078,-0.7082,-0.7092,-0.7065,-0.7055,-0.7065,-0.7065,-0.6947,-0.6736,-0.6729,-0.6742,-0.6732,-0.6712,-0.6702,-0.6722,-0.6841,-0.695,-0.7065,-0.7088,-0.7088,-0.7085,-0.7092,-0.7095,-0.7112,-0.7275,-0.7405,-0.7407,-0.7506,-0.7645,-0.7818,-0.7904,-0.7988,-0.7988,-0.7988,-0.7988,-0.7988,-0.7988,-0.7988,-0.7988,-0.7988,-0.7988,-0.7988,-0.7988,-0.7988,-0.7988,-0.7988,-0.7988,-0.7988,-0.7988,-0.8038,-0.8333,-0.9167,-0.9604,-0.9948,-1.0974,-1.1907,-1.1219,-1.0534,-1.1317,-1.1702,-1.0485,-0.9657,-1.0096,-1.0293,-0.9948,-0.9756,-0.9608,-0.9213,-0.8871,-0.8082,-0.8043,-0.8248,-0.7868,-0.7807,-0.777,-0.7716,-0.7638,-0.8763,-0.8635,-0.8574,-0.8421,-0.8197,-0.814,-0.7998,-0.7924,-0.7975,-0.7958,-0.7924,-0.7917,-0.7917,-0.7877,-0.776,-0.7672,-0.7662,-0.7519,-0.7301,-0.7132,-0.7102,-0.7102,-0.7105,-0.7098,-0.7095,-0.7095,-0.7095,-0.7095,-0.7095,-0.7095,-0.7095,-0.7095,-0.7095,-0.7095,-0.7095,-0.7095,-0.7095,-0.7095,-0.7095,-0.7095,-0.7095,-0.7095,-0.7095,-0.7095,-0.7095,-0.7045,-0.6967,-0.696,-0.696,-0.695,-0.6909,-0.681,-0.6766,-0.6896,-0.7045,-0.7088,-0.7095,-0.7095,-0.7095,-0.7095,-0.7095,-0.7122,-0.7285,-0.7417,-0.7519,-0.7631,-0.7729,-0.7884,-0.7965,-0.7988,-0.7988,-0.7988,-0.7988,-0.7988,-0.7988,-0.7988,-0.7988,-0.7988,-0.7988,-0.7988,-0.7988,-0.7988,-0.7988,-0.7988,-0.7988,-0.7988,-0.7988,-0.7988,-0.8137,-0.8825,-0.9558,-0.9706,-1.0538,-1.0877,-1.044,-0.9948,-1.0096,-1.0386,-0.9558,-0.8874,-0.9266,-0.941,-0.9069,-0.8871,-0.8722,-0.8478,-0.8134,-0.7988,-0.7988,-0.7988,-0.7921,-0.7897,-0.7946,-0.7882,-0.7787,-0.8763,-0.8621,-0.8523,-0.8364,-0.8184,-0.8025,-0.7988,-0.7988,-0.7988,-0.7988,-0.7988,-0.7988,-0.7988,-0.7958,-0.7879,-0.7818,-0.7794,-0.7665,-0.7499,-0.7319,-0.7241,-0.7255,-0.7288,-0.7248,-0.7142,-0.7102,-0.7095,-0.7095,-0.7095,-0.7095,-0.7095,-0.7095,-0.7095,-0.7095,-0.7095,-0.7095,-0.7095,-0.7095,-0.7095,-0.7095,-0.7095,-0.7095,-0.7095,-0.7095,-0.7095,-0.7095,-0.7095,-0.7095,-0.7095,-0.7082,-0.7007,-0.6916,-0.6849,-0.6994,-0.7095,-0.7095,-0.7095,-0.7095,-0.7095,-0.7095,-0.7095,-0.7125,-0.7333,-0.7489,-0.7611,-0.7736,-0.7867,-0.7961,-0.7988,-0.7988,-0.7988,-0.7988,-0.7988,-0.7988,-0.7988,-0.7988,-0.7988,-0.7988,-0.7988,-0.7988,-0.7988,-0.7988,-0.7988,-0.7988,-0.7988,-0.7988,-0.7988,-0.7988,-0.8137,-0.8531,-0.8874,-0.9118,-0.9316,-0.9608,-0.9805,-0.946,-0.9023,-0.8874,-0.8581,-0.8333,-0.8482,-0.8528,-0.8333,-0.8382,-0.8233,-0.8283,-0.7988,-0.7988,-0.7988,-0.7988,-0.7988,-0.7971,-0.7941,-0.7921,-0.785,-0.876,-0.8548,-0.8535,-0.8313,-0.8019,-0.7992,-0.7988,-0.7988,-0.7988,-0.7988,-0.7988,-0.7988,-0.7988,-0.7958,-0.7902,-0.7851,-0.7807,-0.7726,-0.7662,-0.759,-0.7495,-0.7458,-0.7489,-0.7394,-0.7272,-0.7112,-0.7095,-0.7095,-0.7095,-0.7095,-0.7095,-0.7095,-0.7095,-0.7095,-0.7095,-0.7095,-0.7095,-0.7095,-0.7095,-0.7095,-0.7095,-0.7095,-0.7095,-0.7095,-0.7095,-0.7095,-0.7095,-0.7095,-0.7095,-0.7095,-0.7082,-0.7068,-0.7082,-0.7095,-0.7095,-0.7095,-0.7095,-0.7095,-0.7095,-0.7095,-0.7109,-0.7197,-0.7417,-0.7607,-0.7655,-0.7858,-0.7958,-0.7985,-0.7988,-0.7988,-0.7988,-0.7988,-0.7988,-0.7988,-0.7988,-0.7988,-0.7988,-0.7988,-0.7988,-0.7988,-0.7988,-0.7988,-0.7988,-0.7988,-0.7988,-0.7988,-0.7988,-0.7988,-0.8038,-0.8187,-0.8038,-0.8233,-0.8531,-0.8627,-0.897,-0.8871,-0.8482,-0.8432,-0.8187,-0.8088,-0.7988,-0.7988,-0.7988,-0.7988,-0.7988,-0.7988,-0.7988,-0.7988,-0.7988,-0.7988,-0.7988,-0.7988,-0.7975,-0.7951,-0.7941,-0.876,-0.8492,-0.8535,-0.8313,-0.8008,-0.7988,-0.7988,-0.7988,-0.7988,-0.7988,-0.7988,-0.7988,-0.7988,-0.7982,-0.7948,-0.7928,-0.7904,-0.788,-0.7874,-0.7899,-0.7767,-0.758,-0.7508,-0.7397,-0.7295,-0.7122,-0.7112,-0.7095,-0.7095,-0.7095,-0.7095,-0.7095,-0.7095,-0.7095,-0.7095,-0.7095,-0.7095,-0.7095,-0.7095,-0.7095,-0.7095,-0.7095,-0.7095,-0.7095,-0.7095,-0.7095,-0.7095,-0.7095,-0.7095,-0.7095,-0.7095,-0.7095,-0.7095,-0.7095,-0.7095,-0.7095,-0.7095,-0.7095,-0.7095,-0.7095,-0.7142,-0.7312,-0.7478,-0.7641,-0.7753,-0.7926,-0.7975,-0.7988,-0.7988,-0.7988,-0.7988,-0.7988,-0.7988,-0.7988,-0.7988,-0.7988,-0.7988,-0.7988,-0.7988,-0.7988,-0.7988,-0.7988,-0.7988,-0.7988,-0.7988,-0.7988,-0.7988,-0.7988,-0.7988,-0.7988,-0.7988,-0.7988,-0.8137,-0.8088,-0.8088,-0.8088,-0.8088,-0.8088,-0.8038,-0.8038,-0.7988,-0.7988,-0.7988,-0.7988,-0.7988,-0.7988,-0.7988,-0.7988,-0.7988,-0.7988,-0.7988,-0.7988,-0.7988,-0.7975,-0.7971,-0.8699,-0.8479,-0.8418,-0.8258,-0.8002,-0.7988,-0.7988,-0.7988,-0.7988,-0.7988,-0.7988,-0.7988,-0.7988,-0.7988,-0.7988,-0.7988,-0.7988,-0.7988,-0.7985,-0.7971,-0.7891,-0.7746,-0.755,-0.7512,-0.7444,-0.7255,-0.7234,-0.7156,-0.7109,-0.7095,-0.7095,-0.7095,-0.7095,-0.7095,-0.7095,-0.7095,-0.7095,-0.7095,-0.7095,-0.7095,-0.7095,-0.7095,-0.7095,-0.7095,-0.7095,-0.7095,-0.7095,-0.7095,-0.7095,-0.7095,-0.7095,-0.7095,-0.7095,-0.7095,-0.7095,-0.7095,-0.7095,-0.7095,-0.7095,-0.7098,-0.721,-0.736,-0.7512,-0.7658,-0.7797,-0.7897,-0.7988,-0.7988,-0.7988,-0.7988,-0.7988,-0.7988,-0.7988,-0.7988,-0.7988,-0.7988,-0.7988,-0.7988,-0.7988,-0.7988,-0.7988,-0.7988,-0.7988,-0.7988,-0.7988,-0.7988,-0.7988,-0.7988,-0.7988,-0.7988,-0.7988,-0.7988,-0.7988,-0.7988,-0.7988,-0.7988,-0.7988,-0.7988,-0.7988,-0.7988,-0.7988,-0.7988,-0.7988,-0.7988,-0.7988,-0.7988,-0.7988,-0.7988,-0.7988,-0.7988,-0.7988,-0.7988,-0.7988,-0.7988,-0.7988,-0.8618,-0.8469,-0.833,-0.818,-0.8002,-0.7988,-0.7988,-0.7988,-0.7988,-0.7988,-0.7988,-0.7988,-0.7988,-0.7988,-0.7988,-0.7988,-0.7988,-0.7988,-0.7988,-0.7985,-0.7955,-0.7882,-0.7706,-0.7723,-0.7617,-0.7473,-0.7439,-0.7309,-0.7224,-0.7136,-0.7112,-0.7102,-0.7095,-0.7095,-0.7095,-0.7095,-0.7095,-0.7095,-0.7095,-0.7095,-0.7095,-0.7095,-0.7095,-0.7095,-0.7095,-0.7095,-0.7095,-0.7095,-0.7095,-0.7095,-0.7095,-0.7095,-0.7095,-0.7095,-0.7095,-0.7095,-0.7095,-0.7095,-0.7105,-0.7119,-0.7241,-0.7404,-0.7553,-0.7685,-0.7838,-0.7928,-0.7988,-0.7988,-0.7988,-0.7988,-0.7988,-0.7988,-0.7988,-0.7988,-0.7988,-0.7988,-0.7988,-0.7988,-0.7988,-0.7988,-0.7988,-0.7988,-0.7988,-0.7988,-0.7988,-0.7988,-0.7988,-0.7988,-0.7988,-0.7988,-0.7988,-0.7988,-0.7988,-0.7988,-0.7988,-0.7988,-0.7988,-0.7988,-0.7988,-0.7988,-0.7988,-0.7988,-0.7988,-0.7988,-0.7988,-0.7988,-0.7988,-0.7988,-0.7988,-0.7988,-0.7988,-0.7988,-0.7988,-0.7988,-0.7988,-0.8618,-0.8472,-0.8381,-0.818,-0.8002,-0.7988,-0.7988,-0.7988,-0.7988,-0.7988,-0.7988,-0.7988,-0.7988,-0.7988,-0.7988,-0.7988,-0.7988,-0.7988,-0.7988,-0.7988,-0.7988,-0.7968,-0.7864,-0.7872,-0.7716,-0.758,-0.755,-0.7468,-0.7356,-0.7302,-0.7258,-0.7115,-0.7102,-0.7095,-0.7095,-0.7095,-0.7095,-0.7095,-0.7095,-0.7095,-0.7095,-0.7095,-0.7095,-0.7095,-0.7095,-0.7095,-0.7095,-0.7095,-0.7095,-0.7095,-0.7095,-0.7095,-0.7095,-0.7105,-0.7119,-0.7129,-0.7119,-0.7109,-0.7122,-0.7265,-0.7387,-0.7539,-0.7672,-0.7828,-0.7921,-0.7961,-0.7988,-0.7988,-0.7988,-0.7988,-0.7988,-0.7988,-0.7988,-0.7988,-0.7988,-0.7988,-0.7988,-0.7988,-0.7988,-0.7988,-0.7988,-0.7988,-0.7988,-0.8005,-0.8002,-0.7992,-0.8002,-0.7995,-0.8008,-0.8025,-0.8022,-0.8089,-0.7992,-0.7992,-0.7988,-0.7988,-0.7988,-0.7988,-0.7988,-0.7988,-0.7988,-0.7988,-0.7988,-0.7988,-0.7988,-0.7988,-0.7988,-0.7988,-0.7988,-0.7988,-0.7988,-0.7988,-0.7988,-0.7988,-0.7988,-0.8516,-0.837,-0.8225,-0.8116,-0.7998,-0.7988,-0.7988,-0.7988,-0.7988,-0.7988,-0.7988,-0.7988,-0.7988,-0.7988,-0.7988,-0.7988,-0.7988,-0.7988,-0.7988,-0.7988,-0.7988,-0.7988,-0.7982,-0.7957,-0.7845,-0.7719,-0.7699,-0.7614,-0.7502,-0.7404,-0.7326,-0.7244,-0.7136,-0.7098,-0.7095,-0.7095,-0.7095,-0.7095,-0.7095,-0.7095,-0.7095,-0.7095,-0.7095,-0.7095,-0.7095,-0.7095,-0.7095,-0.7095,-0.7095,-0.7095,-0.7098,-0.7095,-0.7115,-0.721,-0.7275,-0.7297,-0.7307,-0.7311,-0.7387,-0.7431,-0.7539,-0.7682,-0.7773,-0.7837,-0.7944,-0.7988,-0.7988,-0.7988,-0.7988,-0.7988,-0.7988,-0.7988,-0.7988,-0.7988,-0.7988,-0.7988,-0.7988,-0.7988,-0.7988,-0.7988,-0.7988,-0.7988,-0.7995,-0.8019,-0.8126,-0.8143,-0.8252,-0.8255,-0.8248,-0.8252,-0.8184,-0.8157,-0.8029,-0.7992,-0.7988,-0.7988,-0.7988,-0.7988,-0.7988,-0.7988,-0.7988,-0.7988,-0.7988,-0.7988,-0.7988,-0.7988,-0.7988,-0.7988,-0.7988,-0.7988,-0.7988,-0.7988,-0.7988,-0.7988,-0.7988,-0.8381,-0.831,-0.8102,-0.7988,-0.7988,-0.7988,-0.7988,-0.7988,-0.7988,-0.7988,-0.7988,-0.7988,-0.7988,-0.7988,-0.7988,-0.7988,-0.7988,-0.7988,-0.7988,-0.7988,-0.7988,-0.7988,-0.7985,-0.7961,-0.7914,-0.7806,-0.7848,-0.776,-0.7594,-0.7475,-0.738,-0.7319,-0.7166,-0.7102,-0.7095,-0.7095,-0.7095,-0.7095,-0.7095,-0.7095,-0.7095,-0.7095,-0.7095,-0.7095,-0.7095,-0.7095,-0.7095,-0.7095,-0.7095,-0.7095,-0.7115,-0.7115,-0.7136,-0.7285,-0.7528,-0.7624,-0.7607,-0.7546,-0.7553,-0.7604,-0.7682,-0.7811,-0.7845,-0.7902,-0.7958,-0.7988,-0.7988,-0.7988,-0.7988,-0.7988,-0.7988,-0.7988,-0.7988,-0.7988,-0.7988,-0.7988,-0.7988,-0.7988,-0.7988,-0.7988,-0.7988,-0.7988,-0.8019,-0.8099,-0.8177,-0.831,-0.8364,-0.8425,-0.8401,-0.8347,-0.8231,-0.8163,-0.8029,-0.7992,-0.7988,-0.7988,-0.7988,-0.7988,-0.7988,-0.7988,-0.7988,-0.7988,-0.7988,-0.7988,-0.7988,-0.7988,-0.7988,-0.7988,-0.7988,-0.7988,-0.7988,-0.7988,-0.7988,-0.7988,-0.7988,-0.8344,-0.831,-0.8102,-0.7988,-0.7988,-0.7988,-0.7988,-0.7988,-0.7988,-0.7988,-0.7988,-0.7988,-0.7988,-0.7988,-0.7988,-0.7988,-0.7988,-0.7988,-0.7988,-0.7988,-0.7988,-0.7988,-0.7988,-0.7988,-0.7965,-0.7961,-0.7931,-0.7806,-0.7678,-0.7567,-0.7461,-0.7206,-0.7129,-0.7112,-0.7129,-0.7098,-0.7105,-0.7119,-0.7105,-0.7095,-0.7095,-0.7115,-0.7119,-0.7125,-0.7139,-0.7142,-0.7122,-0.7109,-0.7095,-0.7109,-0.7265,-0.7251,-0.7234,-0.7319,-0.7573,-0.7801,-0.775,-0.7658,-0.7662,-0.7723,-0.7773,-0.7834,-0.7867,-0.7934,-0.7982,-0.7988,-0.7988,-0.7988,-0.7988,-0.7988,-0.7988,-0.7988,-0.7988,-0.7988,-0.7988,-0.7988,-0.7988,-0.7988,-0.7988,-0.7988,-0.7988,-0.7992,-0.8022,-0.8106,-0.8163,-0.8214,-0.8279,-0.8316,-0.8296,-0.8228,-0.8136,-0.8089,-0.8005,-0.7992,-0.7988,-0.7988,-0.7988,-0.7988,-0.7988,-0.7988,-0.7988,-0.7988,-0.7988,-0.7988,-0.7988,-0.7988,-0.7988,-0.7988,-0.7988,-0.7988,-0.7988,-0.7988,-0.7988,-0.7988,-0.7988,-0.8221,-0.8147,-0.8019,-0.7988,-0.7988,-0.7988,-0.7988,-0.7988,-0.7988,-0.7988,-0.7988,-0.7988,-0.7988,-0.7988,-0.7988,-0.7988,-0.7988,-0.7988,-0.7988,-0.7988,-0.7988,-0.7988,-0.7988,-0.7988,-0.7988,-0.7985,-0.7978,-0.7928,-0.7828,-0.7746,-0.7611,-0.7502,-0.7353,-0.7295,-0.7312,-0.7176,-0.7169,-0.7224,-0.719,-0.7098,-0.7112,-0.7207,-0.7255,-0.7272,-0.7291,-0.7331,-0.7331,-0.7331,-0.738,-0.7397,-0.7448,-0.7438,-0.7438,-0.7529,-0.7723,-0.7901,-0.785,-0.7773,-0.7779,-0.7847,-0.7926,-0.7936,-0.7955,-0.7985,-0.7988,-0.7988,-0.7988,-0.7988,-0.7988,-0.7988,-0.7988,-0.7988,-0.7988,-0.7988,-0.7988,-0.7988,-0.7988,-0.7988,-0.7988,-0.7988,-0.7988,-0.7995,-0.8008,-0.8049,-0.8147,-0.8184,-0.8211,-0.8211,-0.8201,-0.8153,-0.8092,-0.8042,-0.8025,-0.7992,-0.7988,-0.7988,-0.7988,-0.7988,-0.7988,-0.7988,-0.7988,-0.7988,-0.7988,-0.7988,-0.7988,-0.7988,-0.7988,-0.7988,-0.7988,-0.7988,-0.7988,-0.7988,-0.7988,-0.7988,-0.7988,-0.8153,-0.7988,-0.7988,-0.7988,-0.7988,-0.7988,-0.7988,-0.7988,-0.7988,-0.7988,-0.7988,-0.7988,-0.7988,-0.7988,-0.7988,-0.7988,-0.7988,-0.7988,-0.7988,-0.7988,-0.7988,-0.7988,-0.7988,-0.7988,-0.7988,-0.7988,-0.7988,-0.7975,-0.7923,-0.7845,-0.7797,-0.7665,-0.7492,-0.7468,-0.7506,-0.737,-0.7346,-0.7326,-0.7268,-0.7146,-0.7217,-0.7302,-0.7439,-0.7463,-0.7536,-0.7584,-0.756,-0.7556,-0.756,-0.7577,-0.7611,-0.7624,-0.7631,-0.7763,-0.7913,-0.7965,-0.7988,-0.7988,-0.7982,-0.7971,-0.7965,-0.7965,-0.7982,-0.7988,-0.7988,-0.7988,-0.7988,-0.7988,-0.7988,-0.7988,-0.7988,-0.7988,-0.7988,-0.7988,-0.7988,-0.7988,-0.7988,-0.7988,-0.7988,-0.7988,-0.7988,-0.7995,-0.8005,-0.8015,-0.8106,-0.8119,-0.8147,-0.8174,-0.8163,-0.816,-0.8126,-0.813,-0.8059,-0.8005,-0.7988,-0.7988,-0.7988,-0.7988,-0.7988,-0.7988,-0.7988,-0.7988,-0.7988,-0.7988,-0.7988,-0.7988,-0.7988,-0.7988,-0.7988,-0.7988,-0.7988,-0.7988,-0.7988,-0.7988,-0.7988,-0.8005,-0.7988,-0.7988,-0.7988,-0.7988,-0.7988,-0.7988,-0.7988,-0.7988,-0.7988,-0.7988,-0.7988,-0.7988,-0.7988,-0.7988,-0.7988,-0.7988,-0.7988,-0.7988,-0.7988,-0.7988,-0.7988,-0.7988,-0.7988,-0.7988,-0.7988,-0.7988,-0.7904,-0.7906,-0.7851,-0.7767,-0.7675,-0.7641,-0.7597,-0.7641,-0.7533,-0.7556,-0.7539,-0.7421,-0.7346,-0.7398,-0.7426,-0.7465,-0.7546,-0.7611,-0.7638,-0.7655,-0.7658,-0.7645,-0.7645,-0.7736,-0.7719,-0.7668,-0.7868,-0.7938,-0.7985,-0.7988,-0.7988,-0.7988,-0.7988,-0.7988,-0.7988,-0.7988,-0.7988,-0.7988,-0.7988,-0.7988,-0.7988,-0.7988,-0.7988,-0.7988,-0.7988,-0.7988,-0.7988,-0.7988,-0.7988,-0.7988,-0.7988,-0.7988,-0.7988,-0.7988,-0.7988,-0.7995,-0.8002,-0.8008,-0.8069,-0.8085,-0.8116,-0.8163,-0.8191,-0.8204,-0.8221,-0.8204,-0.816,-0.8137,-0.8116,-0.8073,-0.8049,-0.7998,-0.7995,-0.7988,-0.7988,-0.7988,-0.7988,-0.7988,-0.7988,-0.7988,-0.7988,-0.7988,-0.7988,-0.7988,-0.7988,-0.7988,-0.7988,-0.7988,-0.7988,-0.7988,-0.7988,-0.7988,-0.7988,-0.7988,-0.7988,-0.7988,-0.7988,-0.7988,-0.7988,-0.7988,-0.7988,-0.7988,-0.7988,-0.7988,-0.7988,-0.7988,-0.7988,-0.7988,-0.7988,-0.7988,-0.7988,-0.7988,-0.7988,-0.7988,-0.7985,-0.7971,-0.7946,-0.7929,-0.7896,-0.7841,-0.777,-0.7777,-0.7787,-0.7675,-0.7668,-0.7651,-0.7584,-0.7509,-0.7522,-0.7577,-0.7648,-0.7716,-0.7797,-0.7828,-0.7834,-0.7848,-0.78,-0.7806,-0.787,-0.7867,-0.7882,-0.7917,-0.7988,-0.7988,-0.7988,-0.7988,-0.7988,-0.7988,-0.7988,-0.7988,-0.7988,-0.7988,-0.7988,-0.7988,-0.7988,-0.7988,-0.7988,-0.7988,-0.7988,-0.7988,-0.7988,-0.7988,-0.7988,-0.7988,-0.7988,-0.7988,-0.7988,-0.7988,-0.7992,-0.8002,-0.8012,-0.8022,-0.8029,-0.8082,-0.8106,-0.814,-0.8228,-0.8319,-0.8333,-0.834,-0.8381,-0.8356,-0.8397,-0.8384,-0.8316,-0.8255,-0.8025,-0.8019,-0.7995,-0.7988,-0.7988,-0.7988,-0.7988,-0.7988,-0.7988,-0.7988,-0.7988,-0.7988,-0.7988,-0.7988,-0.7988,-0.7988,-0.7988,-0.7988,-0.7988,-0.7988,-0.7988,-0.7988,-0.7988,-0.7988,-0.7988,-0.7988,-0.7988,-0.7988,-0.7988,-0.7988,-0.7988,-0.7988,-0.7988,-0.7988,-0.7988,-0.7988,-0.7988,-0.7988,-0.7988,-0.7988,-0.7988,-0.7988,-0.7988,-0.7988,-0.7978,-0.7982,-0.7978,-0.7971,-0.7985,-0.7916,-0.7874,-0.7894,-0.7858,-0.7773,-0.777,-0.7702,-0.7655,-0.7668,-0.7743,-0.7811,-0.7882,-0.7967,-0.7988,-0.7988,-0.7975,-0.7975,-0.7971,-0.7965,-0.7958,-0.7961,-0.7968,-0.7988,-0.7988,-0.7988,-0.7988,-0.7988,-0.7988,-0.7988,-0.7988,-0.7988,-0.7988,-0.7988,-0.7988,-0.7988,-0.7988,-0.7988,-0.7988,-0.7988,-0.7988,-0.7988,-0.7988,-0.7988,-0.7988,-0.7988,-0.7988,-0.8025,-0.8123,-0.8119,-0.8039,-0.8049,-0.8056,-0.8109,-0.8102,-0.8126,-0.818,-0.8292,-0.8435,-0.8476,-0.8489,-0.8543,-0.8548,-0.8595,-0.8618,-0.854,-0.8428,-0.8248,-0.8083,-0.8136,-0.8029,-0.7988,-0.7988,-0.8002,-0.7988,-0.7988,-0.7988,-0.7988,-0.7988,-0.7988,-0.7988,-0.7988,-0.7988,-0.7988,-0.7988,-0.7988,-0.7988,-0.7988,-0.7988,-0.7988,-0.7988,-0.7988,-0.7988,-0.7988,-0.7988,-0.7988,-0.7988,-0.7988,-0.7988,-0.7988,-0.7988,-0.7988,-0.7988,-0.7988,-0.7988,-0.7988,-0.7988,-0.7988,-0.7988,-0.7988,-0.7988,-0.7988,-0.7988,-0.7988,-0.7988,-0.7978,-0.7948,-0.7968,-0.7975,-0.7921,-0.7837,-0.782,-0.7807,-0.7801,-0.7797,-0.7786,-0.7837,-0.7934,-0.7975,-0.7988,-0.7988,-0.7988,-0.7988,-0.7988,-0.7988,-0.7988,-0.7988,-0.7988,-0.7988,-0.7988,-0.7988,-0.7988,-0.7988,-0.7988,-0.7988,-0.7988,-0.7988,-0.7988,-0.7988,-0.7988,-0.7988,-0.7988,-0.7988,-0.7988,-0.7988,-0.7988,-0.7988,-0.7988,-0.7988,-0.7988,-0.7988,-0.7988,-0.8035,-0.818,-0.8197,-0.8163,-0.8194,-0.8218,-0.8194,-0.8191,-0.8377,-0.8438,-0.8455,-0.8567,-0.8621,-0.8659,-0.8716,-0.8791,-0.8844,-0.8876,-0.8825,-0.8679,-0.8492,-0.836,-0.8275,-0.8197,-0.8143,-0.8085,-0.8102,-0.8019,-0.7988,-0.7988,-0.7988,-0.7988,-0.7988,-0.7988,-0.7988,-0.7988,-0.7988,-0.7988,-0.7988,-0.7988,-0.7988,-0.7988,-0.7988,-0.7988,-0.7988,-0.7988,-0.7988,-0.7988,-0.7988,-0.7988,-0.7988,-0.7988,-0.7988,-0.7988,-0.7988,-0.7988,-0.7988,-0.7988,-0.7988,-0.7988,-0.7988,-0.7988,-0.7988,-0.7988,-0.7988,-0.7988,-0.7988,-0.7988,-0.7988,-0.7988,-0.7988,-0.7988,-0.7988,-0.7944,-0.7924,-0.7897,-0.7901,-0.7904,-0.7901,-0.7931,-0.7975,-0.7988,-0.7988,-0.7988,-0.7988,-0.7988,-0.7988,-0.7988,-0.7988,-0.7988,-0.7988,-0.7988,-0.7988,-0.7988,-0.7988,-0.7988,-0.7988,-0.7988,-0.7988,-0.7988,-0.7988,-0.7988,-0.7988,-0.7988,-0.7988,-0.7988,-0.7988,-0.7988,-0.7988,-0.7988,-0.7988,-0.7988,-0.7988,-0.7988,-0.7988,-0.8083,-0.8245,-0.8252,-0.8228,-0.8282,-0.8343,-0.8364,-0.835,-0.8513,-0.8693,-0.8723,-0.876,-0.8842,-0.8937,-0.9008,-0.9079,-0.9188,-0.9164,-0.9117,-0.893,-0.8737,-0.8584,-0.8507,-0.8453,-0.8336,-0.8255,-0.8153,-0.8123,-0.8092,-0.8002,-0.7988,-0.7988,-0.7988,-0.7988,-0.7988,-0.7988,-0.7988,-0.7988,-0.7988,-0.7988,-0.7988,-0.7988,-0.7988,-0.7988,-0.7988,-0.7988,-0.7988,-0.7988,-0.7988,-0.7988,-0.7988,-0.7988,-0.7988,-0.7988,-0.7988,-0.7988,-0.7988,-0.7988,-0.7988,-0.7988,-0.7988,-0.7988,-0.7988,-0.7988,-0.7988,-0.7988,-0.7988,-0.7988,-0.7988,-0.7988,-0.7988,-0.7988,-0.7988,-0.7988,-0.7988,-0.7988,-0.7988,-0.7985,-0.7982,-0.7982,-0.7988,-0.7988,-0.7988,-0.7988,-0.7988,-0.7988,-0.7988,-0.7988,-0.7988,-0.7988,-0.7988,-0.7988,-0.7988,-0.7988,-0.7988,-0.7988,-0.7988,-0.7988,-0.7988,-0.7988,-0.7988,-0.7988,-0.7988,-0.7988,-0.7988,-0.7988,-0.7988,-0.7988,-0.7988,-0.7988,-0.7988,-0.7988,-0.7988,-0.7988,-0.7998,-0.8137,-0.8313,-0.8303,-0.8374,-0.8671,-0.876,-0.8655,-0.8645,-0.8767,-0.8947,-0.9039,-0.9083,-0.9204,-0.9249,-0.9351,-0.9425,-0.9496,-0.9462,-0.9398,-0.9171,-0.8977,-0.8774,-0.8652,-0.8584,-0.8501,-0.8292,-0.8208,-0.818,-0.8126,-0.8008,-0.7992,-0.7988,-0.7988,-0.7988,-0.7988,-0.7988,-0.7988,-0.7988,-0.7988,-0.7988,-0.7988,-0.7988,-0.7988,-0.7988,-0.7988,-0.7988,-0.7988,-0.7988,-0.7988,-0.7988,-0.7988,-0.7988,-0.7988,-0.7988,-0.7988,-0.7988,-0.7988,-0.7988,-0.7988,-0.7988,-0.7988,-0.7988,-0.7988,-0.7988,-0.7988,-0.7988,-0.7988,-0.7988,-0.7988,-0.7988,-0.7988,-0.7988,-0.7988,-0.7988,-0.7988,-0.7988,-0.7988,-0.7988,-0.7988,-0.7988,-0.7988,-0.7988,-0.7988,-0.7988,-0.7988,-0.7988,-0.7988,-0.7988,-0.7988,-0.7988,-0.7988,-0.7988,-0.7988,-0.7988,-0.7988,-0.7988,-0.7988,-0.7988,-0.7988,-0.7988,-0.7988,-0.7988,-0.7988,-0.7988,-0.7988,-0.7988,-0.7988,-0.7988,-0.7988,-0.7988,-0.7988,-0.7988,-0.7988,-0.7988,-0.7995,-0.812,-0.8313,-0.836,-0.8504,-0.891,-0.9159,-0.9045,-0.9042,-0.9089,-0.9184,-0.9293,-0.9347,-0.9388,-0.9449,-0.9547,-0.9578,-0.9632,-0.9734,-0.9669,-0.9435,-0.9205,-0.8988,-0.8798,-0.8676,-0.8523,-0.8353,-0.8357,-0.8411,-0.8235,-0.8048,-0.7995,-0.7988,-0.7988,-0.7988,-0.7988,-0.7988,-0.7988,-0.7988,-0.7988,-0.7988,-0.7988,-0.7988,-0.7988,-0.7988,-0.7988,-0.7988,-0.7988,-0.7988,-0.7988,-0.7988,-0.7988,-0.7988,-0.7988,-0.7988,-0.7988,-0.7988,-0.7988,-0.7988,-0.7988,-0.7988,-0.7988,-0.7988,-0.7988,-0.7988,-0.7988,-0.7988,-0.7988,-0.7988,-0.7988,-0.7988,-0.7988,-0.7988,-0.7988,-0.7988,-0.7988,-0.7988,-0.7988,-0.7988,-0.7988,-0.7988,-0.7988,-0.7988,-0.7988,-0.7988,-0.7988,-0.7988,-0.7988,-0.7988,-0.7988,-0.7988,-0.7988,-0.7988,-0.7988,-0.7988,-0.7988,-0.7988,-0.7988,-0.7988,-0.7988,-0.7988,-0.7988,-0.7988,-0.7988,-0.7988,-0.7988,-0.7988,-0.7988,-0.7988,-0.7988,-0.7988,-0.7988,-0.7988,-0.7988,-0.7988,-0.7995,-0.8066,-0.8269,-0.836,-0.8692,-0.905,-0.9344,-0.9303,-0.933,-0.9367,-0.9405,-0.9496,-0.9527,-0.9557,-0.9598,-0.9659,-0.969,-0.9737,-0.9791,-0.972,-0.9469,-0.9313,-0.9178,-0.8994,-0.8838,-0.8774,-0.8693,-0.8676,-0.8645,-0.8418,-0.8211,-0.8032,-0.7988,-0.7998,-0.7995,-0.7988,-0.7988,-0.7988,-0.7988,-0.7988,-0.7988,-0.7988,-0.7988,-0.7988,-0.7988,-0.7988,-0.7988,-0.7988,-0.7988,-0.7988,-0.7988,-0.7988,-0.7988,-0.7988,-0.7988,-0.7988,-0.7988,-0.7988,-0.7988,-0.7988,-0.7988,-0.7988,-0.7988,-0.7988,-0.7988,-0.7988,-0.7988,-0.7988,-0.7988,-0.7988,-0.7988,-0.7988,-0.7988,-0.7988,-0.7988,-0.7988,-0.7988,-0.7988,-0.7988,-0.7988,-0.7988,-0.7988,-0.7988,-0.7988,-0.7988,-0.7988,-0.7988,-0.7988,-0.7988,-0.7988,-0.7988,-0.7988,-0.7988,-0.7988,-0.7988,-0.7988,-0.7988,-0.7988,-0.7988,-0.7988,-0.7988,-0.7988,-0.7988,-0.7988,-0.7988,-0.7988,-0.7988,-0.7995,-0.7998,-0.7995,-0.8005,-0.8005,-0.8015,-0.8015,-0.813,-0.8089,-0.8211,-0.8394,-0.8523,-0.8818,-0.9139,-0.9347,-0.953,-0.9581,-0.9635,-0.9659,-0.9669,-0.9676,-0.9686,-0.9713,-0.9737,-0.9754,-0.9771,-0.9802,-0.969,-0.9493,-0.9398,-0.9327,-0.9242,-0.9103,-0.9069,-0.9025,-0.8957,-0.8835,-0.8584,-0.8391,-0.8235,-0.8119,-0.8019,-0.8012,-0.7992,-0.7988,-0.7988,-0.7988,-0.7988,-0.7988,-0.7988,-0.7988,-0.7988,-0.7988,-0.7988,-0.7988,-0.7988,-0.7988,-0.7988,-0.7988,-0.7988,-0.7988,-0.7988,-0.7988,-0.7988,-0.7988,-0.7988,-0.7988,-0.7988,-0.7988,-0.7988,-0.7988,-0.7988,-0.7988,-0.7988,-0.7988,-0.7988,-0.7988,-0.7988,-0.7988,-0.7988,-0.7988,-0.7988,-0.7988,-0.7988,-0.7988,-0.7988,-0.7988,-0.7988,-0.7988,-0.7988,-0.7988,-0.7988,-0.7988,-0.7988,-0.7988,-0.7988,-0.7988,-0.7988,-0.7988,-0.7988,-0.7988,-0.7988,-0.7988,-0.7988,-0.7988,-0.7988,-0.7988,-0.7988,-0.7988,-0.7988,-0.7988,-0.7988,-0.7988,-0.7988,-0.7988,-0.8002,-0.8012,-0.8025,-0.8089,-0.8099,-0.8062,-0.8167,-0.8255,-0.8353,-0.8503,-0.8621,-0.8716,-0.8923,-0.9187,-0.9381,-0.9585,-0.9642,-0.968,-0.9747,-0.9758,-0.9764,-0.9771,-0.9774,-0.9795,-0.9805,-0.9819,-0.9819,-0.9727,-0.9554,-0.9547,-0.9486,-0.9415,-0.9334,-0.9279,-0.9218,-0.9178,-0.9108,-0.8876,-0.8625,-0.8364,-0.8272,-0.8235,-0.8046,-0.8035,-0.7995,-0.7988,-0.7988,-0.7988,-0.7988,-0.7988,-0.7988,-0.7988,-0.7988,-0.7988,-0.7988,-0.7988,-0.7988,-0.7988,-0.7988,-0.7988,-0.7988,-0.7988,-0.7988,-0.7988,-0.7988,-0.7988,-0.7988,-0.7988,-0.7988,-0.7988,-0.7988,-0.7988,-0.7988,-0.7988,-0.7988,-0.7988,-0.7988,-0.7988,-0.7988,-0.7988,-0.7988,-0.7988,-0.7988,-0.7988,-0.7988,-0.7988,-0.7988,-0.7988,-0.7988,-0.7988,-0.7988,-0.7988,-0.7988,-0.7988,-0.7988,-0.7988,-0.7988,-0.7988,-0.7988,-0.7988,-0.7988,-0.7988,-0.7988,-0.7988,-0.7988,-0.7988,-0.7988,-0.7988,-0.7988,-0.7988,-0.7988,-0.7988,-0.7992,-0.8012,-0.8049,-0.8083,-0.818,-0.8204,-0.8231,-0.8258,-0.8275,-0.8323,-0.8401,-0.8469,-0.8618,-0.8774,-0.8869,-0.8988,-0.9248,-0.9351,-0.9537,-0.9622,-0.97,-0.9771,-0.9819,-0.9819,-0.9819,-0.9819,-0.9819,-0.9819,-0.9819,-0.9819,-0.9734,-0.9646,-0.9639,-0.9598,-0.9486,-0.9425,-0.9429,-0.9408,-0.9367,-0.9317,-0.9235,-0.8933,-0.8557,-0.8523,-0.8476,-0.8279,-0.8076,-0.8069,-0.8052,-0.7988,-0.7988,-0.7988,-0.7988,-0.7988,-0.7988,-0.7988,-0.7988,-0.7988,-0.7988,-0.7988,-0.7988,-0.7988,-0.7988,-0.7988,-0.7988,-0.7988,-0.7988,-0.7988,-0.7988,-0.7988,-0.7988,-0.7988,-0.7988,-0.7988,-0.7988,-0.7988,-0.7988,-0.7988,-0.7988,-0.7988,-0.7988,-0.7988,-0.7988,-0.7988,-0.7988,-0.7988,-0.7988,-0.7988,-0.7988,-0.7988,-0.7988,-0.7988,-0.7988,-0.7988,-0.7988,-0.7988,-0.7988,-0.7988,-0.7988,-0.7988,-0.7988,-0.7988,-0.7988,-0.7789,-0.7789,-0.7889,-0.7892,-0.7892,-0.7942,-0.7988,-0.7988,-0.7988,-0.7988,-0.7988,-0.7988,-0.8085,-0.813,-0.8194,-0.8252,-0.8309,-0.8415,-0.8411,-0.8459,-0.8479,-0.8499,-0.8533,-0.8567,-0.871,-0.8882,-0.8998,-0.9152,-0.9232,-0.9367,-0.9466,-0.952,-0.9615,-0.973,-0.9788,-0.9819,-0.9819,-0.9819,-0.9819,-0.9819,-0.9819,-0.9819,-0.9771,-0.9727,-0.973,-0.9673,-0.9557,-0.9561,-0.9549,-0.9595,-0.9554,-0.9431,-0.9292,-0.9026,-0.8771,-0.8743,-0.8655,-0.8448,-0.8316,-0.8296,-0.8272,-0.7968,-0.7968,-0.7982,-0.7988,-0.7988,-0.7988,-0.7988,-0.7988,-0.7988,-0.7988,-0.7988,-0.7988,-0.7988,-0.7988,-0.7988,-0.7988,-0.7988,-0.7988,-0.7988,-0.7988,-0.7988,-0.7988,-0.7988,-0.7988,-0.7988,-0.7988,-0.7988,-0.7988,-0.7988,-0.7988,-0.7988,-0.7988,-0.7988,-0.7988,-0.7988,-0.7988,-0.7988,-0.7988,-0.7988,-0.7988,-0.7988,-0.7988,-0.7988,-0.7988,-0.7988,-0.7988,-0.7988,-0.7988,-0.7988,-0.7988,-0.7988,-0.7988,-0.7988,-0.7839,-0.7587,-0.7537,-0.764,-0.7743,-0.7743,-0.7793,-0.7942,-0.7992,-0.7988,-0.7988,-0.7988,-0.7988,-0.8085,-0.8252,-0.8336,-0.8442,-0.8513,-0.852,-0.855,-0.8608,-0.8648,-0.8672,-0.8706,-0.8737,-0.8804,-0.894,-0.8994,-0.9083,-0.9106,-0.9225,-0.931,-0.9381,-0.949,-0.9629,-0.9633,-0.9684,-0.9724,-0.9724,-0.9711,-0.9714,-0.9819,-0.9819,-0.9819,-0.9805,-0.9724,-0.9785,-0.97,-0.9674,-0.9744,-0.955,-0.9407,-0.9433,-0.9261,-0.8954,-0.8739,-0.8744,-0.8685,-0.8551,-0.8513,-0.845,-0.8431,-0.7816,-0.7826,-0.7944,-0.7988,-0.7988,-0.7988,-0.7988,-0.7988,-0.7988,-0.7988,-0.7988,-0.7988,-0.7988,-0.7988,-0.7988,-0.7988,-0.7988,-0.7988,-0.7988,-0.7988,-0.7988,-0.7988,-0.7988,-0.7988,-0.7988,-0.7988,-0.7988,-0.7988,-0.7988,-0.7988,-0.7988,-0.7988,-0.7988,-0.7988,-0.7988,-0.7988,-0.7988,-0.7988,-0.7988,-0.7988,-0.7988,-0.7988,-0.7988,-0.7988,-0.7988,-0.7988,-0.7988,-0.7988,-0.7988,-0.7988,-0.7988,-0.7988,-0.7988,-0.7637,-0.7388,-0.7238,-0.7338,-0.7441,-0.7543,-0.7643,-0.7743,-0.7939,-0.7939,-0.7988,-0.7988,-0.7988,-0.8083,-0.8333,-0.8509,-0.8625,-0.8639,-0.8682,-0.8632,-0.8693,-0.8692,-0.8726,-0.8759,-0.8786,-0.8865,-0.8905,-0.8946,-0.8966,-0.8983,-0.9016,-0.9204,-0.9303,-0.9354,-0.9459,-0.9392,-0.9387,-0.9437,-0.945,-0.9623,-0.964,-0.9687,-0.9657,-0.9633,-0.9633,-0.9553,-0.9647,-0.9738,-0.9516,-0.9353,-0.9265,-0.9175,-0.9145,-0.8967,-0.8618,-0.8511,-0.8607,-0.8608,-0.8425,-0.8534,-0.8591,-0.8585,-0.7719,-0.7736,-0.7875,-0.7928,-0.7982,-0.7988,-0.7988,-0.7988,-0.7988,-0.7988,-0.7988,-0.7988,-0.7988,-0.7988,-0.7988,-0.7988,-0.7988,-0.7988,-0.7988,-0.7988,-0.7988,-0.7988,-0.7988,-0.7988,-0.7988,-0.7988,-0.7988,-0.7988,-0.7988,-0.7988,-0.7988,-0.7988,-0.7988,-0.7988,-0.7988,-0.7988,-0.7988,-0.7988,-0.7988,-0.7992,-0.7992,-0.7992,-0.7988,-0.7988,-0.7988,-0.7988,-0.7988,-0.7988,-0.7988,-0.7942,-0.7892,-0.769,-0.759,-0.7388,-0.7086,-0.6986,-0.7039,-0.7191,-0.7241,-0.7394,-0.7494,-0.764,-0.7693,-0.7593,-0.7724,-0.7787,-0.8126,-0.8381,-0.8682,-0.877,-0.8603,-0.8596,-0.8436,-0.8365,-0.8381,-0.8342,-0.839,-0.849,-0.8522,-0.856,-0.8583,-0.8583,-0.8573,-0.8444,-0.8633,-0.8884,-0.904,-0.9099,-0.9023,-0.8975,-0.9085,-0.9172,-0.9222,-0.9318,-0.9258,-0.9311,-0.9354,-0.936,-0.936,-0.9195,-0.911,-0.9004,-0.8951,-0.8831,-0.8813,-0.8754,-0.8515,-0.8278,-0.8292,-0.8445,-0.8407,-0.8293,-0.8436,-0.8602,-0.8548,-0.7584,-0.7617,-0.7753,-0.7885,-0.7955,-0.7982,-0.7988,-0.7988,-0.7988,-0.7988,-0.7988,-0.7988,-0.7988,-0.7988,-0.7988,-0.7988,-0.7988,-0.7988,-0.7988,-0.7988,-0.7988,-0.7988,-0.7988,-0.7988,-0.7988,-0.7988,-0.7988,-0.7988,-0.7988,-0.7988,-0.7988,-0.7988,-0.7988,-0.7988,-0.7988,-0.7988,-0.7988,-0.7988,-0.7992,-0.8005,-0.8005,-0.7998,-0.7992,-0.7988,-0.7988,-0.7988,-0.7988,-0.7988,-0.7988,-0.7736,-0.754,-0.7338,-0.6886,-0.6584,-0.6534,-0.6384,-0.6437,-0.6639,-0.6892,-0.7092,-0.7191,-0.7241,-0.7197,-0.7302,-0.7483,-0.7699,-0.8042,-0.8328,-0.8624,-0.8699,-0.853,-0.8364,-0.8205,-0.8097,-0.8042,-0.8045,-0.8097,-0.8199,-0.8232,-0.8266,-0.8266,-0.8266,-0.8167,-0.8041,-0.818,-0.8426,-0.8537,-0.8597,-0.8574,-0.8507,-0.849,-0.8592,-0.8762,-0.8793,-0.8832,-0.8926,-0.8999,-0.8921,-0.8849,-0.8663,-0.8515,-0.8577,-0.8534,-0.8432,-0.8405,-0.8253,-0.8202,-0.7986,-0.8076,-0.8162,-0.8086,-0.7989,-0.8156,-0.8269,-0.8322,-0.7489,-0.7614,-0.775,-0.7831,-0.7826,-0.7931,-0.7988,-0.7988,-0.7988,-0.7988,-0.7988,-0.7988,-0.7988,-0.7988,-0.7988,-0.7988,-0.7988,-0.7988,-0.7988,-0.7988,-0.7988,-0.7988,-0.7988,-0.7988,-0.7988,-0.7988,-0.7988,-0.7988,-0.7988,-0.7988,-0.7988,-0.7988,-0.7988,-0.7988,-0.7988,-0.7992,-0.7995,-0.8008,-0.8035,-0.8106,-0.8167,-0.814,-0.7998,-0.7988,-0.7988,-0.7988,-0.7988,-0.7988,-0.7988,-0.7637,-0.6781,-0.6581,-0.6129,-0.5482,-0.5179,-0.5632,-0.5734,-0.6137,-0.6439,-0.6739,-0.6892,-0.7127,-0.716,-0.725,-0.7379,-0.7458,-0.774,-0.7867,-0.8072,-0.8195,-0.8094,-0.8094,-0.7989,-0.7931,-0.7931,-0.7931,-0.7958,-0.7967,-0.8038,-0.8047,-0.8047,-0.7994,-0.7879,-0.7841,-0.7949,-0.8112,-0.8115,-0.8164,-0.8185,-0.8079,-0.7927,-0.8067,-0.8223,-0.8387,-0.8506,-0.8546,-0.8583,-0.85,-0.8414,-0.825,-0.8193,-0.8206,-0.8145,-0.8014,-0.7804,-0.7601,-0.7547,-0.768,-0.7699,-0.7724,-0.7703,-0.7718,-0.7881,-0.7937,-0.7989]}]]